[[{"header":{"parameterUnit":"m.s-1","parameterCategory":1,"la1":31.0,"la2":29.5877,"lo1":-88.7671,"lo2":-86.6584,"dy":0.0162,"dx":0.0185,"nx":115,"ny":88,"refTime":"2024-06-24T06:00:00:Z","depth":0,"parameterNumber":2,"parameterNumberName":"U-component_of_WINDS"},"data":[0.0,0.0,0.0,0.0,0.0,0.0,0.0,0.0,0.0,0.0,0.0,0.0,0.0,0.0,0.0,0.0,0.0,0.0,0.0,0.0,0.0,0.0,0.0,0.0,0.0,0.0,0.0,0.0,0.0,0.0,0.0,0.0,0.0,0.0,0.0,0.0,0.0,0.0,0.0,0.0,0.0,0.0,0.0,0.0,0.0,0.0,0.0,0.0,0.0,0.0,0.0,0.0,0.0,0.0,0.0,0.0,0.0,0.0,0.0,0.0,0.0,0.0,0.0,0.0,0.0,0.0,0.0,0.0,0.0,0.0,0.0,0.0,0.0,0.0,0.0,0.0,0.0,0.0,0.0,0.0,0.0,0.0,0.0,0.0,0.0,0.0,0.0,0.0,0.0,0.0,0.0,0.0,0.0,0.0,0.0,0.0,0.0,0.0,0.0,0.0,0.0,0.0,0.0,0.0,0.0,0.0,0.0,0.0,0.0,0.0,0.0,0.0,0.0,0.0,0.0,0.0,0.0,0.0,0.0,0.0,0.0,0.0,0.0,0.0,0.0,0.0,0.0,0.0,0.0,0.0,0.0,0.0,0.0,0.0,0.0,0.0,0.0,0.0,0.0,0.0,0.0,0.0,0.0,0.0,0.0,0.0,0.0,0.0,0.0,0.0,0.0,0.0,0.0,0.0,0.0,0.0,0.0,0.0,0.0,0.0,0.0,0.0,0.0,0.0,0.0,0.0,0.0,0.0,0.0,0.0,0.0,0.0,0.0,0.0,0.0,0.0,0.0,0.0,0.0,0.0,0.0,0.0,0.0,0.0,0.0,0.0,0.0,0.0,0.0,0.0,0.0,0.0,0.0,0.0,0.0,0.0,0.0,0.0,0.0,0.0,0.0,0.0,0.0,0.0,0.0,0.0,0.0,0.0,0.0,0.0,0.0,0.0,0.0,0.0,0.0,0.0,0.0,0.0,0.0,0.0,0.0,0.0,0.0,0.0,0.0,0.0,0.0,0.0,0.0,0.0,0.0,0.0,0.0,0.0,0.0,0.0,0.0,0.0,0.0,0.0,0.0,0.0,0.0,0.0,0.0,0.0,0.0,0.0,0.0,0.0,0.0,0.0,0.0,0.0,0.0,0.0,0.0,0.0,0.0,0.0,0.0,0.0,0.0,0.0,0.0,0.0,0.0,0.0,0.0,0.0,0.0,0.0,0.0,0.0,0.0,0.0,0.0,0.0,0.0,0.0,0.0,0.0,0.0,0.0,0.0,0.0,0.0,0.0,0.0,0.0,0.0,0.0,0.0,0.0,0.0,0.0,0.0,0.0,0.0,0.0,0.0,0.0,0.0,0.0,0.0,0.0,0.0,0.0,0.0,0.0,0.0,0.0,0.0,0.0,0.0,0.0,0.0,0.0,0.0,0.0,0.0,0.0,0.0,0.0,0.0,0.0,0.0,0.0,0.0,0.0,0.0,0.0,0.0,0.0,0.0,0.0,0.0,0.0,0.0,0.0,0.0,0.0,0.0,0.0,0.0,0.0,0.0,0.0,0.0,0.0,0.0,0.0,0.0,0.0,0.0,0.0,0.0,0.0,0.0,0.0,0.0,0.0,0.0,0.0,0.0,0.0,0.0,0.0,0.0,0.0,0.0,0.0,0.0,0.0,0.0,0.0,0.0,0.0,0.0,0.0,0.0,0.0,0.0,0.0,0.0,0.0,0.0,0.0,0.0,0.0,0.0,0.0,0.0,0.0,0.0,0.0,0.0,0.0,0.0,0.0,0.0,0.0,0.0,0.0,0.0,0.0,0.0,0.0,0.0,0.0,0.0,0.0,0.0,0.0,0.0,0.0,0.0,0.0,0.0,0.0,0.0,0.0,0.0,0.0,0.0,0.0,0.0,0.0,0.0,0.0,0.0,0.0,0.0,0.0,0.0,0.0,0.0,0.0,0.0,0.0,0.0,0.0,0.0,0.0,0.0,0.0,0.0,0.0,0.0,0.0,0.0,0.0,0.0,0.0,0.0,0.0,0.0,0.0,0.0,0.0,0.0,0.0,0.0,0.0,0.0,0.0,0.0,0.0,0.0,0.0,0.0,0.0,0.0,0.0,0.0,0.0,0.0,0.0,0.0,0.0,0.0,0.0,0.0,0.0,0.0,0.0,0.0,0.0,0.0,0.0,0.0,0.0,0.0,0.0,0.0,0.0,0.0,0.0,0.0,0.0,0.0,0.0,0.0,0.0,0.0,0.0,0.0,0.0,0.0,0.0,0.0,0.0,0.0,0.0,0.0,0.0,0.0,0.0,0.0,0.0,0.0,0.0,0.0,0.0,0.0,0.0,0.0,0.0,0.0,0.0,0.0,0.0,0.0,0.0,0.0,0.0,0.0,0.0,0.0,0.0,0.0,0.0,0.0,0.0,0.0,0.0,0.0,0.0,0.0,0.0,0.0,0.0,0.0,0.0,0.0,0.0,0.0,0.0,0.0,0.0,0.0,0.0,0.0,0.0,0.0,0.0,0.0,0.0,0.0,0.0,0.0,0.0,0.0,0.0,0.0,0.0,0.0,0.0,0.0,0.0,0.0,0.0,0.0,0.0,0.0,0.0,0.0,0.0,0.0,0.0,0.0,0.0,0.0,0.0,0.0,0.0,0.0,0.0,0.0,0.0,0.0,0.0,0.0,0.0,0.0,0.0,0.0,0.0,0.0,0.0,0.0,0.0,0.0,0.0,0.0,0.0,0.0,0.0,0.0,0.0,0.0,0.0,0.0,0.0,0.0,0.0,0.0,0.0,0.0,0.0,0.0,0.0,0.0,0.0,0.0,0.0,0.0,0.0,0.0,0.0,0.0,0.0,0.0,0.0,0.0,0.0,0.0,0.0,0.0,0.0,0.0,0.0,0.0,0.0,0.0,0.0,0.0,0.0,0.0,0.0,0.0,0.0,0.0,0.0,0.0,0.0,0.0,0.0,0.0,0.0,0.0,0.0,0.0,0.0,0.0,0.0,0.0,0.0,0.0,0.0,0.0,0.0,0.0,0.0,0.0,0.0,0.0,0.0,0.0,0.0,0.0,0.0,0.0,0.0,0.0,0.0,0.0,0.0,0.0,0.0,0.0,0.0,0.0,0.0,0.0,0.0,0.0,0.0,0.0,0.0,0.0,0.0,0.0,0.0,0.0,0.0,0.0,0.0,0.0,0.0,0.0,0.0,0.0,0.0,0.0,0.0,0.0,0.0,0.0,0.0,0.0,0.0,0.0,0.0,0.0,0.0,0.0,0.0,0.0,0.0,0.0,0.0,0.0,0.0,0.0,0.0,0.0,0.0,0.0,0.0,0.0,0.0,0.0,0.0,0.0,0.0,0.0,0.0,0.0,0.0,0.0,0.0,0.0,0.0,0.0,0.0,0.0,0.0,0.0,0.0,0.0,0.0,0.0,0.0,0.0,0.0,0.0,0.0,0.0,0.0,0.0,0.0,0.0,0.0,0.0,0.0,0.0,0.0,0.0,0.0,0.0,0.0,0.0,0.0,0.0,0.0,0.0,0.0,0.0,0.0,0.0,0.0,0.0,0.0,0.0,0.0,0.0,0.0,0.0,0.0,0.0,0.0,0.0,0.0,0.0,0.0,0.0,0.0,0.0,0.0,0.0,0.0,0.0,0.0,0.0,0.0,0.0,0.0,0.0,0.0,0.0,0.0,0.0,0.0,0.0,0.0,0.0,0.0,0.0,0.0,0.0,0.0,0.0,0.0,0.0,0.0,0.0,0.0,0.0,0.0,0.0,0.0,0.0,0.0,0.0,0.0,0.0,0.0,0.0,0.0,0.0,0.0,0.0,0.0,0.0,0.0,0.0,0.0,0.0,0.0,0.0,0.0,0.0,0.0,0.0,0.0,0.0,0.0,0.0,0.0,0.0,0.0,0.0,0.0,0.0,0.0,0.0,0.0,0.0,0.0,0.0,0.0,0.0,0.0,0.0,0.0,0.0,0.0,0.0,0.0,0.0,0.0,0.0,0.0,0.0,0.0,0.0,0.0,0.0,0.0,0.0,0.0,0.0,0.0,0.0,0.0,0.0,0.0,0.0,0.0,0.0,0.0,0.0,0.0,0.0,0.0,0.0,0.0,0.0,0.0,0.0,0.0,0.0,0.0,0.0,0.0,0.0,0.0,0.0,0.0,0.0,0.0,0.0,0.0,0.0,0.0,0.0,0.0,0.0,0.0,0.0,0.0,0.0,0.0,0.0,0.0,0.0,0.0,0.0,0.0,0.0,0.0,0.0,0.0,0.0,0.0,-3.4395,0.0,0.0,0.0,0.0,0.0,0.0,0.0,0.0,0.0,0.0,0.0,0.0,0.0,0.0,0.0,0.0,0.0,0.0,0.0,0.0,0.0,0.0,0.0,0.0,0.0,0.0,0.0,0.0,0.0,0.0,0.0,0.0,0.0,0.0,0.0,0.0,0.0,0.0,0.0,0.0,0.0,0.0,0.0,0.0,0.0,0.0,0.0,0.0,0.0,0.0,0.0,0.0,0.0,0.0,0.0,0.0,0.0,0.0,0.0,0.0,0.0,0.0,0.0,0.0,0.0,0.0,0.0,0.0,0.0,0.0,0.0,0.0,0.0,0.0,0.0,0.0,0.0,0.0,0.0,0.0,0.0,0.0,0.0,0.0,0.0,0.0,0.0,0.0,0.0,0.0,0.0,0.0,0.0,0.0,0.0,0.0,0.0,0.0,0.0,0.0,0.0,0.0,0.0,0.0,0.0,0.0,0.0,0.0,0.0,0.0,-3.5886,-3.5878,-3.5525,-3.5284,-3.5212,0.0,0.0,0.0,0.0,0.0,0.0,0.0,0.0,0.0,0.0,0.0,0.0,0.0,0.0,0.0,0.0,0.0,0.0,0.0,0.0,0.0,0.0,0.0,0.0,0.0,0.0,0.0,0.0,0.0,0.0,0.0,0.0,0.0,0.0,0.0,0.0,0.0,0.0,0.0,0.0,0.0,0.0,0.0,0.0,0.0,0.0,0.0,0.0,0.0,0.0,0.0,0.0,0.0,0.0,0.0,0.0,0.0,0.0,0.0,0.0,0.0,0.0,0.0,0.0,0.0,0.0,0.0,0.0,0.0,0.0,0.0,0.0,0.0,0.0,0.0,0.0,0.0,0.0,0.0,0.0,0.0,0.0,0.0,0.0,0.0,0.0,0.0,0.0,0.0,0.0,0.0,0.0,0.0,0.0,0.0,0.0,0.0,0.0,0.0,0.0,0.0,0.0,0.0,0.0,0.0,0.0,0.0,0.0,0.0,0.0,0.0,0.0,-3.6301,-3.5974,-3.5491,0.0,0.0,0.0,0.0,0.0,0.0,0.0,0.0,0.0,0.0,0.0,0.0,0.0,0.0,0.0,0.0,0.0,0.0,0.0,0.0,0.0,0.0,0.0,0.0,0.0,0.0,0.0,0.0,0.0,0.0,0.0,0.0,0.0,0.0,0.0,0.0,0.0,0.0,0.0,0.0,0.0,0.0,0.0,0.0,0.0,0.0,0.0,0.0,0.0,0.0,0.0,0.0,0.0,0.0,0.0,0.0,0.0,0.0,0.0,0.0,0.0,0.0,0.0,0.0,0.0,0.0,0.0,0.0,0.0,0.0,0.0,0.0,0.0,0.0,0.0,0.0,0.0,0.0,0.0,0.0,0.0,0.0,0.0,0.0,0.0,0.0,0.0,0.0,0.0,0.0,0.0,0.0,0.0,0.0,0.0,0.0,0.0,0.0,0.0,0.0,0.0,0.0,0.0,0.0,0.0,0.0,0.0,0.0,0.0,0.0,-3.826,-3.8264,-3.7507,0.0,-3.4714,0.0,0.0,0.0,0.0,0.0,0.0,0.0,0.0,0.0,0.0,0.0,0.0,0.0,0.0,0.0,0.0,0.0,0.0,0.0,0.0,0.0,0.0,0.0,0.0,0.0,0.0,0.0,0.0,0.0,0.0,0.0,0.0,0.0,0.0,0.0,0.0,0.0,0.0,0.0,0.0,0.0,0.0,0.0,0.0,0.0,0.0,0.0,0.0,0.0,0.0,0.0,0.0,0.0,0.0,0.0,0.0,0.0,0.0,0.0,0.0,0.0,0.0,0.0,0.0,0.0,0.0,0.0,0.0,0.0,0.0,0.0,0.0,0.0,0.0,0.0,0.0,0.0,0.0,0.0,0.0,0.0,0.0,0.0,0.0,0.0,0.0,0.0,0.0,0.0,0.0,0.0,0.0,0.0,0.0,0.0,0.0,0.0,0.0,0.0,0.0,0.0,0.0,0.0,0.0,0.0,0.0,0.0,0.0,0.0,0.0,0.0,-3.8438,-3.7553,-3.6716,0.0,0.0,0.0,0.0,0.0,0.0,0.0,0.0,0.0,0.0,0.0,0.0,0.0,0.0,0.0,0.0,0.0,0.0,0.0,0.0,0.0,0.0,0.0,0.0,0.0,0.0,0.0,0.0,0.0,0.0,0.0,0.0,0.0,0.0,0.0,0.0,0.0,0.0,0.0,0.0,0.0,0.0,0.0,0.0,0.0,0.0,0.0,0.0,0.0,0.0,0.0,0.0,0.0,0.0,0.0,0.0,0.0,0.0,0.0,0.0,0.0,0.0,0.0,0.0,0.0,0.0,0.0,0.0,0.0,0.0,0.0,0.0,0.0,0.0,0.0,0.0,0.0,0.0,0.0,0.0,0.0,0.0,0.0,0.0,0.0,0.0,0.0,0.0,0.0,0.0,0.0,0.0,0.0,0.0,0.0,0.0,0.0,0.0,0.0,0.0,0.0,0.0,0.0,0.0,0.0,0.0,0.0,0.0,0.0,0.0,-3.9065,0.0,-3.87,-3.785,-3.7225,-3.6975,0.0,0.0,0.0,0.0,0.0,0.0,0.0,0.0,0.0,0.0,0.0,0.0,0.0,0.0,0.0,0.0,0.0,0.0,0.0,0.0,0.0,0.0,0.0,0.0,0.0,0.0,0.0,0.0,0.0,0.0,0.0,0.0,0.0,0.0,0.0,0.0,0.0,0.0,0.0,0.0,0.0,0.0,0.0,0.0,0.0,0.0,0.0,0.0,0.0,0.0,0.0,0.0,0.0,0.0,0.0,0.0,0.0,0.0,0.0,0.0,0.0,0.0,0.0,0.0,0.0,0.0,0.0,0.0,0.0,0.0,0.0,0.0,0.0,0.0,0.0,0.0,0.0,0.0,0.0,0.0,0.0,0.0,0.0,0.0,0.0,0.0,0.0,0.0,0.0,0.0,0.0,0.0,0.0,0.0,0.0,0.0,0.0,0.0,0.0,0.0,0.0,0.0,0.0,0.0,0.0,0.0,0.0,0.0,0.0,-4.0445,-4.0455,-3.9567,-3.8685,-3.7815,0.0,0.0,0.0,0.0,0.0,0.0,0.0,0.0,0.0,0.0,0.0,0.0,0.0,0.0,0.0,0.0,0.0,0.0,0.0,0.0,0.0,0.0,0.0,0.0,0.0,0.0,0.0,0.0,0.0,0.0,0.0,0.0,0.0,0.0,0.0,0.0,0.0,0.0,0.0,0.0,0.0,0.0,0.0,0.0,0.0,0.0,0.0,0.0,0.0,0.0,0.0,0.0,0.0,0.0,0.0,0.0,0.0,0.0,0.0,0.0,0.0,0.0,0.0,0.0,0.0,0.0,0.0,0.0,0.0,0.0,0.0,0.0,0.0,0.0,0.0,0.0,0.0,0.0,0.0,0.0,0.0,0.0,0.0,0.0,0.0,0.0,0.0,0.0,0.0,0.0,0.0,0.0,0.0,0.0,0.0,0.0,0.0,0.0,0.0,0.0,0.0,0.0,0.0,0.0,0.0,0.0,0.0,0.0,0.0,-4.0517,-4.0805,-4.0746,-4.0373,-3.9522,-3.8659,0.0,0.0,0.0,0.0,0.0,0.0,0.0,0.0,0.0,0.0,0.0,0.0,0.0,0.0,0.0,0.0,0.0,0.0,0.0,0.0,0.0,0.0,0.0,0.0,0.0,0.0,0.0,0.0,0.0,0.0,0.0,0.0,0.0,0.0,0.0,0.0,0.0,0.0,0.0,0.0,0.0,0.0,0.0,0.0,0.0,0.0,0.0,0.0,0.0,0.0,0.0,0.0,0.0,0.0,0.0,0.0,0.0,0.0,0.0,0.0,0.0,0.0,0.0,0.0,0.0,0.0,0.0,0.0,0.0,0.0,0.0,0.0,0.0,0.0,0.0,0.0,0.0,0.0,0.0,0.0,0.0,0.0,0.0,0.0,0.0,0.0,0.0,0.0,0.0,0.0,0.0,0.0,0.0,0.0,0.0,0.0,0.0,0.0,0.0,0.0,0.0,0.0,0.0,0.0,0.0,0.0,0.0,0.0,0.0,-4.1341,0.0,-4.1567,0.0,-4.0355,-3.9365,0.0,0.0,0.0,0.0,0.0,0.0,0.0,0.0,0.0,0.0,0.0,0.0,0.0,0.0,0.0,0.0,0.0,0.0,0.0,0.0,0.0,0.0,0.0,0.0,0.0,0.0,0.0,0.0,0.0,0.0,0.0,0.0,0.0,0.0,0.0,0.0,0.0,0.0,0.0,0.0,0.0,0.0,0.0,0.0,0.0,0.0,0.0,0.0,0.0,0.0,0.0,0.0,0.0,0.0,0.0,0.0,0.0,0.0,0.0,0.0,0.0,0.0,0.0,0.0,0.0,0.0,0.0,0.0,0.0,0.0,0.0,0.0,0.0,0.0,0.0,0.0,0.0,0.0,0.0,0.0,0.0,0.0,0.0,0.0,0.0,0.0,0.0,0.0,0.0,0.0,0.0,0.0,0.0,0.0,0.0,0.0,0.0,0.0,0.0,0.0,0.0,0.0,0.0,0.0,0.0,0.0,0.0,0.0,-4.1438,-4.2204,-4.295,-4.2925,-4.2111,-4.119,-3.9908,0.0,0.0,0.0,0.0,0.0,0.0,0.0,0.0,0.0,0.0,0.0,0.0,0.0,0.0,0.0,0.0,0.0,0.0,0.0,0.0,0.0,0.0,0.0,0.0,0.0,0.0,0.0,0.0,0.0,0.0,0.0,0.0,0.0,0.0,0.0,0.0,0.0,0.0,0.0,0.0,0.0,0.0,0.0,0.0,0.0,0.0,0.0,0.0,0.0,0.0,0.0,0.0,0.0,0.0,0.0,0.0,0.0,0.0,0.0,0.0,0.0,0.0,0.0,0.0,0.0,0.0,0.0,0.0,0.0,0.0,0.0,0.0,0.0,0.0,0.0,0.0,0.0,0.0,0.0,0.0,0.0,0.0,0.0,0.0,0.0,0.0,0.0,0.0,0.0,0.0,0.0,0.0,0.0,0.0,0.0,0.0,0.0,0.0,0.0,0.0,0.0,0.0,0.0,0.0,0.0,0.0,0.0,0.0,0.0,-4.3034,-4.322,-4.3202,-4.2912,-4.2021,-4.0981,0.0,0.0,0.0,0.0,0.0,0.0,0.0,0.0,0.0,0.0,0.0,0.0,0.0,0.0,0.0,0.0,0.0,0.0,0.0,0.0,0.0,0.0,0.0,0.0,0.0,0.0,0.0,0.0,0.0,0.0,0.0,0.0,0.0,0.0,0.0,0.0,0.0,0.0,0.0,0.0,0.0,0.0,0.0,0.0,0.0,0.0,0.0,0.0,0.0,0.0,0.0,0.0,0.0,0.0,0.0,0.0,0.0,0.0,0.0,0.0,0.0,0.0,0.0,0.0,0.0,0.0,0.0,0.0,0.0,0.0,0.0,0.0,0.0,0.0,0.0,0.0,0.0,0.0,0.0,0.0,0.0,0.0,0.0,0.0,0.0,0.0,0.0,0.0,0.0,0.0,0.0,0.0,0.0,0.0,0.0,0.0,0.0,0.0,0.0,0.0,0.0,0.0,0.0,0.0,0.0,0.0,0.0,0.0,0.0,-4.4273,-4.424,-4.4072,-4.3768,-4.3149,-4.2113,-4.0646,0.0,0.0,0.0,0.0,0.0,0.0,0.0,0.0,0.0,0.0,0.0,0.0,0.0,0.0,0.0,0.0,0.0,0.0,0.0,0.0,0.0,0.0,0.0,0.0,0.0,0.0,0.0,0.0,0.0,0.0,0.0,0.0,0.0,0.0,0.0,0.0,0.0,0.0,0.0,0.0,0.0,0.0,0.0,0.0,0.0,0.0,0.0,0.0,0.0,0.0,0.0,0.0,0.0,0.0,0.0,0.0,0.0,0.0,0.0,0.0,0.0,0.0,0.0,0.0,0.0,0.0,0.0,0.0,0.0,0.0,0.0,0.0,0.0,0.0,0.0,0.0,0.0,0.0,0.0,0.0,0.0,0.0,0.0,0.0,0.0,0.0,0.0,0.0,0.0,0.0,0.0,0.0,0.0,0.0,0.0,0.0,0.0,0.0,0.0,0.0,0.0,0.0,0.0,0.0,0.0,0.0,0.0,0.0,-4.5688,-4.5757,-4.5392,-4.4588,-4.4442,-4.3246,0.0,0.0,0.0,0.0,0.0,0.0,0.0,0.0,0.0,0.0,0.0,0.0,0.0,0.0,0.0,0.0,0.0,0.0,0.0,0.0,0.0,0.0,0.0,0.0,0.0,0.0,0.0,0.0,0.0,0.0,0.0,0.0,0.0,0.0,0.0,0.0,0.0,0.0,0.0,0.0,0.0,0.0,0.0,0.0,0.0,0.0,0.0,0.0,0.0,0.0,0.0,0.0,0.0,0.0,0.0,0.0,0.0,0.0,0.0,0.0,0.0,0.0,0.0,0.0,0.0,0.0,0.0,0.0,0.0,0.0,0.0,0.0,0.0,0.0,0.0,0.0,0.0,0.0,0.0,0.0,0.0,0.0,0.0,0.0,0.0,0.0,0.0,0.0,0.0,0.0,0.0,0.0,0.0,0.0,0.0,0.0,0.0,0.0,0.0,0.0,0.0,0.0,0.0,0.0,0.0,0.0,0.0,0.0,0.0,-4.5688,-4.5719,-4.5607,-4.5379,-4.4694,-4.3737,0.0,0.0,0.0,0.0,0.0,0.0,0.0,0.0,0.0,0.0,0.0,0.0,0.0,0.0,0.0,0.0,0.0,0.0,0.0,0.0,0.0,0.0,0.0,0.0,0.0,0.0,0.0,0.0,0.0,0.0,0.0,0.0,0.0,0.0,0.0,0.0,0.0,0.0,0.0,0.0,0.0,0.0,0.0,0.0,0.0,0.0,0.0,0.0,0.0,0.0,0.0,0.0,0.0,0.0,0.0,0.0,0.0,0.0,0.0,0.0,0.0,0.0,0.0,0.0,0.0,0.0,0.0,0.0,0.0,0.0,0.0,0.0,0.0,0.0,0.0,0.0,0.0,0.0,0.0,0.0,0.0,0.0,0.0,0.0,0.0,0.0,0.0,0.0,0.0,0.0,0.0,0.0,0.0,0.0,0.0,0.0,0.0,0.0,0.0,0.0,0.0,0.0,0.0,0.0,0.0,0.0,0.0,0.0,-4.5861,-4.6183,-4.5858,-4.5657,-4.5657,-4.5122,-4.4278,0.0,0.0,0.0,0.0,0.0,0.0,0.0,0.0,0.0,0.0,0.0,0.0,0.0,0.0,0.0,0.0,0.0,0.0,0.0,0.0,0.0,0.0,0.0,0.0,0.0,0.0,0.0,0.0,0.0,0.0,0.0,0.0,0.0,0.0,0.0,0.0,0.0,0.0,0.0,0.0,0.0,0.0,0.0,0.0,0.0,0.0,0.0,0.0,0.0,0.0,0.0,0.0,0.0,0.0,0.0,0.0,0.0,0.0,0.0,0.0,0.0,0.0,0.0,0.0,0.0,0.0,0.0,0.0,0.0,0.0,0.0,0.0,0.0,0.0,0.0,0.0,0.0,0.0,0.0,0.0,0.0,0.0,0.0,0.0,0.0,0.0,0.0,0.0,0.0,0.0,0.0,0.0,0.0,0.0,0.0,0.0,0.0,0.0,0.0,0.0,0.0,0.0,0.0,0.0,0.0,0.0,0.0,0.0,-4.6052,-4.6721,-4.6009,-4.5594,-4.5594,-4.5594,-4.4825,0.0,0.0,0.0,0.0,0.0,0.0,0.0,0.0,0.0,0.0,0.0,0.0,0.0,0.0,0.0,0.0,0.0,0.0,0.0,0.0,0.0,0.0,0.0,0.0,0.0,0.0,0.0,0.0,0.0,0.0,0.0,0.0,0.0,0.0,0.0,0.0,0.0,0.0,0.0,0.0,0.0,0.0,0.0,0.0,0.0,0.0,0.0,0.0,0.0,0.0,0.0,0.0,0.0,0.0,0.0,0.0,0.0,0.0,0.0,0.0,0.0,0.0,0.0,0.0,0.0,0.0,0.0,0.0,0.0,0.0,0.0,0.0,0.0,0.0,0.0,0.0,0.0,0.0,0.0,0.0,0.0,0.0,0.0,0.0,0.0,0.0,0.0,0.0,0.0,0.0,0.0,0.0,0.0,0.0,0.0,0.0,0.0,0.0,0.0,0.0,0.0,0.0,0.0,0.0,0.0,0.0,0.0,0.0,-4.5719,-4.5874,-4.5691,-4.5594,-4.5594,-4.5594,-4.4806,0.0,0.0,0.0,0.0,0.0,0.0,0.0,0.0,0.0,0.0,0.0,0.0,0.0,0.0,0.0,0.0,0.0,0.0,0.0,0.0,0.0,0.0,0.0,0.0,0.0,0.0,0.0,0.0,0.0,0.0,0.0,0.0,0.0,0.0,0.0,0.0,0.0,0.0,0.0,0.0,0.0,0.0,0.0,0.0,0.0,0.0,0.0,0.0,-4.2926,0.0,0.0,0.0,0.0,0.0,0.0,0.0,0.0,0.0,0.0,0.0,0.0,0.0,0.0,0.0,0.0,0.0,0.0,0.0,0.0,0.0,0.0,0.0,0.0,0.0,0.0,0.0,0.0,0.0,0.0,0.0,0.0,0.0,0.0,0.0,0.0,0.0,0.0,0.0,0.0,0.0,0.0,0.0,0.0,0.0,0.0,0.0,0.0,0.0,0.0,0.0,0.0,0.0,0.0,0.0,0.0,0.0,0.0,0.0,-4.5778,-4.6182,-4.5806,-4.5594,-4.5594,-4.5594,-4.4825,0.0,0.0,0.0,0.0,0.0,0.0,0.0,0.0,0.0,0.0,0.0,0.0,0.0,0.0,0.0,0.0,0.0,0.0,0.0,0.0,0.0,0.0,0.0,0.0,0.0,0.0,0.0,0.0,0.0,0.0,0.0,0.0,0.0,0.0,0.0,0.0,0.0,0.0,0.0,0.0,0.0,0.0,0.0,0.0,0.0,0.0,0.0,0.0,0.0,0.0,0.0,0.0,0.0,0.0,0.0,0.0,0.0,0.0,0.0,0.0,0.0,0.0,0.0,0.0,0.0,0.0,0.0,0.0,0.0,0.0,0.0,0.0,0.0,0.0,0.0,0.0,0.0,0.0,0.0,0.0,0.0,0.0,0.0,0.0,0.0,0.0,0.0,0.0,0.0,0.0,0.0,0.0,0.0,0.0,0.0,0.0,0.0,0.0,0.0,0.0,0.0,0.0,0.0,0.0,0.0,0.0,0.0,-4.597,-4.596,-4.6644,-4.597,-4.5594,-4.5594,-4.5594,-4.4797,-4.3154,0.0,0.0,0.0,0.0,0.0,0.0,0.0,0.0,0.0,0.0,0.0,0.0,0.0,0.0,0.0,0.0,0.0,0.0,0.0,0.0,0.0,0.0,0.0,0.0,0.0,0.0,0.0,0.0,0.0,0.0,0.0,0.0,0.0,0.0,0.0,0.0,0.0,0.0,-4.1119,-4.2653,0.0,0.0,0.0,0.0,0.0,0.0,0.0,0.0,-4.5688,0.0,0.0,0.0,0.0,0.0,0.0,0.0,0.0,0.0,0.0,0.0,0.0,0.0,0.0,0.0,0.0,0.0,0.0,0.0,0.0,0.0,0.0,0.0,0.0,0.0,0.0,0.0,0.0,0.0,0.0,0.0,0.0,0.0,0.0,0.0,0.0,0.0,0.0,0.0,0.0,0.0,0.0,0.0,0.0,0.0,0.0,0.0,0.0,0.0,0.0,0.0,0.0,0.0,0.0,0.0,0.0,-4.5787,-4.5671,-4.5671,-4.5806,-4.5691,-4.5594,-4.5594,-4.5594,-4.4788,-4.3131,0.0,0.0,0.0,0.0,0.0,0.0,0.0,0.0,0.0,0.0,0.0,0.0,0.0,0.0,0.0,0.0,0.0,0.0,0.0,0.0,0.0,0.0,0.0,0.0,0.0,0.0,0.0,0.0,0.0,0.0,0.0,0.0,0.0,0.0,0.0,0.0,0.0,0.0,0.0,-4.4348,-4.5615,0.0,0.0,0.0,0.0,0.0,0.0,0.0,0.0,-4.6336,0.0,0.0,0.0,0.0,0.0,0.0,0.0,0.0,0.0,0.0,0.0,0.0,0.0,0.0,0.0,0.0,0.0,0.0,0.0,0.0,0.0,0.0,0.0,0.0,0.0,0.0,0.0,0.0,0.0,0.0,0.0,0.0,0.0,0.0,0.0,0.0,0.0,0.0,0.0,0.0,0.0,0.0,0.0,0.0,0.0,0.0,0.0,0.0,0.0,0.0,0.0,0.0,0.0,0.0,0.0,-4.4874,-4.5383,-4.5594,-4.5594,-4.5594,-4.5594,-4.5594,-4.5152,-4.431,0.0,0.0,0.0,0.0,0.0,0.0,0.0,0.0,0.0,0.0,0.0,0.0,0.0,0.0,0.0,0.0,0.0,0.0,0.0,0.0,0.0,0.0,0.0,0.0,0.0,0.0,0.0,0.0,0.0,0.0,0.0,0.0,0.0,0.0,0.0,0.0,0.0,0.0,0.0,0.0,-4.565,-4.6703,-4.7465,0.0,0.0,0.0,0.0,0.0,0.0,-4.7683,-4.716,0.0,0.0,0.0,0.0,0.0,0.0,0.0,0.0,0.0,0.0,0.0,0.0,0.0,0.0,0.0,0.0,0.0,0.0,0.0,0.0,0.0,0.0,0.0,0.0,0.0,0.0,0.0,0.0,0.0,0.0,0.0,0.0,0.0,0.0,0.0,0.0,0.0,0.0,0.0,0.0,0.0,0.0,0.0,0.0,0.0,0.0,0.0,0.0,0.0,0.0,0.0,0.0,0.0,0.0,0.0,-4.4297,-4.5171,-4.5594,-4.5594,-4.5594,-4.5594,-4.5575,-4.4759,-4.3869,0.0,0.0,0.0,0.0,0.0,0.0,0.0,0.0,0.0,0.0,0.0,0.0,0.0,0.0,0.0,0.0,0.0,0.0,0.0,0.0,0.0,0.0,0.0,0.0,0.0,0.0,0.0,0.0,0.0,0.0,0.0,0.0,0.0,0.0,0.0,0.0,0.0,0.0,0.0,0.0,0.0,-4.7538,-4.8323,-4.8547,0.0,0.0,0.0,0.0,-4.8577,-4.8383,0.0,0.0,0.0,0.0,0.0,0.0,0.0,0.0,0.0,0.0,0.0,0.0,0.0,0.0,0.0,0.0,0.0,0.0,0.0,0.0,0.0,0.0,0.0,0.0,0.0,0.0,0.0,0.0,0.0,0.0,0.0,0.0,0.0,0.0,0.0,0.0,0.0,0.0,0.0,0.0,0.0,0.0,0.0,0.0,0.0,0.0,0.0,0.0,0.0,0.0,0.0,0.0,0.0,0.0,0.0,0.0,-4.4297,-4.5152,-4.5594,-4.5594,-4.5594,-4.5594,-4.5575,-4.4739,-4.3878,0.0,0.0,0.0,0.0,0.0,0.0,0.0,0.0,0.0,0.0,0.0,0.0,0.0,0.0,0.0,0.0,0.0,0.0,0.0,0.0,0.0,0.0,0.0,0.0,0.0,0.0,0.0,0.0,0.0,0.0,0.0,0.0,0.0,0.0,0.0,0.0,0.0,0.0,0.0,0.0,0.0,-4.8361,-4.9144,-4.9923,-5.0394,0.0,0.0,-5.0346,-5.0244,-4.959,0.0,0.0,0.0,0.0,0.0,0.0,0.0,0.0,0.0,0.0,0.0,0.0,0.0,0.0,0.0,0.0,0.0,0.0,0.0,0.0,0.0,0.0,0.0,0.0,0.0,0.0,0.0,0.0,0.0,0.0,0.0,0.0,0.0,0.0,0.0,0.0,0.0,0.0,0.0,0.0,0.0,0.0,0.0,0.0,0.0,0.0,0.0,0.0,0.0,0.0,0.0,0.0,0.0,0.0,0.0,-4.2527,-4.2912,-4.4182,-4.4863,-4.4855,-4.4883,-4.4855,-4.4863,-4.3566,-4.2676,0.0,0.0,0.0,0.0,0.0,0.0,0.0,0.0,0.0,0.0,0.0,0.0,0.0,0.0,0.0,0.0,0.0,0.0,0.0,0.0,0.0,0.0,0.0,0.0,0.0,0.0,0.0,0.0,0.0,0.0,0.0,0.0,0.0,0.0,0.0,0.0,0.0,0.0,0.0,0.0,0.0,0.0,-4.9942,-5.0462,0.0,0.0,0.0,-5.0663,-5.0572,0.0,0.0,0.0,0.0,0.0,0.0,0.0,0.0,0.0,0.0,0.0,0.0,0.0,0.0,0.0,0.0,0.0,0.0,0.0,0.0,0.0,0.0,0.0,0.0,0.0,0.0,0.0,0.0,0.0,0.0,0.0,0.0,0.0,0.0,0.0,0.0,0.0,0.0,0.0,0.0,0.0,0.0,0.0,0.0,0.0,0.0,0.0,0.0,0.0,0.0,0.0,0.0,0.0,0.0,0.0,0.0,0.0,-4.1835,-4.3239,-4.3989,-4.4008,-4.4008,-4.4008,-4.397,-4.2585,0.0,0.0,0.0,0.0,0.0,0.0,0.0,0.0,0.0,0.0,0.0,0.0,0.0,0.0,0.0,0.0,0.0,0.0,0.0,0.0,0.0,0.0,0.0,0.0,0.0,0.0,0.0,-3.4282,0.0,0.0,0.0,0.0,0.0,0.0,0.0,0.0,0.0,0.0,0.0,0.0,0.0,0.0,-4.8777,-5.0462,-5.0683,-5.0683,0.0,0.0,-5.0643,-5.0593,-4.9782,-4.8843,0.0,0.0,0.0,0.0,0.0,0.0,0.0,0.0,0.0,0.0,0.0,0.0,0.0,0.0,0.0,0.0,0.0,0.0,0.0,0.0,0.0,0.0,0.0,0.0,0.0,0.0,0.0,0.0,0.0,0.0,0.0,0.0,0.0,0.0,0.0,0.0,0.0,0.0,0.0,0.0,0.0,0.0,0.0,0.0,0.0,0.0,0.0,0.0,0.0,0.0,0.0,0.0,0.0,0.0,0.0,-4.1827,-4.272,-4.3181,-4.3181,-4.3181,-4.3181,-4.3162,-4.2297,-4.1753,0.0,0.0,0.0,0.0,0.0,0.0,0.0,0.0,0.0,0.0,0.0,0.0,0.0,0.0,0.0,0.0,0.0,0.0,0.0,0.0,0.0,0.0,0.0,0.0,0.0,0.0,0.0,0.0,0.0,0.0,0.0,0.0,0.0,0.0,0.0,0.0,0.0,0.0,0.0,0.0,0.0,-4.874,-5.0462,-5.0683,-5.0683,0.0,0.0,-5.0593,-5.0521,-4.9734,-4.877,-4.7776,0.0,0.0,0.0,0.0,0.0,0.0,0.0,0.0,0.0,0.0,0.0,0.0,0.0,0.0,0.0,0.0,0.0,0.0,0.0,0.0,0.0,0.0,0.0,0.0,0.0,0.0,0.0,0.0,0.0,0.0,0.0,0.0,0.0,0.0,0.0,0.0,0.0,0.0,0.0,0.0,0.0,0.0,0.0,0.0,0.0,0.0,0.0,0.0,0.0,0.0,0.0,0.0,0.0,-4.0508,-4.1008,-4.1873,-4.2316,-4.2288,-4.2297,-4.2297,-4.2308,-4.1431,-4.075,0.0,0.0,0.0,0.0,0.0,0.0,0.0,0.0,0.0,0.0,0.0,0.0,0.0,0.0,0.0,0.0,0.0,0.0,0.0,0.0,0.0,0.0,0.0,0.0,0.0,0.0,0.0,0.0,-3.55,-3.5712,-3.6192,0.0,0.0,0.0,0.0,0.0,0.0,0.0,0.0,0.0,0.0,-4.9336,-5.0529,-5.0683,0.0,0.0,-5.0643,-5.0563,-5.0511,-4.9245,-4.8117,-4.7622,-4.6266,0.0,0.0,0.0,0.0,0.0,0.0,0.0,0.0,0.0,0.0,0.0,0.0,0.0,0.0,0.0,0.0,0.0,0.0,0.0,0.0,0.0,0.0,0.0,0.0,0.0,0.0,0.0,0.0,0.0,0.0,0.0,0.0,0.0,0.0,0.0,0.0,0.0,0.0,0.0,0.0,0.0,0.0,0.0,0.0,0.0,0.0,0.0,0.0,0.0,0.0,0.0,0.0,-3.9592,-4.015,-4.0989,-4.1412,-4.1393,-4.1412,-4.1412,-4.1373,-4.0585,-3.9881,0.0,0.0,0.0,0.0,0.0,0.0,0.0,0.0,0.0,0.0,0.0,0.0,0.0,0.0,0.0,0.0,0.0,0.0,0.0,0.0,0.0,0.0,0.0,0.0,0.0,0.0,0.0,0.0,-3.5712,-3.6192,-3.7007,0.0,0.0,0.0,0.0,0.0,0.0,0.0,0.0,0.0,0.0,-4.9413,-5.0539,-5.0683,-5.0683,-5.0683,-5.0623,-5.0542,-5.0478,-4.8903,-4.7636,-4.7466,0.0,0.0,0.0,0.0,0.0,0.0,0.0,0.0,0.0,0.0,0.0,0.0,0.0,0.0,0.0,0.0,0.0,0.0,0.0,0.0,0.0,0.0,0.0,0.0,0.0,0.0,0.0,0.0,0.0,0.0,-3.5799,0.0,0.0,0.0,0.0,0.0,0.0,0.0,0.0,0.0,0.0,0.0,0.0,0.0,0.0,0.0,0.0,0.0,0.0,0.0,0.0,0.0,0.0,-3.9284,-3.9323,-4.0131,-4.0535,-4.0554,-4.0535,-4.0554,-4.0535,-3.9746,-3.9323,-3.9246,0.0,0.0,0.0,0.0,0.0,0.0,0.0,0.0,0.0,0.0,0.0,0.0,0.0,0.0,0.0,0.0,0.0,0.0,0.0,0.0,0.0,0.0,0.0,0.0,0.0,0.0,-3.5519,-3.6192,-3.7,0.0,0.0,0.0,0.0,0.0,0.0,0.0,0.0,0.0,0.0,-4.8135,-4.8759,-5.0462,-5.0683,-5.0683,-5.0683,-5.0573,-5.0478,-5.0412,-4.8784,-4.7454,0.0,0.0,0.0,0.0,0.0,0.0,0.0,0.0,0.0,0.0,0.0,0.0,0.0,0.0,0.0,0.0,0.0,0.0,0.0,0.0,0.0,0.0,0.0,0.0,0.0,0.0,0.0,-3.7232,-3.698,0.0,0.0,0.0,0.0,0.0,0.0,0.0,0.0,0.0,0.0,0.0,-3.9951,-3.9915,0.0,0.0,0.0,0.0,0.0,0.0,0.0,0.0,0.0,0.0,0.0,0.0,-3.8142,-3.9265,-3.9573,-3.9958,-4.0477,-4.0496,-4.0496,-4.0496,-3.9727,-3.8738,-3.7603,0.0,0.0,0.0,0.0,0.0,0.0,0.0,0.0,0.0,0.0,0.0,0.0,0.0,0.0,0.0,0.0,0.0,0.0,0.0,0.0,0.0,0.0,0.0,0.0,0.0,-3.5712,0.0,0.0,0.0,0.0,0.0,0.0,0.0,0.0,0.0,0.0,0.0,-4.7471,-4.8029,-4.9106,-5.0029,-5.0635,-5.0683,-5.0692,0.0,0.0,0.0,0.0,0.0,0.0,0.0,0.0,0.0,0.0,0.0,0.0,0.0,0.0,-4.3479,-4.3479,-4.3479,-4.3479,-4.3479,0.0,0.0,0.0,0.0,0.0,0.0,0.0,0.0,0.0,0.0,0.0,0.0,0.0,0.0,-3.8088,0.0,-3.7251,0.0,0.0,0.0,0.0,0.0,0.0,0.0,0.0,-3.9809,-4.0197,-4.0707,-4.0688,-4.0359,0.0,-3.9809,-3.8948,0.0,0.0,0.0,0.0,0.0,0.0,0.0,0.0,-3.7257,-3.8354,-3.87,-3.9104,-3.9611,-3.9631,-3.9623,-3.9611,-3.8834,-3.7719,-3.6327,-3.5788,-3.55,0.0,0.0,0.0,0.0,0.0,0.0,0.0,0.0,0.0,0.0,0.0,0.0,0.0,0.0,0.0,0.0,0.0,0.0,0.0,0.0,0.0,0.0,0.0,-3.625,0.0,0.0,0.0,0.0,0.0,0.0,0.0,0.0,0.0,-4.4239,-4.599,-4.7336,-4.7644,-4.8663,-4.9471,-4.976,0.0,0.0,0.0,0.0,0.0,0.0,0.0,-4.7528,-4.7282,-4.6626,-4.5955,-4.5515,-4.4643,-4.397,-4.3919,0.0,0.0,-4.3479,-4.3479,-4.3479,-4.3479,-4.3479,-4.3479,-4.3479,-4.3479,-4.3497,0.0,0.0,0.0,0.0,0.0,0.0,0.0,0.0,-3.875,-3.8811,0.0,-3.7818,0.0,0.0,0.0,0.0,0.0,0.0,0.0,0.0,-4.0327,-4.0661,-4.0595,-4.0595,-4.0595,-4.0588,-4.0564,-3.9721,-3.8097,-3.7255,0.0,0.0,0.0,0.0,0.0,0.0,-3.6673,-3.6757,-3.7546,-3.7988,-3.8027,-3.8027,-3.8007,-3.7969,-3.7161,-3.6346,-3.5577,-3.55,-3.55,-3.55,-3.55,0.0,0.0,0.0,0.0,0.0,0.0,0.0,0.0,0.0,0.0,0.0,0.0,0.0,0.0,0.0,0.0,0.0,0.0,0.0,0.0,-3.625,0.0,0.0,0.0,0.0,0.0,0.0,0.0,0.0,0.0,0.0,-4.4374,-4.5143,-4.5951,-4.6817,0.0,0.0,0.0,0.0,-4.8116,-4.8126,-4.7997,-4.781,-4.7547,-4.6663,-4.5875,-4.563,0.0,0.0,-4.5951,-4.5276,-4.4617,-4.4618,-4.3993,-4.3479,-4.3479,-4.3479,-4.3479,-4.3479,-4.3479,-4.3479,-4.3479,-4.3479,-4.348,-4.0944,0.0,0.0,0.0,0.0,-4.0217,-4.0325,-4.0504,-4.0206,-3.9885,-3.9541,-3.9076,0.0,0.0,0.0,0.0,0.0,0.0,-3.9541,-4.034,-4.0526,-4.0621,-4.0588,-4.0579,-4.0583,-4.0583,-4.0565,-3.9665,-3.8087,-3.7791,-3.6925,-3.552,0.0,0.0,0.0,0.0,-3.6115,-3.6673,-3.6942,-3.7373,-3.7988,-3.8007,-3.7719,-3.7084,-3.6827,-3.6327,-3.5538,-3.55,-3.55,-3.55,-3.55,0.0,0.0,0.0,0.0,0.0,0.0,0.0,0.0,0.0,0.0,0.0,0.0,0.0,0.0,0.0,0.0,0.0,0.0,0.0,-3.6308,-3.7123,-3.7969,0.0,0.0,0.0,0.0,0.0,0.0,0.0,0.0,0.0,-4.5152,-4.599,-4.6605,0.0,0.0,-4.7836,-4.8067,-4.8097,-4.8058,-4.7978,0.0,0.0,0.0,-4.6873,-4.6476,-4.6251,-4.5506,-4.4956,-4.5056,-4.4396,-4.3846,-4.3846,-4.3663,-4.3479,-4.3479,-4.3479,-4.3479,-4.3479,-4.3479,-4.3479,-4.3479,-4.3463,-4.3429,-4.1108,-4.1099,-4.1101,-4.1072,-4.1036,-4.096,-4.0945,-4.0926,-4.0874,-4.0568,-4.0083,-3.9752,-3.9014,-3.801,-3.7675,0.0,0.0,0.0,-3.9876,-4.0661,-4.0621,-4.0593,-4.0564,-4.0561,-4.0565,-4.0527,-4.0196,-3.9342,-3.7988,-3.7642,-3.6808,-3.5538,0.0,0.0,-3.55,-3.55,-3.5731,-3.6192,-3.6231,-3.6462,-3.6988,-3.7007,-3.675,-3.625,-3.6231,-3.6,-3.5519,-3.55,-3.55,-3.55,-3.55,-3.55,0.0,0.0,0.0,0.0,0.0,0.0,0.0,0.0,0.0,0.0,0.0,-3.55,0.0,0.0,0.0,0.0,-3.6288,-3.6815,-3.7661,-3.8488,0.0,0.0,0.0,0.0,0.0,0.0,0.0,-4.4239,-4.4605,-4.4998,-4.5537,-4.603,-4.6347,-4.6367,-4.677,-4.7049,-4.7031,0.0,-4.6981,-4.688,-4.6698,-4.6467,-4.6216,-4.5993,-4.5757,-4.5479,-4.4838,-4.4318,-4.4231,-4.3791,-4.3497,-4.3479,-4.3479,-4.3479,-4.3479,-4.3479,-4.3479,-4.3479,-4.3479,-4.3479,-4.3479,-4.3446,-4.3303,-4.1111,-4.1111,-4.1099,-4.1099,-4.1096,-4.1031,-4.101,-4.1009,-4.0933,-4.0898,-4.0855,-4.0068,-3.9675,-3.9549,-3.8761,0.0,-3.9503,-3.9557,-3.9992,-4.0595,-4.0595,-4.0552,-4.0504,-4.0439,-4.04,-4.0381,-3.9592,-3.8738,-3.7873,-3.7077,-3.6288,-3.5519,-3.55,-3.55,-3.55,-3.55,-3.55,-3.55,-3.55,-3.55,-3.55,-3.55,-3.55,-3.55,-3.55,-3.55,-3.55,-3.55,-3.55,-3.55,-3.55,-3.55,-3.55,0.0,0.0,0.0,0.0,0.0,0.0,0.0,0.0,0.0,0.0,0.0,0.0,0.0,0.0,0.0,-3.7565,0.0,-3.9227,-4.0092,0.0,0.0,0.0,-4.3181,-4.3201,-4.3893,-4.4393,-4.4412,0.0,0.0,-4.5594,0.0,-4.5495,-4.5495,-4.5495,-4.5476,-4.54,-4.5457,-4.5378,-4.5382,-4.5152,-4.4902,-4.4802,-4.4571,-4.4375,-4.4015,-4.3684,-4.362,-4.3569,-4.3533,-4.3479,-4.3479,-4.3478,-4.3369,-4.3369,-4.3259,-4.3313,-4.3222,-4.3331,-4.3369,-4.3332,-4.319,-4.281,-4.1132,-4.1111,-4.1109,-4.1101,-4.1101,-4.1068,-4.1069,-4.1084,-4.1023,-4.0986,-4.0972,-4.0754,-4.0274,-3.9601,-3.9374,-3.9376,-3.9522,-4.0188,-4.0558,-4.0668,-4.0621,-4.0586,-4.0554,-3.9888,-3.9573,-3.9515,-3.8719,-3.7853,-3.7038,-3.6808,-3.6288,-3.5538,-3.55,-3.55,-3.55,-3.55,-3.55,-3.55,-3.55,-3.55,-3.55,-3.55,-3.55,-3.55,-3.55,-3.55,-3.55,-3.55,-3.55,-3.55,-3.55,-3.55,-3.55,-3.55,0.0,0.0,0.0,0.0,0.0,0.0,0.0,0.0,0.0,-3.55,-3.55,0.0,-3.65,0.0,-3.8104,-3.9073,-3.9304,-4.0623,0.0,0.0,-4.3124,-4.4028,-4.4028,-4.4759,-4.5306,-4.5287,-4.5479,-4.5594,-4.5594,-4.5531,-4.5485,-4.5429,-4.5429,-4.5419,-4.5409,-4.5359,-4.5275,-4.5103,-4.4943,-4.4745,-4.4496,-4.4207,-4.3976,-4.3837,-4.3684,-4.3582,-4.3496,-4.3479,-4.3479,-4.3442,-4.2965,-4.2635,-4.258,-4.2103,-4.1735,-4.1717,-4.2158,-4.258,-4.258,-4.1967,-4.1354,-4.1172,-4.1132,-4.1112,-4.1108,-4.1101,-4.1108,-4.1115,-4.11,-4.1061,-4.1048,-4.1039,-4.1013,-4.0727,-4.0239,-4.0194,-4.016,-4.0158,-4.0585,-4.0557,-4.0166,-4.0108,-3.9862,-3.9492,-3.8975,-3.8703,-3.8683,-3.7822,-3.7173,-3.6712,-3.6346,-3.5923,-3.55,-3.55,-3.55,-3.55,-3.55,-3.55,-3.55,-3.55,-3.55,-3.55,-3.55,-3.55,-3.55,-3.55,-3.55,-3.55,-3.55,-3.55,-3.55,-3.55,-3.55,-3.55,-3.55,-3.55,0.0,0.0,0.0,0.0,0.0,0.0,0.0,0.0,0.0,0.0,0.0,-3.7442,0.0,-3.9073,0.0,-3.9842,-4.1354,-4.2393,-4.2393,-4.3874,-4.4863,-4.4883,-4.5306,-4.5594,-4.5594,-4.5594,-4.5594,-4.5594,-4.5532,-4.5438,-4.541,-4.5361,-4.531,-4.5288,-4.5203,-4.5072,-4.4967,-4.4783,-4.4592,-4.4344,-4.4058,-4.374,-4.3324,-4.3152,-4.2906,-4.2506,-4.2433,-4.2433,-4.2396,-4.2047,-4.1772,-4.1754,-4.1442,-4.1113,-4.1113,-4.1148,-4.135,-4.1664,-4.1237,-4.0736,-4.1191,-4.1191,-4.1132,-4.1112,-4.1111,-4.1101,-4.1114,-4.1111,-4.1109,-4.1115,-4.1111,-4.1048,-4.1016,-4.098,-4.0939,-4.0858,-4.0728,-4.0676,-4.0175,-3.9327,-3.9277,-3.8852,-3.8119,-3.7924,-3.7852,-3.7814,-3.6978,-3.6553,-3.6526,-3.5834,-3.5488,-3.55,-3.55,-3.55,-3.55,-3.55,-3.55,-3.55,-3.55,-3.55,-3.55,-3.55,-3.55,-3.55,-3.55,-3.55,-3.55,-3.55,-3.55,-3.55,-3.55,-3.55,-3.55,-3.55,-3.55,0.0,-3.55,0.0,0.0,0.0,0.0,0.0,0.0,0.0,0.0,-3.7603,-3.8527,-3.9381,-4.0092,-4.0496,-4.0496,-4.197,-4.2989,-4.3143,-4.4498,-4.546,-4.5575,-4.5594,-4.5594,-4.5594,-4.5594,-4.5594,-4.5594,-4.5466,-4.541,-4.539,-4.529,-4.5156,-4.5017,-4.495,-4.4907,-4.487,-4.4552,-4.4135,-4.3949,-4.3667,-4.3176,-4.2548,-4.229,-4.1901,-4.1313,-4.1187,-4.115,-4.115,-4.1058,-4.0946,-4.0948,-4.0838,-4.0747,-4.0655,-4.0212,-4.0065,-4.0691,-4.0613,-4.0261,-4.1191,-4.1191,-4.1191,-4.1172,-4.1172,-4.1111,-4.1108,-4.1104,-4.1111,-4.1113,-4.1113,-4.1078,-4.1042,-4.1,-4.0979,-4.0556,-3.9854,-3.982,-3.933,-3.844,-3.8431,-3.8323,-3.8138,-3.7405,-3.7038,-3.698,-3.619,-3.5772,-3.5708,-3.5573,-3.5495,-3.5481,-3.55,-3.55,-3.55,0.0,0.0,0.0,-3.55,-3.55,-3.55,-3.55,-3.55,-3.55,-3.55,0.0,-3.55,-3.55,-3.55,-3.55,-3.55,0.0,0.0,0.0,0.0,0.0,0.0,0.0,0.0,0.0,0.0,0.0,-3.7276,-3.7469,-3.6808,-3.8142,-3.94,-4.0189,-4.0419,-4.0496,-4.0516,-4.1412,-4.2335,-4.3066,-4.397,-4.4797,-4.5498,-4.5575,-4.5594,-4.5594,-4.5594,-4.5594,-4.5509,-4.5485,-4.5391,-4.5304,-4.529,-4.4925,-4.4222,-4.4554,-4.4839,-4.4713,-4.3871,-4.3268,-4.317,-4.2424,-4.1899,-4.1554,-4.1427,-4.1258,-4.1075,-4.1022,-4.1077,-4.1022,-4.0579,-4.012,-4.012,-3.9625,-3.9258,-3.9166,-3.9056,-3.9166,-3.9937,-3.9491,-3.8864,-4.1191,0.0,-4.1191,-4.1191,0.0,-4.1172,-4.1151,-4.1131,-4.1104,-4.1111,-4.1111,-4.11,-4.1069,-4.1014,-4.0601,-4.0165,-3.9688,-3.9216,-3.8515,-3.7676,-3.7635,-3.737,-3.6942,-3.6462,-3.6201,-3.6189,-3.5816,-3.5591,-3.5554,-3.5554,-3.5534,-3.5495,-3.5495,-3.5482,-3.55,-3.55,-3.55,-3.55,-3.55,-3.55,-3.55,-3.55,-3.55,-3.55,0.0,0.0,0.0,0.0,0.0,0.0,0.0,0.0,0.0,0.0,0.0,-3.55,-3.55,-3.55,-3.55,-3.55,-3.5846,-3.6654,-3.7892,-3.8623,-3.8565,-3.9392,-4.0054,-4.0458,-4.0496,-4.0496,-4.0535,-4.1296,-4.1981,-4.2431,-4.3201,-4.3893,-4.4278,-4.4363,-4.4374,-4.4355,-4.4382,-4.4355,-4.4355,-4.4237,-4.4163,-4.4154,-4.4056,-4.3827,-4.3479,-4.387,-4.4114,-4.3465,-4.2888,-4.2389,-4.2284,-4.1861,-4.1191,-4.0849,-4.063,-4.0388,-3.9992,-3.9903,-3.9937,-3.99,-3.957,-3.9313,-3.9276,-3.8964,-3.8707,-3.8707,-3.8707,-3.8799,-3.9221,-3.8865,-3.8476,-4.1191,-4.1191,-4.1191,-4.1191,-4.1191,-4.1191,-4.1191,-4.1191,0.0,0.0,0.0,-4.1103,-4.1014,-4.0825,-4.012,-3.9616,-3.9315,-3.8552,-3.7715,-3.6871,-3.6803,-3.6421,-3.5742,-3.5653,-3.5607,-3.561,-3.562,-3.5616,-3.5616,-3.561,-3.5572,-3.5522,-3.5522,-3.5515,-3.5494,-3.5481,-3.55,-3.55,-3.55,-3.55,-3.55,-3.55,-3.55,-3.55,-3.55,-3.55,-3.55,-3.55,-3.55,-3.55,-3.55,-3.55,-3.55,-3.55,-3.55,-3.55,-3.55,-3.55,-3.55,-3.55,-3.5904,-3.6865,-3.8527,-3.9785,-4.0458,-4.0496,-4.0496,-4.0496,-4.0496,-4.0496,-4.0516,-4.1123,-4.1643,-4.1769,-4.245,-4.2931,-4.3085,-4.3085,-4.3181,-4.3085,-4.3181,-4.3104,-4.3162,-4.3094,-4.2907,-4.2899,-4.2948,-4.2628,-4.2578,-4.3038,-4.3151,-4.2352,-4.1906,-4.1595,-4.1464,-4.1163,-4.0785,-4.0026,-3.9847,-3.9516,-3.8921,-3.8689,-3.8707,-3.8836,-3.8707,-3.8726,-3.8726,-3.8579,-3.8487,-3.8487,-3.8358,-3.8285,-3.8285,-3.8169,-3.8071,-4.1191,-4.1191,-4.1191,-4.1191,-4.1191,-4.1191,-4.1191,-4.1191,-4.1132,-4.1109,-4.1105,-4.1099,-4.0683,-3.9971,-3.9841,-3.8963,-3.7584,-3.7436,-3.6868,0.0,-3.5974,-3.5909,-3.577,-3.5728,-3.5674,-3.5689,-3.5683,-3.5657,-3.5615,-3.5612,-3.5583,-3.5591,-3.5572,-3.5573,-3.5502,-3.5501,-3.55,-3.55,-3.55,-3.55,-3.55,-3.55,-3.55,-3.55,-3.55,-3.55,-3.55,-3.55,-3.55,-3.55,-3.55,-3.55,-3.55,-3.55,-3.55,-3.55,-3.55,-3.55,-3.55,-3.55,-3.6173,-3.7719,-3.9381,-4.04,-4.0477,-4.0496,-4.0496,-4.0496,-4.0496,-4.0496,-4.0516,-4.065,-4.1008,-4.1662,-4.1904,-4.2277,-4.2912,-4.2989,-4.297,-4.2951,-4.3085,-4.3028,-4.2931,-4.29,-4.2799,-4.284,-4.2584,-4.245,-4.1874,-4.2164,-4.2382,-4.2007,-4.1372,-4.0905,-4.0644,-3.9961,-3.956,-3.9215,-3.9117,-3.8991,-3.8722,-3.8624,-3.8579,-3.8634,-3.8524,-3.856,-3.8579,-3.812,-3.7768,-3.7639,-3.7239,-3.6798,-3.6817,-3.6747,-3.6828,-4.1191,-4.1191,-4.1191,-4.1191,-4.1191,-4.1191,-4.1191,-4.1152,-4.0664,-4.0702,-4.1051,-4.0656,-4.0222,-3.9786,-3.886,-3.8007,-3.7227,-3.6726,-3.6276,-3.5879,-3.5859,-3.583,-3.5799,-3.5771,-3.5735,-3.5747,-3.5757,-3.5718,-3.5674,-3.5639,-3.5632,-3.5606,-3.5616,-3.5585,-3.5554,-3.5515,-3.5495,-3.5495,-3.5494,-3.55,-3.55,-3.55,-3.55,-3.55,-3.55,-3.55,-3.55,-3.55,-3.55,-3.55,-3.55,-3.55,-3.55,-3.55,-3.55,-3.55,-3.55,-3.55,-3.55,-3.5904,-3.6692,-3.7911,-3.9123,-4.0035,-4.0477,-4.0496,-4.0496,-4.0496,-4.0496,-4.0496,-4.0496,-4.0496,-4.0669,-4.1046,-4.1085,-4.1258,-4.1612,-4.1689,-4.1681,-4.1689,-4.1689,-4.1681,-4.1708,-4.166,-4.1626,-4.1581,-4.1529,-4.1255,-4.0836,-4.1004,-4.1152,-4.0861,-4.0415,-4.0096,-3.9943,-3.953,-3.9161,-3.9078,-3.8964,-3.8693,-3.8306,-3.8121,-3.7908,-3.7511,-3.7404,-3.7386,-3.7422,-3.7144,-3.6905,-3.6831,-3.6615,-3.6321,-3.6266,-3.5954,-3.5842,-4.1191,-4.1191,-4.1191,-4.1191,-4.1191,-4.0996,-4.0898,-4.082,-3.998,-3.9961,-4.0389,-3.9879,-3.9485,-3.917,-3.7895,-3.7204,-3.692,-3.6261,-3.5914,-3.5919,-3.5906,-3.5882,-3.5833,-3.581,-3.5811,-3.5814,-3.5806,-3.5769,-3.5732,-3.5722,-3.5694,-3.5623,-3.5612,-3.5616,-3.5577,-3.556,-3.5522,-3.5515,-3.5521,-3.5494,-3.55,-3.55,-3.55,-3.55,-3.55,-3.55,-3.55,-3.55,-3.55,-3.55,-3.55,-3.55,-3.55,-3.55,-3.55,-3.55,-3.55,-3.55,-3.5538,-3.625,-3.7077,-3.793,-3.8796,-3.965,-4.0381,-4.0496,-4.0496,-4.0496,-4.0496,-4.0496,-4.0496,-4.0496,-4.0496,-4.0496,-4.0496,-4.0554,-4.0516,-4.0496,-4.0496,-4.0496,-4.0496,-4.0554,-4.0489,-4.0503,-4.0575,-4.0589,-4.0396,-4.0307,-4.0233,-4.0206,-4.0118,-3.9975,-3.9758,-3.9613,-3.9508,-3.9189,-3.8952,-3.8877,-3.8577,-3.8109,-3.7552,-3.7366,-3.7139,-3.6585,-3.6391,-3.6431,-3.634,-3.6119,-3.6046,-3.5991,-3.5752,-3.5624,-3.555,-3.5133,-3.4981,-4.1191,-4.1191,-4.1191,-4.1191,-4.1074,-4.0371,-4.0059,-3.9902,-3.9082,-3.873,-3.8848,-3.8768,-3.8279,-3.7576,-3.7377,-3.6862,-3.6187,-3.603,-3.598,-3.5981,-3.5931,-3.5885,-3.5897,-3.5875,-3.5882,-3.5872,-3.5826,-3.5807,-3.5776,-3.5778,-3.5766,-3.5679,-3.5629,-3.5582,-3.5577,-3.5544,-3.5553,-3.5572,-3.5522,-3.5483,-3.5488,-3.55,-3.55,-3.55,-3.55,-3.55,-3.55,-3.55,-3.55,-3.55,-3.55,-3.55,-3.55,-3.55,-3.55,-3.55,-3.55,-3.55,-3.5538,-3.6231,-3.7038,-3.793,-3.8757,-3.9585,-4.0362,-4.0496,-4.0496,-4.0496,-4.0496,-4.0496,-4.0496,-4.0496,-4.0496,-4.0496,-4.0496,-4.0496,-4.0496,-4.0496,-4.0496,-4.0496,-4.0496,-4.0496,-4.0496,-4.0508,-4.0473,-4.0383,-4.0287,-4.014,-4.002,-3.9966,-3.9957,-3.9985,-3.9948,-3.9694,-3.9437,-3.8832,-3.8365,-3.81,-3.7456,-3.7023,-3.6776,-3.6574,-3.6403,-3.6002,-3.6125,-3.6042,-3.5936,-3.5734,-3.5133,-3.5059,-3.4706,-3.4137,-3.4064,-3.4064,-3.4293,-4.1191,-4.1191,-4.1191,-4.0898,-4.041,-4.0039,-3.9609,-3.9062,-3.8203,-3.7812,-3.7754,-3.7285,-3.7128,-3.7245,-3.6775,-3.6323,-3.6004,-3.6004,-3.6018,-3.6002,-3.5978,-3.5951,-3.596,-3.597,-3.5941,-3.5892,-3.5872,-3.5856,-3.5859,-3.5827,-3.5795,-3.5691,-3.5233,-3.4957,-3.4913,-3.4397,-3.4113,-3.4152,-3.4569,-3.4789,-3.4847,-3.5251,-3.55,-3.55,-3.55,-3.55,-3.55,-3.55,-3.55,-3.55,-3.55,-3.55,-3.55,-3.55,-3.55,-3.55,-3.55,-3.55,-3.55,-3.5808,-3.6346,-3.7173,-3.8027,-3.8892,-3.9727,-4.0227,-4.0496,-4.0496,-4.0496,-4.0496,-4.0496,-4.0496,-4.0496,-4.0496,-4.0496,-4.0496,-4.0496,-4.0496,-4.0496,-4.0496,-4.0496,-4.0496,-4.0496,-4.0496,-4.0296,-3.9946,-3.9733,-3.9531,-3.9035,-3.8823,-3.8762,-3.8727,-3.8642,-3.876,-3.8836,-3.8195,-3.7676,-3.743,-3.71,-3.6688,-3.6035,-3.5864,-3.5642,-3.51,-3.5027,-3.4986,-3.4743,-3.4633,-3.427,-3.4234,-3.4197,-3.3807,-3.3807,-3.3807,-3.3977,-4.1191,-4.1152,-4.0957,-4.0332,-3.9551,-3.9277,-3.8848,-3.8164,-3.7324,-3.6934,-3.6875,-3.6269,-3.6347,-3.6796,-3.6269,-3.6014,-3.6012,-3.6012,-3.6009,-3.6019,-3.6018,-3.6012,-3.6019,-3.6015,-3.5968,-3.5919,-3.5926,-3.5914,-3.5858,-3.558,-3.5475,-3.5337,-3.4587,-3.4154,-3.407,-3.3447,-3.3122,-3.317,-3.3702,-3.3963,-3.4042,-3.4514,-3.5027,-3.5443,-3.5488,-3.55,-3.55,-3.55,-3.55,-3.55,-3.55,-3.55,-3.55,-3.55,-3.55,-3.55,-3.55,-3.55,-3.55,-3.55,-3.5846,-3.6642,-3.7315,-3.8007,-3.8873,-3.9708,-4.0131,-4.0169,-4.0362,-4.0496,-4.0496,-4.0496,-4.0496,-4.0496,-4.0496,-4.0496,-4.0496,-4.0496,-4.0496,-4.0496,-4.0496,-4.04,-4.0189,-3.9912,-3.9488,-3.9038,-3.8881,-3.8696,-3.8066,-3.7904,-3.7874,-3.771,-3.759,-3.7642,-3.8122,-3.7521,-3.6964,-3.6663,-3.6414,-3.5844,-3.5299,-3.5138,-3.5001,-3.4528,-3.4094,-3.3955,-3.4173,-3.3981,-3.3844,-3.3825,-3.3807,-3.3807,-3.3807,-3.3807,-3.3807,-4.1191,-4.1074,-4.0312,-3.9453,-3.8594,-3.7832,-3.7422,-3.7305,-3.6465,-3.6094,-3.6133,-3.6035,-3.6035,-3.6113,-3.6035,-3.6015,-3.6014,-3.6014,-3.6013,-3.601,-3.601,-3.6008,-3.6003,-3.6014,-3.6007,-3.5999,-3.5988,-3.5938,-3.579,-3.5056,-3.4653,-3.4594,-3.3731,-3.3254,-3.3247,-3.3109,-3.3112,-3.2958,-3.3078,-3.3149,-3.3175,-3.3166,-3.3947,-3.522,-3.5469,-3.5449,-3.5481,-3.5481,-3.5481,-3.55,-3.55,-3.55,-3.55,-3.55,-3.55,-3.55,-3.55,-3.55,-3.55,-3.55,-3.5827,-3.6526,-3.6769,-3.7135,-3.8007,-3.8834,-3.9323,-3.9342,-3.9996,-4.04,-4.0419,-4.0458,-4.0496,-4.0496,-4.0496,-4.0496,-4.0496,-4.0419,-4.0496,-4.0439,-4.0323,-3.9996,-3.9411,-3.8623,-3.8296,-3.8104,-3.8065,-3.7935,-3.7717,-3.774,-3.7662,-3.7464,-3.7099,-3.6783,-3.7241,-3.6733,-3.6178,-3.5921,-3.5495,-3.4806,-3.4512,-3.4282,-3.421,-3.4136,-3.3998,-3.3934,-3.3895,-3.3855,-3.3834,-3.382,-3.3807,-3.3807,-3.3807,-3.3788,-3.3678,-4.0879,-4.0273,-3.9434,-3.8574,-3.7773,-3.7422,-3.6992,-3.6465,-3.6152,-3.6016,-3.6016,-3.6016,-3.6016,-3.6016,-3.6016,-3.6016,-3.6016,-3.6015,-3.6015,-3.6013,-3.6013,-3.6012,-3.6009,-3.6006,-3.6005,-3.6021,-3.601,-3.5683,-3.5084,-3.4257,-3.3816,-3.364,-3.2925,-3.248,-3.2357,-3.1871,-3.1577,-3.1643,-3.2055,-3.2333,-3.2368,-3.2801,-3.3388,-3.3944,-3.4481,-3.4976,-3.5483,-3.5483,-3.5489,-3.5481,-3.5481,-3.55,-3.55,-3.55,-3.55,-3.55,-3.55,-3.55,-3.55,-3.55,-3.5615,-3.5904,-3.6423,-3.6769,-3.7219,-3.795,-3.8469,-3.8604,-3.9238,-3.9708,-3.9842,-4.0189,-4.0496,-4.0496,-4.0496,-4.0477,-4.04,-4.0073,-3.9727,-3.965,-3.9304,-3.8757,-3.8546,-3.818,-3.7796,-3.7296,-3.7173,-3.6954,-3.6498,-3.6342,-3.6389,-3.6263,-3.5978,-3.5791,-3.5888,-3.5676,-3.5305,-3.5188,-3.4898,-3.4736,-3.4503,-3.4358,-3.4276,-3.4204,-3.4086,-3.3924,-3.388,-3.3742,-3.3708,-3.3563,-3.36,-3.3471,-3.3807,-3.3311,-3.3091,-3.9843,-3.9043,-3.8418,-3.7675,-3.6914,-3.6875,-3.6562,-3.6035,-3.6016,-3.6016,-3.6016,-3.6016,-3.6016,-3.6016,-3.6016,-3.6016,-3.6016,-3.6016,-3.6015,-3.6015,-3.6015,-3.6014,-3.6012,-3.6012,-3.6011,-3.5951,-3.5691,-3.5135,-3.4264,-3.3402,-3.2962,-3.2866,-3.2082,-3.1658,-3.1515,-3.1002,-3.0714,-3.0814,-3.1231,-3.1514,-3.1586,-3.2,-3.2445,-3.2739,-3.323,-3.3905,-3.4654,-3.4687,-3.4854,-3.5053,-3.5097,-3.5206,-3.5462,-3.55,-3.55,-3.55,-3.55,-3.55,-3.55,-3.55,-3.55,-3.55,-3.5981,-3.6308,-3.6385,-3.7103,-3.7526,-3.7757,-3.8354,-3.888,-3.8977,-3.9361,-3.99,-4.0304,-4.0265,-4.0131,-4.0073,-3.9381,-3.895,-3.8765,-3.8123,-3.768,-3.7546,-3.7334,-3.6911,-3.6365,-3.6308,-3.6058,-3.5628,-3.546,-3.542,-3.5405,-3.5457,-3.5404,-3.5466,-3.5346,-3.5135,-3.4993,-3.4934,-3.4747,-3.4612,-3.4473,-3.437,-3.4288,-3.4129,-3.3963,-3.3796,-3.3609,-3.3416,-3.3185,-3.286,-3.2616,-3.2658,-3.2522,-3.232,-3.814,-3.7477,-3.7303,-3.6834,-3.6171,-3.6133,-3.6035,-3.6016,-3.6016,-3.6016,-3.6016,-3.6016,-3.6016,-3.6016,-3.6016,-3.6016,-3.6016,-3.6016,-3.6016,-3.6016,-3.6016,-3.6016,-3.6014,-3.6014,-3.5935,-3.5815,-3.5034,-3.4211,-3.3385,-3.2541,-3.2086,-3.1939,-3.1299,-3.0953,-3.084,-3.0808,-3.0751,-3.0743,-3.0801,-3.078,-3.0719,-3.0831,-3.1187,-3.1808,-3.196,-3.23,-3.2968,-3.3097,-3.3554,-3.4185,-3.4218,-3.461,-3.5264,-3.5398,-3.5468,-3.5488,-3.5488,-3.5488,-3.55,-3.55,-3.55,-3.55,-3.5538,-3.5635,-3.5769,-3.6288,-3.6692,-3.6827,-3.7469,-3.8007,-3.8007,-3.8161,-3.8777,-4.0035,-3.9669,-3.9304,-3.913,-3.8507,-3.7969,-3.7796,-3.7161,-3.6731,-3.6538,-3.6231,-3.5808,-3.5712,-3.5654,-3.5635,-3.5538,-3.5493,-3.546,-3.542,-3.5398,-3.5361,-3.5308,-3.5226,-3.5089,-3.4973,-3.4908,-3.4812,-3.471,-3.4583,-3.4506,-3.4409,-3.3953,-3.3739,-3.2975,-3.2804,-3.2515,-3.2268,-3.1961,-3.1863,-3.1875,-3.1831,-3.1525,-3.7534,-3.7221,-3.6656,-3.6266,-3.6012,-3.6013,-3.6014,-3.6015,-3.6015,-3.6015,-3.6016,-3.6016,-3.6016,-3.6016,-3.6016,-3.6016,-3.6016,-3.6016,-3.6016,-3.6016,-3.6016,-3.6016,-3.6016,-3.5996,-3.5683,-3.4939,-3.3591,-3.2809,-3.2415,-3.1692,-3.1258,-3.1131,-3.0948,-3.0803,-3.0788,-3.0795,-3.0782,-3.0764,-3.077,-3.0752,-3.0701,-3.0671,-3.0835,-3.1041,-3.1068,-3.1183,-3.139,-3.2443,-3.3153,-3.3406,-3.3394,-3.3768,-3.4494,-3.4687,-3.4931,-3.5412,-3.5489,-3.5489,-3.5488,-3.5481,-3.5488,-3.55,-3.55,-3.55,-3.55,-3.5731,-3.5904,-3.5962,-3.6622,-3.7103,-3.7199,-3.768,-3.818,-3.8707,-3.8546,-3.8392,-3.8257,-3.7603,-3.6911,-3.6346,-3.6038,-3.5885,-3.5846,-3.5558,-3.5519,-3.55,-3.55,-3.55,-3.55,-3.55,-3.55,-3.546,-3.5446,-3.5405,-3.5361,-3.5308,-3.5209,-3.5081,-3.5001,-3.4936,-3.4821,-3.4521,-3.4505,-3.4161,-3.3758,-3.3178,-3.2435,-3.1994,-3.1755,-3.1634,-3.1525,-3.1452,-3.1421,-3.1152,-3.0784,-3.6821,-3.6745,-3.6219,-3.6006,-3.6009,-3.601,-3.6011,-3.6013,-3.6013,-3.6014,-3.6015,-3.6016,-3.6015,-3.6016,-3.6016,-3.6016,-3.6016,-3.6016,-3.6016,-3.6016,-3.6016,-3.6016,-3.5918,-3.5644,-3.4844,-3.3789,-3.2656,-3.1971,-3.1637,-3.1169,-3.0874,-3.0848,-3.0845,-3.082,-3.0788,-3.0799,-3.0788,-3.0795,-3.0784,-3.0786,-3.0745,-3.0736,-3.072,-3.0697,-3.0706,-3.0676,-3.0715,-3.1689,-3.2319,-3.2603,-3.2872,-3.3313,-3.3772,-3.3824,-3.4204,-3.4866,-3.5098,-3.5162,-3.5451,-3.5521,-3.5489,-3.5489,-3.5488,-3.55,-3.55,-3.55,-3.55,-3.5596,-3.5962,-3.625,-3.6346,-3.6692,-3.7038,-3.7084,-3.7353,-3.7353,-3.7103,-3.6596,-3.6135,-3.5692,-3.5538,-3.55,-3.55,-3.55,-3.55,-3.55,-3.55,-3.55,-3.55,-3.55,-3.55,-3.55,-3.5486,-3.5446,-3.5405,-3.5361,-3.5316,-3.5229,-3.5127,-3.5038,-3.4936,-3.4377,-3.409,-3.3402,-3.289,-3.2376,-3.1685,-3.1433,-3.121,-3.1135,-3.0886,-3.0545,-3.0289,-3.0167,-2.9897,-3.6009,-3.602,-3.6007,-3.6016,-3.6002,-3.6007,-3.6009,-3.601,-3.601,-3.6012,-3.6014,-3.6014,-3.6015,-3.6016,-3.6016,-3.6016,-3.6016,-3.6016,-3.6016,-3.6016,-3.5996,-3.5957,-3.5703,-3.498,-3.3867,-3.2578,-3.2148,-3.166,-3.1073,-3.0956,-3.0896,-3.0913,-3.0891,-3.0866,-3.0822,-3.0796,-3.0809,-3.0799,-3.0788,-3.0795,-3.0801,-3.0794,-3.0781,-3.0706,-3.071,-3.0701,-3.075,-3.0874,-3.1192,-3.1808,-3.2416,-3.2758,-3.2908,-3.2949,-3.3346,-3.415,-3.4222,-3.4582,-3.518,-3.529,-3.5316,-3.5297,-3.5418,-3.5488,-3.5494,-3.5494,-3.5494,-3.5481,-3.5577,-3.5577,-3.5596,-3.5673,-3.5712,-3.5654,-3.6269,-3.6327,-3.5673,-3.5577,-3.5558,-3.5519,-3.55,-3.55,-3.55,-3.55,-3.55,-3.55,-3.55,-3.55,-3.55,-3.55,-3.55,-3.55,-3.5493,-3.5486,-3.5446,-3.5398,-3.5335,-3.5239,-3.5018,-3.4706,-3.4554,-3.3998,-3.3299,-3.2627,-3.2095,-3.1546,-3.1055,-3.0769,-3.0426,-3.0132,-2.9792,-2.9357,-2.9325,-2.9444,-2.9466,-3.596,-3.6009,-3.6011,-3.6013,-3.6019,-3.6007,-3.6013,-3.6018,-3.6004,-3.6008,-3.6011,-3.6012,-3.6013,-3.6015,-3.6015,-3.6015,-3.6016,-3.6016,-3.6016,-3.6016,-3.6016,-3.5605,-3.498,-3.4141,-3.3203,-3.2207,-3.1582,-3.1133,-3.0918,-3.0918,-3.0918,-3.0916,-3.0915,-3.0894,-3.0871,-3.0867,-3.0843,-3.0796,-3.0789,-3.0801,-3.0792,-3.0788,-3.078,-3.0769,-3.0782,-3.0752,-3.0773,-3.0733,-3.0749,-3.0901,-3.1121,-3.1592,-3.212,-3.2193,-3.2542,-3.3246,-3.3429,-3.347,-3.3784,-3.4306,-3.4589,-3.4667,-3.5085,-3.5554,-3.5496,-3.5489,-3.5495,-3.5494,-3.55,-3.5488,-3.5481,-3.55,-3.55,-3.5519,-3.575,-3.5788,-3.5577,-3.55,-3.55,-3.55,-3.55,-3.55,-3.55,-3.55,-3.55,-3.55,-3.55,-3.55,-3.55,-3.55,-3.55,-3.55,-3.55,-3.5493,-3.5479,-3.542,-3.536,-3.523,-3.4806,-3.4125,-3.3811,-3.3282,-3.2472,-3.1683,-3.1422,-3.096,-3.0415,-2.9982,-2.9578,-2.9472,-2.9451,-2.9411,-2.933,-2.9344,-2.9339,-3.5911,-3.5943,-3.5963,-3.5948,-3.5958,-3.5945,-3.5955,-3.6002,-3.6009,-3.6017,-3.6003,-3.6004,-3.6009,-3.6013,-3.6013,-3.6014,-3.6015,-3.6015,-3.6016,-3.5937,-3.5605,-3.4961,-3.4121,-3.3281,-3.2461,-3.168,-3.1172,-3.0957,-3.0918,-3.0918,-3.0918,-3.0917,-3.0917,-3.0916,-3.0915,-3.0913,-3.087,-3.0848,-3.0825,-3.0821,-3.0789,-3.0789,-3.0801,-3.0792,-3.0788,-3.08,-3.0801,-3.0772,-3.0719,-3.0683,-3.0665,-3.089,-3.1324,-3.1398,-3.1769,-3.2527,-3.26,-3.2701,-3.3097,-3.3572,-3.3749,-3.384,-3.4317,-3.464,-3.4873,-3.5001,-3.5046,-3.5502,-3.5509,-3.5521,-3.5489,-3.5494,-3.5481,-3.55,-3.55,-3.55,-3.55,-3.55,-3.55,-3.55,-3.55,-3.55,-3.55,-3.55,-3.55,-3.55,-3.55,-3.55,-3.55,-3.5481,-3.5442,-3.5385,-3.525,-3.5154,-3.4904,-3.4768,-3.4402,-3.4349,-3.3937,-3.3324,-3.286,-3.2387,-3.1751,-3.1048,-3.0746,-3.044,-3.0037,-2.9729,-2.9655,-2.9598,-2.9589,-2.954,-2.9453,-2.9365,-2.9351,-3.5885,-3.5898,-3.5882,-3.5878,-3.5897,-3.5904,-3.5931,-3.5979,-3.5986,-3.5995,-3.5988,-3.6009,-3.6018,-3.6009,-3.6009,-3.601,-3.6011,-3.6013,-3.5877,-3.5566,-3.4961,-3.4101,-3.3281,-3.2676,-3.1875,-3.1133,-3.0937,-3.0918,-3.0918,-3.0918,-3.0918,-3.0918,-3.0917,-3.0917,-3.0916,-3.0915,-3.0914,-3.0914,-3.0893,-3.087,-3.0824,-3.0822,-3.0838,-3.081,-3.0785,-3.0798,-3.0788,-3.078,-3.0779,-3.071,-3.0701,-3.0762,-3.0757,-3.0754,-3.1049,-3.1596,-3.1801,-3.2087,-3.2714,-3.2808,-3.2982,-3.301,-3.307,-3.3302,-3.3996,-3.4189,-3.4395,-3.4943,-3.536,-3.5399,-3.5534,-3.5502,-3.5508,-3.5508,-3.5501,-3.5494,-3.5514,-3.5507,-3.55,-3.55,-3.55,-3.55,-3.55,-3.5481,-3.55,-3.55,-3.55,-3.55,-3.5365,-3.5199,-3.5161,-3.5115,-3.4942,-3.4731,-3.4391,-3.4045,-3.3525,-3.314,-3.2634,-3.2107,-3.1721,-3.1271,-3.0868,-3.0483,-3.04,-3.0267,-3.0036,-2.9842,-2.9763,-2.9718,-2.9682,-2.9645,-2.9607,-2.9531,-2.9482,-3.5838,-3.5819,-3.5818,-3.5829,-3.5836,-3.5866,-3.5906,-3.5919,-3.5909,-3.5938,-3.599,-3.6011,-3.6002,-3.6016,-3.5998,-3.6002,-3.6009,-3.5972,-3.568,-3.4881,-3.4081,-3.3242,-3.2578,-3.2207,-3.1699,-3.1094,-3.0918,-3.0918,-3.0918,-3.0918,-3.0918,-3.0918,-3.0918,-3.0918,-3.0918,-3.0917,-3.0916,-3.0916,-3.0915,-3.0914,-3.0892,-3.0891,-3.089,-3.0868,-3.0842,-3.0796,-3.0792,-3.0801,-3.079,-3.0778,-3.0755,-3.0776,-3.0764,-3.0733,-3.0831,-3.0969,-3.1013,-3.1099,-3.1313,-3.1851,-3.2143,-3.2201,-3.2629,-3.3209,-3.3285,-3.3357,-3.3412,-3.3707,-3.4177,-3.4806,-3.5257,-3.5521,-3.5393,-3.5329,-3.5374,-3.5432,-3.5541,-3.5502,-3.5494,-3.5488,-3.5488,-3.5481,-3.5462,-3.5404,-3.5423,-3.5462,-3.5423,-3.5442,-3.5161,-3.4776,-3.4641,-3.4487,-3.4199,-3.3872,-3.343,-3.3026,-3.2538,-3.2161,-3.1674,-3.1328,-3.0918,-3.0668,-3.0459,-3.0295,-3.0186,-3.0065,-2.9999,-2.9924,-2.9847,-2.9832,-2.9789,-2.9764,-2.9719,-2.9654,-2.9608,-3.5732,-3.5745,-3.5763,-3.5771,-3.5803,-3.5834,-3.5859,-3.5859,-3.5894,-3.5928,-3.5941,-3.5946,-3.594,-3.5955,-3.598,-3.6009,-3.6019,-3.5987,-3.5522,-3.4684,-3.3825,-3.2967,-3.2167,-3.1757,-3.1289,-3.0937,-3.0918,-3.0918,-3.0918,-3.0918,-3.0918,-3.0918,-3.0918,-3.0918,-3.0918,-3.0918,-3.0918,-3.0917,-3.0917,-3.0916,-3.0915,-3.0915,-3.0914,-3.0894,-3.0871,-3.0849,-3.0828,-3.0844,-3.086,-3.0837,-3.0803,-3.08,-3.0786,-3.0777,-3.0742,-3.0742,-3.0752,-3.074,-3.0895,-3.1072,-3.1332,-3.1371,-3.1798,-3.2161,-3.2425,-3.2551,-3.2764,-3.3068,-3.3522,-3.3981,-3.4359,-3.4363,-3.4401,-3.4376,-3.4395,-3.4389,-3.4524,-3.504,-3.5528,-3.5502,-3.5495,-3.5213,-3.509,-3.4937,-3.4545,-3.4257,-3.4083,-3.4103,-3.4026,-3.3699,-3.368,-3.3526,-3.3256,-3.2891,-3.241,-3.1968,-3.15,-3.1225,-3.1026,-3.0803,-3.0592,-3.042,-3.0286,-3.02,-3.0178,-3.0161,-3.0117,-3.0026,-2.998,-2.9956,-2.9916,-2.9866,-2.9815,-2.9763,-2.9709,-3.5684,-3.5684,-3.5694,-3.5708,-3.5766,-3.5773,-3.5803,-3.5807,-3.5864,-3.5882,-3.5879,-3.5878,-3.5892,-3.5904,-3.5955,-3.5986,-3.602,-3.5934,-3.5474,-3.4347,-3.3722,-3.2787,-3.193,-3.1287,-3.0995,-3.0918,-3.0918,-3.0918,-3.0918,-3.0918,-3.0918,-3.0918,-3.0918,-3.0918,-3.0918,-3.0918,-3.0918,-3.0918,-3.0918,-3.0918,-3.0917,-3.0917,-3.0916,-3.0916,-3.0895,-3.0894,-3.0894,-3.0893,-3.0913,-3.0894,-3.0848,-3.0816,-3.0799,-3.0784,-3.0798,-3.0796,-3.0791,-3.0784,-3.0731,-3.0772,-3.0798,-3.072,-3.0752,-3.106,-3.1554,-3.1755,-3.1995,-3.2452,-3.2826,-3.3079,-3.3083,-3.3304,-3.3233,-3.317,-3.3106,-3.3043,-3.3294,-3.438,-3.4857,-3.4963,-3.468,-3.4398,-3.4193,-3.4,-3.3506,-3.309,-3.2936,-3.284,-3.282,-3.2718,-3.2737,-3.2526,-3.2237,-3.1968,-3.1506,-3.1391,-3.0865,-3.075,-3.0538,-3.0481,-3.0398,-3.0355,-3.0299,-3.0273,-3.0234,-3.0219,-3.0197,-3.0135,-3.0079,-3.0083,-3.0038,-2.9956,-2.9907,-2.9857,-2.9815,-3.5608,-3.5614,-3.5621,-3.5623,-3.5639,-3.5699,-3.5732,-3.5797,-3.5818,-3.5819,-3.5818,-3.5862,-3.5898,-3.5894,-3.5908,-3.5929,-3.5984,-3.5937,-3.5145,-3.3944,-3.34,-3.2702,-3.136,-3.103,-3.0914,-3.0916,-3.0917,-3.0918,-3.0918,-3.0918,-3.0918,-3.0918,-3.0918,-3.0918,-3.0918,-3.0918,-3.0918,-3.0918,-3.0918,-3.0918,-3.0918,-3.0918,-3.0918,-3.0918,-3.0917,-3.0916,-3.0916,-3.0915,-3.0914,-3.0914,-3.0893,-3.0891,-3.0865,-3.0831,-3.0798,-3.079,-3.0802,-3.0795,-3.0769,-3.0772,-3.0781,-3.0773,-3.0739,-3.0701,-3.0902,-3.0953,-3.1211,-3.1344,-3.1867,-3.235,-3.3097,-3.289,-3.3083,-3.3098,-3.2977,-3.2958,-3.3055,-3.3301,-3.3543,-3.3454,-3.3412,-3.3465,-3.328,-3.312,-3.2805,-3.2511,-3.2376,-3.2345,-3.2358,-3.2115,-3.1897,-3.1583,-3.1192,-3.0923,-3.0615,-3.0654,-3.0519,-3.0558,-3.0462,-3.0462,-3.0404,-3.0404,-3.0361,-3.0311,-3.0286,-3.0279,-3.024,-3.0206,-3.0185,-3.0164,-3.0113,-3.0061,-3.0022,-2.9964,-2.9916,-3.5617,-3.5617,-3.5608,-3.562,-3.5612,-3.5643,-3.5674,-3.5713,-3.5747,-3.5745,-3.5763,-3.5822,-3.5846,-3.5845,-3.5843,-3.5869,-3.5933,-3.5934,-3.4948,-3.3688,-3.3305,-3.2492,-3.1018,-3.0846,-3.0849,-3.0871,-3.0876,-3.0898,-3.0918,-3.0918,-3.0918,-3.0918,-3.0918,-3.0918,-3.0918,-3.0918,-3.0918,-3.0918,-3.0918,-3.0918,-3.0918,-3.0918,-3.0918,-3.0918,-3.0918,-3.0918,-3.0917,-3.0917,-3.0917,-3.0917,-3.0916,-3.0916,-3.0894,-3.087,-3.082,-3.0792,-3.0806,-3.0799,-3.0792,-3.08,-3.0795,-3.0793,-3.0762,-3.0747,-3.0753,-3.0784,-3.0733,-3.0805,-3.09,-3.1429,-3.1798,-3.1965,-3.1903,-3.1922,-3.1961,-3.1972,-3.1926,-3.1945,-3.1964,-3.2082,-3.2685,-3.2789,-3.2391,-3.2218,-3.2064,-3.1909,-3.1794,-3.1802,-3.1836,-3.1561,-3.1234,-3.103,-3.0754,-3.0633,-3.0441,-3.0421,-3.0421,-3.0416,-3.039,-3.039,-3.0404,-3.0385,-3.0385,-3.0348,-3.0343,-3.0318,-3.0305,-3.0254,-3.0253,-3.0252,-3.0185,-3.0135,-3.0121,-3.0083,-3.0038,-3.5592,-3.5573,-3.5566,-3.5585,-3.5578,-3.5587,-3.561,-3.5621,-3.5649,-3.5689,-3.5694,-3.5742,-3.5769,-3.5786,-3.5807,-3.5838,-3.5879,-3.5864,-3.4898,-3.3641,-3.3319,-3.2467,-3.1209,-3.0788,-3.0795,-3.0819,-3.0849,-3.0875,-3.0916,-3.0917,-3.0918,-3.0918,-3.0918,-3.0918,-3.0918,-3.0918,-3.0918,-3.0918,-3.0918,-3.0918,-3.0918,-3.0918,-3.0918,-3.0918,-3.0918,-3.0918,-3.0918,-3.0918,-3.0918,-3.0918,-3.0918,-3.0917,-3.0917,-3.0916,-3.0874,-3.0827,-3.0824,-3.0819,-3.0812,-3.0803,-3.0801,-3.0801,-3.0792,-3.08,-3.0791,-3.0779,-3.0789,-3.0734,-3.0758,-3.0808,-3.0999,-3.0814,-3.0808,-3.0843,-3.0859,-3.0756,-3.09,-3.0971,-3.1045,-3.1394,-3.2115,-3.2121,-3.1661,-3.1486,-3.138,-3.1302,-3.1162,-3.1083,-3.1105,-3.097,-3.0709,-3.0621,-3.0494,-3.0502,-3.0439,-3.0444,-3.0444,-3.0431,-3.0419,-3.0389,-3.0402,-3.039,-3.039,-3.0385,-3.0373,-3.0349,-3.0323,-3.0311,-3.0286,-3.026,-3.024,-3.0213,-3.0199,-3.0183,-3.0132,-3.5514,-3.552,-3.5522,-3.5515,-3.5541,-3.5572,-3.561,-3.5596,-3.561,-3.5618,-3.5637,-3.5684,-3.5704,-3.5718,-3.578,-3.5799,-3.5811,-3.5732,-3.4912,-3.349,-3.3265,-3.2421,-3.0995,-3.0804,-3.0794,-3.0801,-3.0816,-3.0848,-3.0873,-3.0915,-3.0917,-3.0917,-3.0918,-3.0918,-3.0918,-3.0918,-3.0918,-3.0918,-3.0918,-3.0918,-3.0918,-3.0918,-3.0918,-3.0918,-3.0918,-3.0918,-3.0918,-3.0918,-3.0918,-3.0918,-3.0918,-3.0918,-3.0918,-3.0918,-3.0898,-3.0877,-3.0875,-3.0893,-3.087,-3.0824,-3.0799,-3.0817,-3.0807,-3.0799,-3.0792,-3.0782,-3.0795,-3.0795,-3.0782,-3.0774,-3.0769,-3.0784,-3.0798,-3.0773,-3.0751,-3.0722,-3.0694,-3.073,-3.0704,-3.0746,-3.1476,-3.1274,-3.0916,-3.0806,-3.0711,-3.0631,-3.0564,-3.0545,-3.053,-3.053,-3.0519,-3.049,-3.0463,-3.0453,-3.0447,-3.0466,-3.0472,-3.0458,-3.0447,-3.0411,-3.0425,-3.0419,-3.0421,-3.0416,-3.039,-3.0385,-3.0359,-3.0348,-3.0329,-3.0305,-3.0273,-3.0279,-3.0299,-3.0252,-3.0197,-3.55,-3.55,-3.5482,-3.5489,-3.5495,-3.5554,-3.5547,-3.554,-3.5577,-3.5614,-3.562,-3.5643,-3.5651,-3.5664,-3.5723,-3.5756,-3.5758,-3.5791,-3.4859,-3.3547,-3.3148,-3.2385,-3.1098,-3.0779,-3.0789,-3.08,-3.0794,-3.0825,-3.086,-3.0891,-3.0915,-3.0896,-3.0916,-3.0918,-3.0917,-3.0917,-3.0918,-3.0918,-3.0918,-3.0918,-3.0918,-3.0918,-3.0918,-3.0918,-3.0918,-3.0918,-3.0918,-3.0918,-3.0918,-3.0918,-3.0918,-3.0918,-3.0918,-3.0918,-3.0898,-3.0918,-3.0917,-3.0916,-3.0914,-3.0871,-3.085,-3.085,-3.0864,-3.0842,-3.0813,-3.0801,-3.0792,-3.079,-3.0786,-3.0804,-3.0804,-3.08,-3.0798,-3.0795,-3.0767,-3.076,-3.0735,-3.0735,-3.0752,-3.0756,-3.0761,-3.072,-3.0678,-3.0692,-3.0688,-3.0636,-3.06,-3.0591,-3.0568,-3.0569,-3.0564,-3.0569,-3.0525,-3.0479,-3.0474,-3.0474,-3.0499,-3.0499,-3.0493,-3.0463,-3.0463,-3.0472,-3.0455,-3.0455,-3.0447,-3.0436,-3.0419,-3.039,-3.0354,-3.0336,-3.0343,-3.033,-3.0318,-3.0312,-3.0259,-3.5493,-3.55,-3.55,-3.55,-3.5488,-3.5502,-3.5496,-3.5496,-3.5554,-3.5585,-3.5591,-3.5598,-3.5608,-3.5623,-3.5653,-3.5679,-3.5689,-3.5752,-3.4689,-3.3724,-3.3041,-3.2239,-3.119,-3.0742,-3.0776,-3.0786,-3.0786,-3.08,-3.0817,-3.0836,-3.0866,-3.0871,-3.0894,-3.0915,-3.0916,-3.0916,-3.0917,-3.0918,-3.0918,-3.0918,-3.0918,-3.0918,-3.0918,-3.0918,-3.0918,-3.0918,-3.0918,-3.0918,-3.0918,-3.0918,-3.0918,-3.0918,-3.0918,-3.0918,-3.0918,-3.0918,-3.0918,-3.0918,-3.0916,-3.0895,-3.0915,-3.0914,-3.0914,-3.0871,-3.0846,-3.0836,-3.0831,-3.0833,-3.0833,-3.0833,-3.083,-3.0807,-3.0783,-3.0801,-3.0798,-3.0792,-3.0788,-3.0784,-3.0782,-3.0772,-3.0782,-3.0755,-3.0734,-3.0727,-3.0697,-3.0661,-3.0626,-3.0622,-3.0625,-3.0619,-3.0606,-3.0597,-3.0564,-3.0525,-3.054,-3.053,-3.0525,-3.053,-3.053,-3.0525,-3.0525,-3.0509,-3.0469,-3.0479,-3.0495,-3.0474,-3.0447,-3.0419,-3.039,-3.0379,-3.0361,-3.0342,-3.0323,-3.0318,-3.0292,-3.5434,-3.55,-3.55,-3.55,-3.55,-3.5488,-3.5488,-3.5494,-3.5496,-3.5509,-3.5515,-3.556,-3.5598,-3.5616,-3.5587,-3.5577,-3.5554,-3.5664,-3.4526,-3.3571,-3.3061,-3.2108,-3.1158,-3.0694,-3.0727,-3.0727,-3.0751,-3.0791,-3.0786,-3.0804,-3.0806,-3.08,-3.0867,-3.0892,-3.0914,-3.0894,-3.0915,-3.0917,-3.0918,-3.0918,-3.0918,-3.0918,-3.0918,-3.0918,-3.0918,-3.0918,-3.0918,-3.0918,-3.0918,-3.0918,-3.0918,-3.0918,-3.0918,-3.0918,-3.0918,-3.0918,-3.0918,-3.0918,-3.0918,-3.0917,-3.0916,-3.0916,-3.0915,-3.0894,-3.0892,-3.0893,-3.0912,-3.089,-3.0889,-3.089,-3.0869,-3.0847,-3.0821,-3.0819,-3.0816,-3.0831,-3.0827,-3.0806,-3.0803,-3.0798,-3.0792,-3.0784,-3.0776,-3.0755,-3.0745,-3.0691,-3.0674,-3.0648,-3.0649,-3.0649,-3.0614,-3.0606,-3.0602,-3.0597,-3.0597,-3.0608,-3.061,-3.0577,-3.0568,-3.0578,-3.0593,-3.0554,-3.052,-3.0515,-3.0525,-3.0505,-3.0504,-3.0488,-3.0466,-3.0421,-3.0379,-3.0359,-3.0354,-3.0349,-3.0324,-3.5372,-3.5427,-3.5446,-3.546,-3.55,-3.55,-3.55,-3.5481,-3.5494,-3.5489,-3.5457,-3.5528,-3.5528,-3.5515,-3.554,-3.5274,-3.4861,-3.4809,-3.3764,-3.2837,-3.2154,-3.1631,-3.092,-3.0649,-3.0645,-3.0683,-3.073,-3.0749,-3.0722,-3.0767,-3.0786,-3.0812,-3.0833,-3.0843,-3.0847,-3.0871,-3.0894,-3.0895,-3.0916,-3.0916,-3.0916,-3.0916,-3.0917,-3.0917,-3.0917,-3.0918,-3.0918,-3.0918,-3.0918,-3.0918,-3.0918,-3.0918,-3.0918,-3.0918,-3.0918,-3.0918,-3.0918,-3.0918,-3.0918,-3.0918,-3.0918,-3.0917,-3.0917,-3.0916,-3.0916,-3.0915,-3.0914,-3.0914,-3.0914,-3.0915,-3.0913,-3.0892,-3.0871,-3.0869,-3.0848,-3.0863,-3.0862,-3.0841,-3.0838,-3.0815,-3.081,-3.0786,-3.078,-3.079,-3.0765,-3.0756,-3.0722,-3.0707,-3.0691,-3.0697,-3.0667,-3.0656,-3.0656,-3.0653,-3.0653,-3.0661,-3.0669,-3.0637,-3.0625,-3.0617,-3.0628,-3.06,-3.0567,-3.0577,-3.0564,-3.0559,-3.0545,-3.0545,-3.0514,-3.0466,-3.0419,-3.0389,-3.0377,-3.0385,-3.0361,-3.456,-3.4623,-3.4637,-3.4831,-3.5096,-3.5103,-3.4949,-3.4731,-3.4673,-3.4718,-3.4718,-3.4732,-3.4725,-3.4751,-3.4738,-3.4499,-3.4004,-3.3803,-3.2996,-3.2322,-3.1796,-3.1294,-3.0834,-3.0585,-3.0621,-3.0661,-3.0684,-3.0683,-3.0701,-3.0752,-3.077,-3.0774,-3.08,-3.0799,-3.0817,-3.0846,-3.0871,-3.0871,-3.0894,-3.0914,-3.0914,-3.0914,-3.0914,-3.0916,-3.0916,-3.0916,-3.0917,-3.0918,-3.0918,-3.0918,-3.0918,-3.0918,-3.0918,-3.0918,-3.0918,-3.0918,-3.0918,-3.0918,-3.0918,-3.0918,-3.0918,-3.0918,-3.0918,-3.0917,-3.0918,-3.0918,-3.0917,-3.0916,-3.0916,-3.0918,-3.0918,-3.0896,-3.0895,-3.0894,-3.0892,-3.0891,-3.0891,-3.089,-3.0869,-3.0847,-3.0845,-3.0843,-3.0819,-3.0812,-3.0796,-3.0793,-3.0757,-3.0747,-3.0762,-3.0751,-3.0736,-3.073,-3.0727,-3.074,-3.0737,-3.0707,-3.0678,-3.069,-3.066,-3.0645,-3.0657,-3.0634,-3.0641,-3.0645,-3.0636,-3.0613,-3.06,-3.0577,-3.0554,-3.0509,-3.0469,-3.0447,-3.0442,-3.0431,-3.0389,-3.2881,-3.2856,-3.2999,-3.3493,-3.4115,-3.4237,-3.3795,-3.3295,-3.3199,-3.3179,-3.3256,-3.3186,-3.3186,-3.3211,-3.3454,-3.3293,-3.3087,-3.2989,-3.2491,-3.1797,-3.1493,-3.1142,-3.0815,-3.0569,-3.0588,-3.06,-3.0621,-3.0657,-3.0696,-3.0703,-3.0704,-3.0727,-3.0759,-3.0791,-3.0799,-3.0795,-3.0801,-3.0803,-3.087,-3.0892,-3.0892,-3.0891,-3.0892,-3.0893,-3.0894,-3.0894,-3.0896,-3.0916,-3.0916,-3.0917,-3.0917,-3.0917,-3.0918,-3.0918,-3.0918,-3.0918,-3.0918,-3.0918,-3.0918,-3.0918,-3.0918,-3.0918,-3.0918,-3.0918,-3.0918,-3.0918,-3.0918,-3.0918,-3.0918,-3.0918,-3.0918,-3.0918,-3.0918,-3.0916,-3.0916,-3.0915,-3.0916,-3.0916,-3.0895,-3.0873,-3.0893,-3.0913,-3.0871,-3.0847,-3.0836,-3.0803,-3.0788,-3.08,-3.0795,-3.0789,-3.0777,-3.0774,-3.0769,-3.0767,-3.0762,-3.0709,-3.07,-3.0697,-3.0707,-3.0698,-3.0707,-3.0701,-3.0706,-3.0707,-3.0684,-3.0665,-3.0626,-3.0602,-3.0586,-3.0574,-3.053,-3.0504,-3.0504,-3.0469,-3.0447,-3.2688,-3.2747,-3.2802,-3.2683,-3.2583,-3.3109,-3.3141,-3.2929,-3.2891,-3.2891,-3.2891,-3.2891,-3.2891,-3.2917,-3.2788,-3.2583,-3.2184,-3.2127,-3.1696,-3.0992,-3.0934,-3.0763,-3.0548,-3.0525,-3.054,-3.0554,-3.0578,-3.0606,-3.0634,-3.0649,-3.0661,-3.0683,-3.0717,-3.0762,-3.0778,-3.0796,-3.0799,-3.0786,-3.0812,-3.0834,-3.0815,-3.0836,-3.0839,-3.0846,-3.0847,-3.0868,-3.0873,-3.0893,-3.0914,-3.0895,-3.0895,-3.0915,-3.0916,-3.0916,-3.0917,-3.0917,-3.0917,-3.0918,-3.0918,-3.0918,-3.0918,-3.0918,-3.0918,-3.0918,-3.0918,-3.0918,-3.0918,-3.0918,-3.0918,-3.0918,-3.0918,-3.0918,-3.0918,-3.0918,-3.0918,-3.0918,-3.0918,-3.0918,-3.0898,-3.0897,-3.0916,-3.0915,-3.0894,-3.0874,-3.0867,-3.0841,-3.0831,-3.082,-3.0815,-3.0792,-3.0786,-3.0786,-3.0784,-3.0784,-3.078,-3.0745,-3.0738,-3.0755,-3.075,-3.0759,-3.0753,-3.0745,-3.0736,-3.0724,-3.0717,-3.0691,-3.0671,-3.0672,-3.0665,-3.0632,-3.0601,-3.0535,-3.0515,-3.05,-3.0474,-3.1725,-3.1798,-3.1876,-3.1606,-3.1288,-3.2064,-3.2327,-3.2051,-3.2019,-3.2025,-3.1981,-3.2006,-3.1987,-3.1987,-3.1987,-3.1872,-3.125,-3.1231,-3.1141,-3.0414,-3.0419,-3.0461,-3.0477,-3.0469,-3.0485,-3.049,-3.053,-3.0554,-3.0579,-3.0601,-3.0617,-3.0649,-3.0676,-3.0711,-3.0753,-3.0774,-3.0793,-3.08,-3.0806,-3.0792,-3.0794,-3.0796,-3.0801,-3.0791,-3.0815,-3.0837,-3.0845,-3.0868,-3.087,-3.0871,-3.0892,-3.0912,-3.0913,-3.0914,-3.0915,-3.0916,-3.0916,-3.0917,-3.0918,-3.0918,-3.0918,-3.0918,-3.0918,-3.0918,-3.0918,-3.0918,-3.0918,-3.0918,-3.0918,-3.0918,-3.0918,-3.0918,-3.0918,-3.0918,-3.0918,-3.0918,-3.0918,-3.0918,-3.0918,-3.0918,-3.0918,-3.0918,-3.0916,-3.0915,-3.0894,-3.0871,-3.0847,-3.0841,-3.0833,-3.0831,-3.081,-3.081,-3.0809,-3.0806,-3.0801,-3.0792,-3.0788,-3.0786,-3.0802,-3.0795,-3.0791,-3.0767,-3.0757,-3.073,-3.0745,-3.0737,-3.0736,-3.0714,-3.0697,-3.068,-3.0657,-3.0597,-3.0525,-3.0521,-3.0525,-3.001,-3.0102,-3.0176,-3.0261,-3.0371,-3.1205,-3.1124,-3.0406,-3.045,-3.0494,-3.0481,-3.0615,-3.0712,-3.0558,-3.0519,-3.0558,-3.0558,-3.0519,-3.0481,-3.0448,-3.039,-3.0414,-3.0406,-3.0417,-3.0447,-3.0469,-3.0485,-3.0509,-3.0509,-3.0554,-3.0577,-3.0613,-3.0625,-3.0657,-3.071,-3.0724,-3.0753,-3.0764,-3.0774,-3.0782,-3.0769,-3.0776,-3.0782,-3.079,-3.0796,-3.0798,-3.0806,-3.0809,-3.0815,-3.082,-3.0863,-3.0869,-3.0892,-3.0894,-3.0894,-3.0914,-3.0914,-3.0915,-3.0916,-3.0916,-3.0917,-3.0918,-3.0918,-3.0918,-3.0918,-3.0918,-3.0918,-3.0918,-3.0918,-3.0918,-3.0918,-3.0918,-3.0918,-3.0918,-3.0918,-3.0918,-3.0918,-3.0918,-3.0918,-3.0918,-3.0918,-3.0918,-3.0918,-3.0917,-3.0918,-3.0896,-3.0895,-3.0894,-3.089,-3.0889,-3.0868,-3.0868,-3.0846,-3.0822,-3.0817,-3.0833,-3.0831,-3.0833,-3.0809,-3.0804,-3.0801,-3.0796,-3.0786,-3.0761,-3.078,-3.0774,-3.0755,-3.0739,-3.0725,-3.071,-3.0698,-3.0664,-3.0618,-3.0593,-3.06,-2.9926,-2.9964,-3.0038,-3.0083,-3.0178,-3.0479,-3.0464,-3.0305,-3.0323,-3.0316,-3.0336,-3.0379,-3.0379,-3.0404,-3.0404,-3.0404,-3.0404,-3.0404,-3.0404,-3.0404,-3.0404,-3.039,-3.0396,-3.0402,-3.0427,-3.0419,-3.0436,-3.0447,-3.0458,-3.049,-3.0554,-3.0592,-3.0597,-3.0619,-3.0629,-3.0642,-3.0694,-3.072,-3.073,-3.0745,-3.0737,-3.0742,-3.0769,-3.0779,-3.0784,-3.0791,-3.0784,-3.0788,-3.0796,-3.0804,-3.0807,-3.0831,-3.0812,-3.0838,-3.0862,-3.091,-3.0912,-3.0914,-3.0915,-3.0915,-3.0915,-3.0916,-3.0917,-3.0918,-3.0918,-3.0918,-3.0918,-3.0918,-3.0918,-3.0918,-3.0918,-3.0918,-3.0918,-3.0918,-3.0918,-3.0918,-3.0918,-3.0918,-3.0918,-3.0918,-3.0918,-3.0918,-3.0918,-3.0918,-3.0918,-3.0918,-3.0918,-3.0918,-3.0917,-3.0916,-3.0915,-3.0895,-3.0894,-3.087,-3.0871,-3.0888,-3.0889,-3.0869,-3.0865,-3.0842,-3.0817,-3.0812,-3.0807,-3.0804,-3.0801,-3.0796,-3.0788,-3.0776,-3.076,-3.0757,-3.0764,-3.0736,-3.0704,-3.068,-3.0661,-2.9806,-2.983,-2.9916,-3.0018,-3.008,-3.0121,-3.019,-3.0239,-3.0273,-3.0305,-3.0305,-3.0336,-3.0348,-3.0373,-3.0379,-3.0404,-3.0404,-3.0404,-3.0404,-3.0404,-3.0404,-3.0404,-3.0404,-3.0404,-3.0404,-3.039,-3.0402,-3.0414,-3.0425,-3.0433,-3.0495,-3.0545,-3.0569,-3.0569,-3.0568,-3.0577,-3.0585,-3.0626,-3.0653,-3.0671,-3.0685,-3.0695,-3.0727,-3.0742,-3.0764,-3.0781,-3.0777,-3.0782,-3.0793,-3.08,-3.0802,-3.0788,-3.0792,-3.0803,-3.0809,-3.0859,-3.0864,-3.0848,-3.085,-3.0891,-3.0913,-3.0914,-3.0915,-3.0916,-3.0917,-3.0918,-3.0918,-3.0918,-3.0918,-3.0918,-3.0918,-3.0918,-3.0918,-3.0918,-3.0918,-3.0918,-3.0918,-3.0918,-3.0918,-3.0918,-3.0918,-3.0918,-3.0918,-3.0918,-3.0918,-3.0918,-3.0918,-3.0918,-3.0918,-3.0917,-3.0917,-3.0917,-3.0916,-3.0895,-3.0915,-3.0915,-3.0914,-3.0893,-3.0892,-3.087,-3.0848,-3.0846,-3.0844,-3.0839,-3.0813,-3.081,-3.0807,-3.0796,-3.0784,-3.0804,-3.0804,-3.0767,-3.0742,-3.071,-3.0691,-2.971,-2.9699,-2.9815,-2.9899,-2.9991,-3.0057,-3.0087,-3.0102,-3.0206,-3.0273,-3.0286,-3.0305,-3.0298,-3.0323,-3.0342,-3.0373,-3.0379,-3.0379,-3.0404,-3.0404,-3.0404,-3.0404,-3.0404,-3.0404,-3.0404,-3.0404,-3.0385,-3.0396,-3.0396,-3.0419,-3.0447,-3.0479,-3.0504,-3.0495,-3.0505,-3.051,-3.0535,-3.0568,-3.0604,-3.061,-3.0653,-3.0684,-3.0692,-3.0678,-3.0688,-3.0717,-3.0733,-3.0748,-3.0798,-3.0784,-3.0791,-3.0782,-3.0795,-3.0786,-3.0792,-3.0801,-3.0809,-3.0815,-3.0819,-3.0843,-3.0887,-3.089,-3.0894,-3.0894,-3.0915,-3.0917,-3.0918,-3.0918,-3.0918,-3.0918,-3.0918,-3.0918,-3.0918,-3.0918,-3.0918,-3.0918,-3.0918,-3.0918,-3.0918,-3.0918,-3.0918,-3.0918,-3.0918,-3.0918,-3.0918,-3.0918,-3.0918,-3.0918,-3.0918,-3.0918,-3.0918,-3.0918,-3.0918,-3.0918,-3.0917,-3.0916,-3.0916,-3.0915,-3.0918,-3.0914,-3.0874,-3.0893,-3.0914,-3.089,-3.0845,-3.0824,-3.0821,-3.0815,-3.083,-3.0828,-3.0827,-3.0803,-3.0767,-3.076,-3.0742,-2.9579,-2.9636,-2.9718,-2.9789,-2.9859,-2.9929,-2.9951,-2.9956,-3.0026,-3.0135,-3.0232,-3.0273,-3.0305,-3.0292,-3.0323,-3.0336,-3.0336,-3.0367,-3.0379,-3.0398,-3.0398,-3.0373,-3.0385,-3.0379,-3.0385,-3.0404,-3.0404,-3.0404,-3.0385,-3.0396,-3.0394,-3.0422,-3.0428,-3.0453,-3.0493,-3.0493,-3.049,-3.053,-3.0525,-3.0554,-3.0617,-3.0629,-3.0622,-3.063,-3.063,-3.0665,-3.068,-3.071,-3.0727,-3.072,-3.0707,-3.0748,-3.0791,-3.0799,-3.0789,-3.0802,-3.0788,-3.0796,-3.0801,-3.0807,-3.0833,-3.0838,-3.0823,-3.0866,-3.089,-3.0914,-3.0915,-3.0915,-3.0916,-3.0916,-3.0916,-3.0916,-3.0916,-3.0916,-3.0916,-3.0917,-3.0917,-3.0918,-3.0918,-3.0918,-3.0918,-3.0918,-3.0918,-3.0918,-3.0918,-3.0918,-3.0918,-3.0918,-3.0918,-3.0918,-3.0918,-3.0918,-3.0918,-3.0918,-3.0918,-3.0918,-3.0918,-3.0918,-3.0918,-3.0918,-3.0918,-3.0916,-3.0916,-3.0895,-3.0873,-3.0852,-3.0871,-3.0891,-3.0889,-3.0865,-3.0843,-3.082,-3.0816,-3.0801,-3.0788,-2.9453,-2.9521,-2.9626,-2.9664,-2.9719,-2.9771,-2.9815,-2.983,-2.9924,-2.9996,-3.0072,-3.0192,-3.0253,-3.0266,-3.0286,-3.0305,-3.0305,-3.0336,-3.0336,-3.0362,-3.0374,-3.0355,-3.0342,-3.0348,-3.0379,-3.0379,-3.0385,-3.0404,-3.0398,-3.0404,-3.0396,-3.0389,-3.0394,-3.0425,-3.0461,-3.0442,-3.0453,-3.0463,-3.0444,-3.0486,-3.0549,-3.0549,-3.0582,-3.0601,-3.0619,-3.0636,-3.0637,-3.0665,-3.0657,-3.0676,-3.0687,-3.0697,-3.074,-3.0755,-3.077,-3.0767,-3.0777,-3.0789,-3.0798,-3.0784,-3.0792,-3.0799,-3.0788,-3.0834,-3.0834,-3.0842,-3.087,-3.0891,-3.0914,-3.0915,-3.0915,-3.0915,-3.0915,-3.0915,-3.0915,-3.0915,-3.0916,-3.0918,-3.0918,-3.0918,-3.0918,-3.0918,-3.0918,-3.0918,-3.0918,-3.0918,-3.0918,-3.0918,-3.0918,-3.0918,-3.0918,-3.0918,-3.0918,-3.0918,-3.0918,-3.0918,-3.0918,-3.0918,-3.0918,-3.0918,-3.0918,-3.0918,-3.0917,-3.0897,-3.0896,-3.0895,-3.0915,-3.0915,-3.0914,-3.0892,-3.0871,-3.085,-3.0848,-3.0845,-3.0838,-2.9332,-2.9402,-2.9511,-2.956,-2.9598,-2.9654,-2.969,-2.9717,-2.9832,-2.9872,-2.994,-3.0091,-3.0152,-3.02,-3.026,-3.0273,-3.0286,-3.0305,-3.0299,-3.0299,-3.0318,-3.0318,-3.0311,-3.0317,-3.0329,-3.0361,-3.0367,-3.0373,-3.0373,-3.0379,-3.0404,-3.0404,-3.0404,-3.0404,-3.0404,-3.0404,-3.0402,-3.04,-3.0411,-3.0428,-3.0463,-3.0479,-3.0535,-3.0579,-3.0593,-3.0573,-3.0595,-3.0589,-3.0589,-3.0629,-3.0645,-3.068,-3.0668,-3.069,-3.0701,-3.0701,-3.0736,-3.077,-3.0762,-3.0777,-3.0786,-3.0798,-3.0788,-3.0794,-3.0794,-3.0803,-3.0836,-3.0861,-3.0888,-3.0891,-3.0891,-3.0891,-3.0891,-3.0892,-3.0892,-3.0913,-3.0913,-3.0913,-3.0914,-3.0914,-3.0914,-3.0915,-3.0915,-3.0916,-3.0917,-3.0918,-3.0918,-3.0918,-3.0918,-3.0918,-3.0918,-3.0918,-3.0918,-3.0918,-3.0918,-3.0918,-3.0918,-3.0918,-3.0918,-3.0918,-3.0918,-3.0918,-3.0918,-3.0918,-3.0918,-3.0917,-3.0917,-3.0917,-3.0916,-3.0916,-3.0896,-3.0876,-3.0894,-3.0892,-3.0893,-2.9267,-2.9332,-2.9334,-2.9423,-2.9521,-2.9541,-2.9589,-2.9692,-2.9729,-2.98,-2.9885,-2.9932,-3.0,-3.0123,-3.0211,-3.0232,-3.0233,-3.0272,-3.0305,-3.0312,-3.0286,-3.0279,-3.0299,-3.0286,-3.0305,-3.0318,-3.0336,-3.0329,-3.0329,-3.0367,-3.0398,-3.0398,-3.0404,-3.0404,-3.0404,-3.0404,-3.039,-3.0402,-3.0396,-3.0408,-3.0419,-3.0466,-3.0499,-3.0534,-3.0539,-3.0525,-3.0535,-3.0515,-3.0559,-3.0592,-3.0604,-3.0621,-3.0629,-3.0637,-3.0634,-3.0668,-3.0706,-3.0704,-3.072,-3.0733,-3.0745,-3.0786,-3.0777,-3.0801,-3.0784,-3.0789,-3.0821,-3.0806,-3.0837,-3.0827,-3.083,-3.0831,-3.0831,-3.0836,-3.0838,-3.0863,-3.0867,-3.0889,-3.0892,-3.0892,-3.0892,-3.0893,-3.0894,-3.0894,-3.0895,-3.0896,-3.0916,-3.0916,-3.0916,-3.0916,-3.0915,-3.0916,-3.0916,-3.0918,-3.0918,-3.0918,-3.0918,-3.0918,-3.0918,-3.0918,-3.0918,-3.0918,-3.0918,-3.0918,-3.0918,-3.0918,-3.0918,-3.0918,-3.0918,-3.0918,-3.0918,-3.0918,-3.0917,-3.0916,-3.0916]},{"header":{"parameterUnit":"m.s-1","parameterCategory":1,"la1":31.0,"la2":29.5877,"lo1":-88.7671,"lo2":-86.6584,"dy":0.0162,"dx":0.0185,"nx":115,"ny":88,"refTime":"2024-06-24T06:00:00:Z","depth":0,"parameterNumber":3,"parameterNumberName":"V-component_of_WINDS"},"data":[0.0,0.0,0.0,0.0,0.0,0.0,0.0,0.0,0.0,0.0,0.0,0.0,0.0,0.0,0.0,0.0,0.0,0.0,0.0,0.0,0.0,0.0,0.0,0.0,0.0,0.0,0.0,0.0,0.0,0.0,0.0,0.0,0.0,0.0,0.0,0.0,0.0,0.0,0.0,0.0,0.0,0.0,0.0,0.0,0.0,0.0,0.0,0.0,0.0,0.0,0.0,0.0,0.0,0.0,0.0,0.0,0.0,0.0,0.0,0.0,0.0,0.0,0.0,0.0,0.0,0.0,0.0,0.0,0.0,0.0,0.0,0.0,0.0,0.0,0.0,0.0,0.0,0.0,0.0,0.0,0.0,0.0,0.0,0.0,0.0,0.0,0.0,0.0,0.0,0.0,0.0,0.0,0.0,0.0,0.0,0.0,0.0,0.0,0.0,0.0,0.0,0.0,0.0,0.0,0.0,0.0,0.0,0.0,0.0,0.0,0.0,0.0,0.0,0.0,0.0,0.0,0.0,0.0,0.0,0.0,0.0,0.0,0.0,0.0,0.0,0.0,0.0,0.0,0.0,0.0,0.0,0.0,0.0,0.0,0.0,0.0,0.0,0.0,0.0,0.0,0.0,0.0,0.0,0.0,0.0,0.0,0.0,0.0,0.0,0.0,0.0,0.0,0.0,0.0,0.0,0.0,0.0,0.0,0.0,0.0,0.0,0.0,0.0,0.0,0.0,0.0,0.0,0.0,0.0,0.0,0.0,0.0,0.0,0.0,0.0,0.0,0.0,0.0,0.0,0.0,0.0,0.0,0.0,0.0,0.0,0.0,0.0,0.0,0.0,0.0,0.0,0.0,0.0,0.0,0.0,0.0,0.0,0.0,0.0,0.0,0.0,0.0,0.0,0.0,0.0,0.0,0.0,0.0,0.0,0.0,0.0,0.0,0.0,0.0,0.0,0.0,0.0,0.0,0.0,0.0,0.0,0.0,0.0,0.0,0.0,0.0,0.0,0.0,0.0,0.0,0.0,0.0,0.0,0.0,0.0,0.0,0.0,0.0,0.0,0.0,0.0,0.0,0.0,0.0,0.0,0.0,0.0,0.0,0.0,0.0,0.0,0.0,0.0,0.0,0.0,0.0,0.0,0.0,0.0,0.0,0.0,0.0,0.0,0.0,0.0,0.0,0.0,0.0,0.0,0.0,0.0,0.0,0.0,0.0,0.0,0.0,0.0,0.0,0.0,0.0,0.0,0.0,0.0,0.0,0.0,0.0,0.0,0.0,0.0,0.0,0.0,0.0,0.0,0.0,0.0,0.0,0.0,0.0,0.0,0.0,0.0,0.0,0.0,0.0,0.0,0.0,0.0,0.0,0.0,0.0,0.0,0.0,0.0,0.0,0.0,0.0,0.0,0.0,0.0,0.0,0.0,0.0,0.0,0.0,0.0,0.0,0.0,0.0,0.0,0.0,0.0,0.0,0.0,0.0,0.0,0.0,0.0,0.0,0.0,0.0,0.0,0.0,0.0,0.0,0.0,0.0,0.0,0.0,0.0,0.0,0.0,0.0,0.0,0.0,0.0,0.0,0.0,0.0,0.0,0.0,0.0,0.0,0.0,0.0,0.0,0.0,0.0,0.0,0.0,0.0,0.0,0.0,0.0,0.0,0.0,0.0,0.0,0.0,0.0,0.0,0.0,0.0,0.0,0.0,0.0,0.0,0.0,0.0,0.0,0.0,0.0,0.0,0.0,0.0,0.0,0.0,0.0,0.0,0.0,0.0,0.0,0.0,0.0,0.0,0.0,0.0,0.0,0.0,0.0,0.0,0.0,0.0,0.0,0.0,0.0,0.0,0.0,0.0,0.0,0.0,0.0,0.0,0.0,0.0,0.0,0.0,0.0,0.0,0.0,0.0,0.0,0.0,0.0,0.0,0.0,0.0,0.0,0.0,0.0,0.0,0.0,0.0,0.0,0.0,0.0,0.0,0.0,0.0,0.0,0.0,0.0,0.0,0.0,0.0,0.0,0.0,0.0,0.0,0.0,0.0,0.0,0.0,0.0,0.0,0.0,0.0,0.0,0.0,0.0,0.0,0.0,0.0,0.0,0.0,0.0,0.0,0.0,0.0,0.0,0.0,0.0,0.0,0.0,0.0,0.0,0.0,0.0,0.0,0.0,0.0,0.0,0.0,0.0,0.0,0.0,0.0,0.0,0.0,0.0,0.0,0.0,0.0,0.0,0.0,0.0,0.0,0.0,0.0,0.0,0.0,0.0,0.0,0.0,0.0,0.0,0.0,0.0,0.0,0.0,0.0,0.0,0.0,0.0,0.0,0.0,0.0,0.0,0.0,0.0,0.0,0.0,0.0,0.0,0.0,0.0,0.0,0.0,0.0,0.0,0.0,0.0,0.0,0.0,0.0,0.0,0.0,0.0,0.0,0.0,0.0,0.0,0.0,0.0,0.0,0.0,0.0,0.0,0.0,0.0,0.0,0.0,0.0,0.0,0.0,0.0,0.0,0.0,0.0,0.0,0.0,0.0,0.0,0.0,0.0,0.0,0.0,0.0,0.0,0.0,0.0,0.0,0.0,0.0,0.0,0.0,0.0,0.0,0.0,0.0,0.0,0.0,0.0,0.0,0.0,0.0,0.0,0.0,0.0,0.0,0.0,0.0,0.0,0.0,0.0,0.0,0.0,0.0,0.0,0.0,0.0,0.0,0.0,0.0,0.0,0.0,0.0,0.0,0.0,0.0,0.0,0.0,0.0,0.0,0.0,0.0,0.0,0.0,0.0,0.0,0.0,0.0,0.0,0.0,0.0,0.0,0.0,0.0,0.0,0.0,0.0,0.0,0.0,0.0,0.0,0.0,0.0,0.0,0.0,0.0,0.0,0.0,0.0,0.0,0.0,0.0,0.0,0.0,0.0,0.0,0.0,0.0,0.0,0.0,0.0,0.0,0.0,0.0,0.0,0.0,0.0,0.0,0.0,0.0,0.0,0.0,0.0,0.0,0.0,0.0,0.0,0.0,0.0,0.0,0.0,0.0,0.0,0.0,0.0,0.0,0.0,0.0,0.0,0.0,0.0,0.0,0.0,0.0,0.0,0.0,0.0,0.0,0.0,0.0,0.0,0.0,0.0,0.0,0.0,0.0,0.0,0.0,0.0,0.0,0.0,0.0,0.0,0.0,0.0,0.0,0.0,0.0,0.0,0.0,0.0,0.0,0.0,0.0,0.0,0.0,0.0,0.0,0.0,0.0,0.0,0.0,0.0,0.0,0.0,0.0,0.0,0.0,0.0,0.0,0.0,0.0,0.0,0.0,0.0,0.0,0.0,0.0,0.0,0.0,0.0,0.0,0.0,0.0,0.0,0.0,0.0,0.0,0.0,0.0,0.0,0.0,0.0,0.0,0.0,0.0,0.0,0.0,0.0,0.0,0.0,0.0,0.0,0.0,0.0,0.0,0.0,0.0,0.0,0.0,0.0,0.0,0.0,0.0,0.0,0.0,0.0,0.0,0.0,0.0,0.0,0.0,0.0,0.0,0.0,0.0,0.0,0.0,0.0,0.0,0.0,0.0,0.0,0.0,0.0,0.0,0.0,0.0,0.0,0.0,0.0,0.0,0.0,0.0,0.0,0.0,0.0,0.0,0.0,0.0,0.0,0.0,0.0,0.0,0.0,0.0,0.0,0.0,0.0,0.0,0.0,0.0,0.0,0.0,0.0,0.0,0.0,0.0,0.0,0.0,0.0,0.0,0.0,0.0,0.0,0.0,0.0,0.0,0.0,0.0,0.0,0.0,0.0,0.0,0.0,0.0,0.0,0.0,0.0,0.0,0.0,0.0,0.0,0.0,0.0,0.0,0.0,0.0,0.0,0.0,0.0,0.0,0.0,0.0,0.0,0.0,0.0,0.0,0.0,0.0,0.0,0.0,0.0,0.0,0.0,0.0,0.0,0.0,0.0,0.0,0.0,0.0,0.0,0.0,0.0,0.0,0.0,0.0,0.0,0.0,0.0,0.0,0.0,0.0,0.0,0.0,0.0,0.0,0.0,0.0,0.0,0.0,0.0,0.0,0.0,0.0,0.0,0.0,0.0,0.0,0.0,0.0,0.0,0.0,0.0,0.0,0.0,0.0,0.0,0.0,0.0,0.0,0.0,0.0,0.0,0.0,0.0,0.0,0.0,0.0,0.0,0.0,0.0,0.0,0.0,0.0,0.0,0.0,0.0,0.0,0.0,0.0,0.0,0.0,0.0,0.0,0.0,0.0,0.0,0.0,0.0,0.0,0.0,-0.3274,0.0,0.0,0.0,0.0,0.0,0.0,0.0,0.0,0.0,0.0,0.0,0.0,0.0,0.0,0.0,0.0,0.0,0.0,0.0,0.0,0.0,0.0,0.0,0.0,0.0,0.0,0.0,0.0,0.0,0.0,0.0,0.0,0.0,0.0,0.0,0.0,0.0,0.0,0.0,0.0,0.0,0.0,0.0,0.0,0.0,0.0,0.0,0.0,0.0,0.0,0.0,0.0,0.0,0.0,0.0,0.0,0.0,0.0,0.0,0.0,0.0,0.0,0.0,0.0,0.0,0.0,0.0,0.0,0.0,0.0,0.0,0.0,0.0,0.0,0.0,0.0,0.0,0.0,0.0,0.0,0.0,0.0,0.0,0.0,0.0,0.0,0.0,0.0,0.0,0.0,0.0,0.0,0.0,0.0,0.0,0.0,0.0,0.0,0.0,0.0,0.0,0.0,0.0,0.0,0.0,0.0,0.0,0.0,0.0,0.0,-0.2549,-0.2666,-0.2913,-0.3203,-0.3546,0.0,0.0,0.0,0.0,0.0,0.0,0.0,0.0,0.0,0.0,0.0,0.0,0.0,0.0,0.0,0.0,0.0,0.0,0.0,0.0,0.0,0.0,0.0,0.0,0.0,0.0,0.0,0.0,0.0,0.0,0.0,0.0,0.0,0.0,0.0,0.0,0.0,0.0,0.0,0.0,0.0,0.0,0.0,0.0,0.0,0.0,0.0,0.0,0.0,0.0,0.0,0.0,0.0,0.0,0.0,0.0,0.0,0.0,0.0,0.0,0.0,0.0,0.0,0.0,0.0,0.0,0.0,0.0,0.0,0.0,0.0,0.0,0.0,0.0,0.0,0.0,0.0,0.0,0.0,0.0,0.0,0.0,0.0,0.0,0.0,0.0,0.0,0.0,0.0,0.0,0.0,0.0,0.0,0.0,0.0,0.0,0.0,0.0,0.0,0.0,0.0,0.0,0.0,0.0,0.0,0.0,0.0,0.0,0.0,0.0,0.0,0.0,-0.3016,-0.3385,-0.3887,0.0,0.0,0.0,0.0,0.0,0.0,0.0,0.0,0.0,0.0,0.0,0.0,0.0,0.0,0.0,0.0,0.0,0.0,0.0,0.0,0.0,0.0,0.0,0.0,0.0,0.0,0.0,0.0,0.0,0.0,0.0,0.0,0.0,0.0,0.0,0.0,0.0,0.0,0.0,0.0,0.0,0.0,0.0,0.0,0.0,0.0,0.0,0.0,0.0,0.0,0.0,0.0,0.0,0.0,0.0,0.0,0.0,0.0,0.0,0.0,0.0,0.0,0.0,0.0,0.0,0.0,0.0,0.0,0.0,0.0,0.0,0.0,0.0,0.0,0.0,0.0,0.0,0.0,0.0,0.0,0.0,0.0,0.0,0.0,0.0,0.0,0.0,0.0,0.0,0.0,0.0,0.0,0.0,0.0,0.0,0.0,0.0,0.0,0.0,0.0,0.0,0.0,0.0,0.0,0.0,0.0,0.0,0.0,0.0,0.0,-0.2759,-0.2969,-0.3117,0.0,-0.4147,0.0,0.0,0.0,0.0,0.0,0.0,0.0,0.0,0.0,0.0,0.0,0.0,0.0,0.0,0.0,0.0,0.0,0.0,0.0,0.0,0.0,0.0,0.0,0.0,0.0,0.0,0.0,0.0,0.0,0.0,0.0,0.0,0.0,0.0,0.0,0.0,0.0,0.0,0.0,0.0,0.0,0.0,0.0,0.0,0.0,0.0,0.0,0.0,0.0,0.0,0.0,0.0,0.0,0.0,0.0,0.0,0.0,0.0,0.0,0.0,0.0,0.0,0.0,0.0,0.0,0.0,0.0,0.0,0.0,0.0,0.0,0.0,0.0,0.0,0.0,0.0,0.0,0.0,0.0,0.0,0.0,0.0,0.0,0.0,0.0,0.0,0.0,0.0,0.0,0.0,0.0,0.0,0.0,0.0,0.0,0.0,0.0,0.0,0.0,0.0,0.0,0.0,0.0,0.0,0.0,0.0,0.0,0.0,0.0,0.0,0.0,-0.3236,-0.3699,-0.4183,0.0,0.0,0.0,0.0,0.0,0.0,0.0,0.0,0.0,0.0,0.0,0.0,0.0,0.0,0.0,0.0,0.0,0.0,0.0,0.0,0.0,0.0,0.0,0.0,0.0,0.0,0.0,0.0,0.0,0.0,0.0,0.0,0.0,0.0,0.0,0.0,0.0,0.0,0.0,0.0,0.0,0.0,0.0,0.0,0.0,0.0,0.0,0.0,0.0,0.0,0.0,0.0,0.0,0.0,0.0,0.0,0.0,0.0,0.0,0.0,0.0,0.0,0.0,0.0,0.0,0.0,0.0,0.0,0.0,0.0,0.0,0.0,0.0,0.0,0.0,0.0,0.0,0.0,0.0,0.0,0.0,0.0,0.0,0.0,0.0,0.0,0.0,0.0,0.0,0.0,0.0,0.0,0.0,0.0,0.0,0.0,0.0,0.0,0.0,0.0,0.0,0.0,0.0,0.0,0.0,0.0,0.0,0.0,0.0,0.0,-0.2989,0.0,-0.3599,-0.4229,-0.4694,-0.495,0.0,0.0,0.0,0.0,0.0,0.0,0.0,0.0,0.0,0.0,0.0,0.0,0.0,0.0,0.0,0.0,0.0,0.0,0.0,0.0,0.0,0.0,0.0,0.0,0.0,0.0,0.0,0.0,0.0,0.0,0.0,0.0,0.0,0.0,0.0,0.0,0.0,0.0,0.0,0.0,0.0,0.0,0.0,0.0,0.0,0.0,0.0,0.0,0.0,0.0,0.0,0.0,0.0,0.0,0.0,0.0,0.0,0.0,0.0,0.0,0.0,0.0,0.0,0.0,0.0,0.0,0.0,0.0,0.0,0.0,0.0,0.0,0.0,0.0,0.0,0.0,0.0,0.0,0.0,0.0,0.0,0.0,0.0,0.0,0.0,0.0,0.0,0.0,0.0,0.0,0.0,0.0,0.0,0.0,0.0,0.0,0.0,0.0,0.0,0.0,0.0,0.0,0.0,0.0,0.0,0.0,0.0,0.0,0.0,-0.3139,-0.3495,-0.4159,-0.4493,-0.4853,0.0,0.0,0.0,0.0,0.0,0.0,0.0,0.0,0.0,0.0,0.0,0.0,0.0,0.0,0.0,0.0,0.0,0.0,0.0,0.0,0.0,0.0,0.0,0.0,0.0,0.0,0.0,0.0,0.0,0.0,0.0,0.0,0.0,0.0,0.0,0.0,0.0,0.0,0.0,0.0,0.0,0.0,0.0,0.0,0.0,0.0,0.0,0.0,0.0,0.0,0.0,0.0,0.0,0.0,0.0,0.0,0.0,0.0,0.0,0.0,0.0,0.0,0.0,0.0,0.0,0.0,0.0,0.0,0.0,0.0,0.0,0.0,0.0,0.0,0.0,0.0,0.0,0.0,0.0,0.0,0.0,0.0,0.0,0.0,0.0,0.0,0.0,0.0,0.0,0.0,0.0,0.0,0.0,0.0,0.0,0.0,0.0,0.0,0.0,0.0,0.0,0.0,0.0,0.0,0.0,0.0,0.0,0.0,0.0,-0.3456,-0.3749,-0.4148,-0.4689,-0.4896,-0.5175,0.0,0.0,0.0,0.0,0.0,0.0,0.0,0.0,0.0,0.0,0.0,0.0,0.0,0.0,0.0,0.0,0.0,0.0,0.0,0.0,0.0,0.0,0.0,0.0,0.0,0.0,0.0,0.0,0.0,0.0,0.0,0.0,0.0,0.0,0.0,0.0,0.0,0.0,0.0,0.0,0.0,0.0,0.0,0.0,0.0,0.0,0.0,0.0,0.0,0.0,0.0,0.0,0.0,0.0,0.0,0.0,0.0,0.0,0.0,0.0,0.0,0.0,0.0,0.0,0.0,0.0,0.0,0.0,0.0,0.0,0.0,0.0,0.0,0.0,0.0,0.0,0.0,0.0,0.0,0.0,0.0,0.0,0.0,0.0,0.0,0.0,0.0,0.0,0.0,0.0,0.0,0.0,0.0,0.0,0.0,0.0,0.0,0.0,0.0,0.0,0.0,0.0,0.0,0.0,0.0,0.0,0.0,0.0,0.0,-0.389,0.0,-0.4736,0.0,-0.5313,-0.5489,0.0,0.0,0.0,0.0,0.0,0.0,0.0,0.0,0.0,0.0,0.0,0.0,0.0,0.0,0.0,0.0,0.0,0.0,0.0,0.0,0.0,0.0,0.0,0.0,0.0,0.0,0.0,0.0,0.0,0.0,0.0,0.0,0.0,0.0,0.0,0.0,0.0,0.0,0.0,0.0,0.0,0.0,0.0,0.0,0.0,0.0,0.0,0.0,0.0,0.0,0.0,0.0,0.0,0.0,0.0,0.0,0.0,0.0,0.0,0.0,0.0,0.0,0.0,0.0,0.0,0.0,0.0,0.0,0.0,0.0,0.0,0.0,0.0,0.0,0.0,0.0,0.0,0.0,0.0,0.0,0.0,0.0,0.0,0.0,0.0,0.0,0.0,0.0,0.0,0.0,0.0,0.0,0.0,0.0,0.0,0.0,0.0,0.0,0.0,0.0,0.0,0.0,0.0,0.0,0.0,0.0,0.0,0.0,-0.3899,-0.4482,-0.4846,-0.5223,-0.5591,-0.5697,-0.5831,0.0,0.0,0.0,0.0,0.0,0.0,0.0,0.0,0.0,0.0,0.0,0.0,0.0,0.0,0.0,0.0,0.0,0.0,0.0,0.0,0.0,0.0,0.0,0.0,0.0,0.0,0.0,0.0,0.0,0.0,0.0,0.0,0.0,0.0,0.0,0.0,0.0,0.0,0.0,0.0,0.0,0.0,0.0,0.0,0.0,0.0,0.0,0.0,0.0,0.0,0.0,0.0,0.0,0.0,0.0,0.0,0.0,0.0,0.0,0.0,0.0,0.0,0.0,0.0,0.0,0.0,0.0,0.0,0.0,0.0,0.0,0.0,0.0,0.0,0.0,0.0,0.0,0.0,0.0,0.0,0.0,0.0,0.0,0.0,0.0,0.0,0.0,0.0,0.0,0.0,0.0,0.0,0.0,0.0,0.0,0.0,0.0,0.0,0.0,0.0,0.0,0.0,0.0,0.0,0.0,0.0,0.0,0.0,0.0,-0.5141,-0.5546,-0.5832,-0.5935,-0.6233,-0.6445,0.0,0.0,0.0,0.0,0.0,0.0,0.0,0.0,0.0,0.0,0.0,0.0,0.0,0.0,0.0,0.0,0.0,0.0,0.0,0.0,0.0,0.0,0.0,0.0,0.0,0.0,0.0,0.0,0.0,0.0,0.0,0.0,0.0,0.0,0.0,0.0,0.0,0.0,0.0,0.0,0.0,0.0,0.0,0.0,0.0,0.0,0.0,0.0,0.0,0.0,0.0,0.0,0.0,0.0,0.0,0.0,0.0,0.0,0.0,0.0,0.0,0.0,0.0,0.0,0.0,0.0,0.0,0.0,0.0,0.0,0.0,0.0,0.0,0.0,0.0,0.0,0.0,0.0,0.0,0.0,0.0,0.0,0.0,0.0,0.0,0.0,0.0,0.0,0.0,0.0,0.0,0.0,0.0,0.0,0.0,0.0,0.0,0.0,0.0,0.0,0.0,0.0,0.0,0.0,0.0,0.0,0.0,0.0,0.0,-0.6074,-0.6168,-0.6243,-0.6297,-0.6738,-0.6906,-0.6802,0.0,0.0,0.0,0.0,0.0,0.0,0.0,0.0,0.0,0.0,0.0,0.0,0.0,0.0,0.0,0.0,0.0,0.0,0.0,0.0,0.0,0.0,0.0,0.0,0.0,0.0,0.0,0.0,0.0,0.0,0.0,0.0,0.0,0.0,0.0,0.0,0.0,0.0,0.0,0.0,0.0,0.0,0.0,0.0,0.0,0.0,0.0,0.0,0.0,0.0,0.0,0.0,0.0,0.0,0.0,0.0,0.0,0.0,0.0,0.0,0.0,0.0,0.0,0.0,0.0,0.0,0.0,0.0,0.0,0.0,0.0,0.0,0.0,0.0,0.0,0.0,0.0,0.0,0.0,0.0,0.0,0.0,0.0,0.0,0.0,0.0,0.0,0.0,0.0,0.0,0.0,0.0,0.0,0.0,0.0,0.0,0.0,0.0,0.0,0.0,0.0,0.0,0.0,0.0,0.0,0.0,0.0,0.0,-0.7185,-0.6736,-0.6531,-0.6763,-0.7188,-0.7237,0.0,0.0,0.0,0.0,0.0,0.0,0.0,0.0,0.0,0.0,0.0,0.0,0.0,0.0,0.0,0.0,0.0,0.0,0.0,0.0,0.0,0.0,0.0,0.0,0.0,0.0,0.0,0.0,0.0,0.0,0.0,0.0,0.0,0.0,0.0,0.0,0.0,0.0,0.0,0.0,0.0,0.0,0.0,0.0,0.0,0.0,0.0,0.0,0.0,0.0,0.0,0.0,0.0,0.0,0.0,0.0,0.0,0.0,0.0,0.0,0.0,0.0,0.0,0.0,0.0,0.0,0.0,0.0,0.0,0.0,0.0,0.0,0.0,0.0,0.0,0.0,0.0,0.0,0.0,0.0,0.0,0.0,0.0,0.0,0.0,0.0,0.0,0.0,0.0,0.0,0.0,0.0,0.0,0.0,0.0,0.0,0.0,0.0,0.0,0.0,0.0,0.0,0.0,0.0,0.0,0.0,0.0,0.0,0.0,-0.7185,-0.7241,-0.7325,-0.739,-0.7579,-0.7614,0.0,0.0,0.0,0.0,0.0,0.0,0.0,0.0,0.0,0.0,0.0,0.0,0.0,0.0,0.0,0.0,0.0,0.0,0.0,0.0,0.0,0.0,0.0,0.0,0.0,0.0,0.0,0.0,0.0,0.0,0.0,0.0,0.0,0.0,0.0,0.0,0.0,0.0,0.0,0.0,0.0,0.0,0.0,0.0,0.0,0.0,0.0,0.0,0.0,0.0,0.0,0.0,0.0,0.0,0.0,0.0,0.0,0.0,0.0,0.0,0.0,0.0,0.0,0.0,0.0,0.0,0.0,0.0,0.0,0.0,0.0,0.0,0.0,0.0,0.0,0.0,0.0,0.0,0.0,0.0,0.0,0.0,0.0,0.0,0.0,0.0,0.0,0.0,0.0,0.0,0.0,0.0,0.0,0.0,0.0,0.0,0.0,0.0,0.0,0.0,0.0,0.0,0.0,0.0,0.0,0.0,0.0,0.0,-0.7469,-0.7677,-0.7725,-0.7743,-0.7743,-0.7855,-0.7807,0.0,0.0,0.0,0.0,0.0,0.0,0.0,0.0,0.0,0.0,0.0,0.0,0.0,0.0,0.0,0.0,0.0,0.0,0.0,0.0,0.0,0.0,0.0,0.0,0.0,0.0,0.0,0.0,0.0,0.0,0.0,0.0,0.0,0.0,0.0,0.0,0.0,0.0,0.0,0.0,0.0,0.0,0.0,0.0,0.0,0.0,0.0,0.0,0.0,0.0,0.0,0.0,0.0,0.0,0.0,0.0,0.0,0.0,0.0,0.0,0.0,0.0,0.0,0.0,0.0,0.0,0.0,0.0,0.0,0.0,0.0,0.0,0.0,0.0,0.0,0.0,0.0,0.0,0.0,0.0,0.0,0.0,0.0,0.0,0.0,0.0,0.0,0.0,0.0,0.0,0.0,0.0,0.0,0.0,0.0,0.0,0.0,0.0,0.0,0.0,0.0,0.0,0.0,0.0,0.0,0.0,0.0,0.0,-0.7862,-0.8238,-0.8113,-0.7988,-0.7988,-0.7988,-0.7853,0.0,0.0,0.0,0.0,0.0,0.0,0.0,0.0,0.0,0.0,0.0,0.0,0.0,0.0,0.0,0.0,0.0,0.0,0.0,0.0,0.0,0.0,0.0,0.0,0.0,0.0,0.0,0.0,0.0,0.0,0.0,0.0,0.0,0.0,0.0,0.0,0.0,0.0,0.0,0.0,0.0,0.0,0.0,0.0,0.0,0.0,0.0,0.0,0.0,0.0,0.0,0.0,0.0,0.0,0.0,0.0,0.0,0.0,0.0,0.0,0.0,0.0,0.0,0.0,0.0,0.0,0.0,0.0,0.0,0.0,0.0,0.0,0.0,0.0,0.0,0.0,0.0,0.0,0.0,0.0,0.0,0.0,0.0,0.0,0.0,0.0,0.0,0.0,0.0,0.0,0.0,0.0,0.0,0.0,0.0,0.0,0.0,0.0,0.0,0.0,0.0,0.0,0.0,0.0,0.0,0.0,0.0,0.0,-0.7959,-0.8089,-0.8005,-0.7988,-0.7988,-0.7988,-0.785,0.0,0.0,0.0,0.0,0.0,0.0,0.0,0.0,0.0,0.0,0.0,0.0,0.0,0.0,0.0,0.0,0.0,0.0,0.0,0.0,0.0,0.0,0.0,0.0,0.0,0.0,0.0,0.0,0.0,0.0,0.0,0.0,0.0,0.0,0.0,0.0,0.0,0.0,0.0,0.0,0.0,0.0,0.0,0.0,0.0,0.0,0.0,0.0,-0.8247,0.0,0.0,0.0,0.0,0.0,0.0,0.0,0.0,0.0,0.0,0.0,0.0,0.0,0.0,0.0,0.0,0.0,0.0,0.0,0.0,0.0,0.0,0.0,0.0,0.0,0.0,0.0,0.0,0.0,0.0,0.0,0.0,0.0,0.0,0.0,0.0,0.0,0.0,0.0,0.0,0.0,0.0,0.0,0.0,0.0,0.0,0.0,0.0,0.0,0.0,0.0,0.0,0.0,0.0,0.0,0.0,0.0,0.0,0.0,-0.8072,-0.8143,-0.8025,-0.7988,-0.7988,-0.7988,-0.7853,0.0,0.0,0.0,0.0,0.0,0.0,0.0,0.0,0.0,0.0,0.0,0.0,0.0,0.0,0.0,0.0,0.0,0.0,0.0,0.0,0.0,0.0,0.0,0.0,0.0,0.0,0.0,0.0,0.0,0.0,0.0,0.0,0.0,0.0,0.0,0.0,0.0,0.0,0.0,0.0,0.0,0.0,0.0,0.0,0.0,0.0,0.0,0.0,0.0,0.0,0.0,0.0,0.0,0.0,0.0,0.0,0.0,0.0,0.0,0.0,0.0,0.0,0.0,0.0,0.0,0.0,0.0,0.0,0.0,0.0,0.0,0.0,0.0,0.0,0.0,0.0,0.0,0.0,0.0,0.0,0.0,0.0,0.0,0.0,0.0,0.0,0.0,0.0,0.0,0.0,0.0,0.0,0.0,0.0,0.0,0.0,0.0,0.0,0.0,0.0,0.0,0.0,0.0,0.0,0.0,0.0,0.0,-0.8106,-0.8052,-0.8225,-0.8106,-0.7988,-0.7988,-0.7988,-0.7899,-0.7658,0.0,0.0,0.0,0.0,0.0,0.0,0.0,0.0,0.0,0.0,0.0,0.0,0.0,0.0,0.0,0.0,0.0,0.0,0.0,0.0,0.0,0.0,0.0,0.0,0.0,0.0,0.0,0.0,0.0,0.0,0.0,0.0,0.0,0.0,0.0,0.0,0.0,0.0,-0.4867,-0.5663,0.0,0.0,0.0,0.0,0.0,0.0,0.0,0.0,-0.8881,0.0,0.0,0.0,0.0,0.0,0.0,0.0,0.0,0.0,0.0,0.0,0.0,0.0,0.0,0.0,0.0,0.0,0.0,0.0,0.0,0.0,0.0,0.0,0.0,0.0,0.0,0.0,0.0,0.0,0.0,0.0,0.0,0.0,0.0,0.0,0.0,0.0,0.0,0.0,0.0,0.0,0.0,0.0,0.0,0.0,0.0,0.0,0.0,0.0,0.0,0.0,0.0,0.0,0.0,0.0,0.0,-0.8022,-0.8002,-0.8002,-0.8025,-0.8005,-0.7988,-0.7988,-0.7988,-0.7948,-0.7897,0.0,0.0,0.0,0.0,0.0,0.0,0.0,0.0,0.0,0.0,0.0,0.0,0.0,0.0,0.0,0.0,0.0,0.0,0.0,0.0,0.0,0.0,0.0,0.0,0.0,0.0,0.0,0.0,0.0,0.0,0.0,0.0,0.0,0.0,0.0,0.0,0.0,0.0,0.0,-0.6381,-0.7021,0.0,0.0,0.0,0.0,0.0,0.0,0.0,0.0,-0.9427,0.0,0.0,0.0,0.0,0.0,0.0,0.0,0.0,0.0,0.0,0.0,0.0,0.0,0.0,0.0,0.0,0.0,0.0,0.0,0.0,0.0,0.0,0.0,0.0,0.0,0.0,0.0,0.0,0.0,0.0,0.0,0.0,0.0,0.0,0.0,0.0,0.0,0.0,0.0,0.0,0.0,0.0,0.0,0.0,0.0,0.0,0.0,0.0,0.0,0.0,0.0,0.0,0.0,0.0,0.0,-0.7913,-0.7951,-0.7988,-0.7988,-0.7988,-0.7988,-0.7988,-0.7911,-0.7963,0.0,0.0,0.0,0.0,0.0,0.0,0.0,0.0,0.0,0.0,0.0,0.0,0.0,0.0,0.0,0.0,0.0,0.0,0.0,0.0,0.0,0.0,0.0,0.0,0.0,0.0,0.0,0.0,0.0,0.0,0.0,0.0,0.0,0.0,0.0,0.0,0.0,0.0,0.0,0.0,-0.6924,-0.7397,-0.7943,0.0,0.0,0.0,0.0,0.0,0.0,-0.9161,-0.9488,0.0,0.0,0.0,0.0,0.0,0.0,0.0,0.0,0.0,0.0,0.0,0.0,0.0,0.0,0.0,0.0,0.0,0.0,0.0,0.0,0.0,0.0,0.0,0.0,0.0,0.0,0.0,0.0,0.0,0.0,0.0,0.0,0.0,0.0,0.0,0.0,0.0,0.0,0.0,0.0,0.0,0.0,0.0,0.0,0.0,0.0,0.0,0.0,0.0,0.0,0.0,0.0,0.0,0.0,0.0,-0.7811,-0.7914,-0.7988,-0.7988,-0.7988,-0.7988,-0.7985,-0.7892,-0.7982,0.0,0.0,0.0,0.0,0.0,0.0,0.0,0.0,0.0,0.0,0.0,0.0,0.0,0.0,0.0,0.0,0.0,0.0,0.0,0.0,0.0,0.0,0.0,0.0,0.0,0.0,0.0,0.0,0.0,0.0,0.0,0.0,0.0,0.0,0.0,0.0,0.0,0.0,0.0,0.0,0.0,-0.7742,-0.8141,-0.8451,0.0,0.0,0.0,0.0,-0.9058,-0.9241,0.0,0.0,0.0,0.0,0.0,0.0,0.0,0.0,0.0,0.0,0.0,0.0,0.0,0.0,0.0,0.0,0.0,0.0,0.0,0.0,0.0,0.0,0.0,0.0,0.0,0.0,0.0,0.0,0.0,0.0,0.0,0.0,0.0,0.0,0.0,0.0,0.0,0.0,0.0,0.0,0.0,0.0,0.0,0.0,0.0,0.0,0.0,0.0,0.0,0.0,0.0,0.0,0.0,0.0,0.0,0.0,-0.7811,-0.7911,-0.7988,-0.7988,-0.7988,-0.7988,-0.7985,-0.7889,-0.7934,0.0,0.0,0.0,0.0,0.0,0.0,0.0,0.0,0.0,0.0,0.0,0.0,0.0,0.0,0.0,0.0,0.0,0.0,0.0,0.0,0.0,0.0,0.0,0.0,0.0,0.0,0.0,0.0,0.0,0.0,0.0,0.0,0.0,0.0,0.0,0.0,0.0,0.0,0.0,0.0,0.0,-0.8147,-0.8555,-0.8747,-0.8886,0.0,0.0,-0.9047,-0.9596,-0.9583,0.0,0.0,0.0,0.0,0.0,0.0,0.0,0.0,0.0,0.0,0.0,0.0,0.0,0.0,0.0,0.0,0.0,0.0,0.0,0.0,0.0,0.0,0.0,0.0,0.0,0.0,0.0,0.0,0.0,0.0,0.0,0.0,0.0,0.0,0.0,0.0,0.0,0.0,0.0,0.0,0.0,0.0,0.0,0.0,0.0,0.0,0.0,0.0,0.0,0.0,0.0,0.0,0.0,0.0,0.0,-0.7499,-0.7567,-0.779,-0.786,-0.7909,-0.7864,-0.7909,-0.786,-0.7682,-0.7669,0.0,0.0,0.0,0.0,0.0,0.0,0.0,0.0,0.0,0.0,0.0,0.0,0.0,0.0,0.0,0.0,0.0,0.0,0.0,0.0,0.0,0.0,0.0,0.0,0.0,0.0,0.0,0.0,0.0,0.0,0.0,0.0,0.0,0.0,0.0,0.0,0.0,0.0,0.0,0.0,0.0,0.0,-0.875,-0.8841,0.0,0.0,0.0,-0.9047,-0.9544,0.0,0.0,0.0,0.0,0.0,0.0,0.0,0.0,0.0,0.0,0.0,0.0,0.0,0.0,0.0,0.0,0.0,0.0,0.0,0.0,0.0,0.0,0.0,0.0,0.0,0.0,0.0,0.0,0.0,0.0,0.0,0.0,0.0,0.0,0.0,0.0,0.0,0.0,0.0,0.0,0.0,0.0,0.0,0.0,0.0,0.0,0.0,0.0,0.0,0.0,0.0,0.0,0.0,0.0,0.0,0.0,0.0,-0.7377,-0.7624,-0.7756,-0.776,-0.776,-0.776,-0.7753,-0.7509,0.0,0.0,0.0,0.0,0.0,0.0,0.0,0.0,0.0,0.0,0.0,0.0,0.0,0.0,0.0,0.0,0.0,0.0,0.0,0.0,0.0,0.0,0.0,0.0,0.0,0.0,0.0,-0.6006,0.0,0.0,0.0,0.0,0.0,0.0,0.0,0.0,0.0,0.0,0.0,0.0,0.0,0.0,-0.8381,-0.8841,-0.8937,-0.8937,0.0,0.0,-0.9158,-0.9434,-0.962,-0.9937,0.0,0.0,0.0,0.0,0.0,0.0,0.0,0.0,0.0,0.0,0.0,0.0,0.0,0.0,0.0,0.0,0.0,0.0,0.0,0.0,0.0,0.0,0.0,0.0,0.0,0.0,0.0,0.0,0.0,0.0,0.0,0.0,0.0,0.0,0.0,0.0,0.0,0.0,0.0,0.0,0.0,0.0,0.0,0.0,0.0,0.0,0.0,0.0,0.0,0.0,0.0,0.0,0.0,0.0,0.0,-0.7422,-0.7533,-0.7614,-0.7614,-0.7614,-0.7614,-0.7611,-0.7458,-0.7503,0.0,0.0,0.0,0.0,0.0,0.0,0.0,0.0,0.0,0.0,0.0,0.0,0.0,0.0,0.0,0.0,0.0,0.0,0.0,0.0,0.0,0.0,0.0,0.0,0.0,0.0,0.0,0.0,0.0,0.0,0.0,0.0,0.0,0.0,0.0,0.0,0.0,0.0,0.0,0.0,0.0,-0.8594,-0.8841,-0.8937,-0.8937,0.0,0.0,-0.9434,-0.9706,-1.0062,-1.0478,-1.0811,0.0,0.0,0.0,0.0,0.0,0.0,0.0,0.0,0.0,0.0,0.0,0.0,0.0,0.0,0.0,0.0,0.0,0.0,0.0,0.0,0.0,0.0,0.0,0.0,0.0,0.0,0.0,0.0,0.0,0.0,0.0,0.0,0.0,0.0,0.0,0.0,0.0,0.0,0.0,0.0,0.0,0.0,0.0,0.0,0.0,0.0,0.0,0.0,0.0,0.0,0.0,0.0,0.0,-0.7143,-0.7231,-0.7383,-0.7461,-0.7504,-0.7458,-0.7458,-0.7508,-0.7305,-0.7231,0.0,0.0,0.0,0.0,0.0,0.0,0.0,0.0,0.0,0.0,0.0,0.0,0.0,0.0,0.0,0.0,0.0,0.0,0.0,0.0,0.0,0.0,0.0,0.0,0.0,0.0,0.0,0.0,-0.63,-0.6337,-0.6422,0.0,0.0,0.0,0.0,0.0,0.0,0.0,0.0,0.0,0.0,-0.8699,-0.891,-0.8937,0.0,0.0,-0.9158,-0.9485,-0.9761,-1.0019,-1.0447,-1.1049,-1.1589,0.0,0.0,0.0,0.0,0.0,0.0,0.0,0.0,0.0,0.0,0.0,0.0,0.0,0.0,0.0,0.0,0.0,0.0,0.0,0.0,0.0,0.0,0.0,0.0,0.0,0.0,0.0,0.0,0.0,0.0,0.0,0.0,0.0,0.0,0.0,0.0,0.0,0.0,0.0,0.0,0.0,0.0,0.0,0.0,0.0,0.0,0.0,0.0,0.0,0.0,0.0,0.0,-0.6937,-0.7034,-0.7227,-0.7302,-0.7299,-0.7302,-0.7302,-0.7295,-0.7156,-0.6987,0.0,0.0,0.0,0.0,0.0,0.0,0.0,0.0,0.0,0.0,0.0,0.0,0.0,0.0,0.0,0.0,0.0,0.0,0.0,0.0,0.0,0.0,0.0,0.0,0.0,0.0,0.0,0.0,-0.6337,-0.6422,-0.6525,0.0,0.0,0.0,0.0,0.0,0.0,0.0,0.0,0.0,0.0,-0.8713,-0.8854,-0.8937,-0.8937,-0.8937,-0.9268,-0.9596,-0.9926,-1.0227,-1.0724,-1.145,0.0,0.0,0.0,0.0,0.0,0.0,0.0,0.0,0.0,0.0,0.0,0.0,0.0,0.0,0.0,0.0,0.0,0.0,0.0,0.0,0.0,0.0,0.0,0.0,0.0,0.0,0.0,0.0,0.0,0.0,-0.3763,0.0,0.0,0.0,0.0,0.0,0.0,0.0,0.0,0.0,0.0,0.0,0.0,0.0,0.0,0.0,0.0,0.0,0.0,0.0,0.0,0.0,0.0,-0.6883,-0.6889,-0.7031,-0.7102,-0.7105,-0.7102,-0.7105,-0.7102,-0.6964,-0.6889,-0.6876,0.0,0.0,0.0,0.0,0.0,0.0,0.0,0.0,0.0,0.0,0.0,0.0,0.0,0.0,0.0,0.0,0.0,0.0,0.0,0.0,0.0,0.0,0.0,0.0,0.0,0.0,-0.6303,-0.6422,-0.6566,0.0,0.0,0.0,0.0,0.0,0.0,0.0,0.0,0.0,0.0,-0.8542,-0.8598,-0.8841,-0.8937,-0.8937,-0.8937,-0.943,-0.9926,-1.0257,-1.0871,-1.1502,0.0,0.0,0.0,0.0,0.0,0.0,0.0,0.0,0.0,0.0,0.0,0.0,0.0,0.0,0.0,0.0,0.0,0.0,0.0,0.0,0.0,0.0,0.0,0.0,0.0,0.0,0.0,-0.5233,-0.491,0.0,0.0,0.0,0.0,0.0,0.0,0.0,0.0,0.0,0.0,0.0,-0.5082,-0.5211,0.0,0.0,0.0,0.0,0.0,0.0,0.0,0.0,0.0,0.0,0.0,0.0,-0.6725,-0.6879,-0.6933,-0.7001,-0.7092,-0.7095,-0.7095,-0.7095,-0.696,-0.6831,-0.663,0.0,0.0,0.0,0.0,0.0,0.0,0.0,0.0,0.0,0.0,0.0,0.0,0.0,0.0,0.0,0.0,0.0,0.0,0.0,0.0,0.0,0.0,0.0,0.0,0.0,-0.6337,0.0,0.0,0.0,0.0,0.0,0.0,0.0,0.0,0.0,0.0,0.0,-0.837,-0.8469,-0.8659,-0.8821,-0.8871,-0.8937,-0.8995,0.0,0.0,0.0,0.0,0.0,0.0,0.0,0.0,0.0,0.0,0.0,0.0,0.0,0.0,-1.5825,-1.5825,-1.5825,-1.5825,-1.5825,0.0,0.0,0.0,0.0,0.0,0.0,0.0,0.0,0.0,0.0,0.0,0.0,0.0,0.0,-0.5311,0.0,-0.4946,0.0,0.0,0.0,0.0,0.0,0.0,0.0,0.0,-0.5418,-0.5605,-0.5766,-0.5899,-0.5987,0.0,-0.635,-0.6169,0.0,0.0,0.0,0.0,0.0,0.0,0.0,0.0,-0.6569,-0.6763,-0.6824,-0.6895,-0.694,-0.6943,-0.6987,-0.694,-0.6848,-0.6651,-0.6446,-0.6351,-0.63,0.0,0.0,0.0,0.0,0.0,0.0,0.0,0.0,0.0,0.0,0.0,0.0,0.0,0.0,0.0,0.0,0.0,0.0,0.0,0.0,0.0,0.0,0.0,-0.6433,0.0,0.0,0.0,0.0,0.0,0.0,0.0,0.0,0.0,-0.7801,-0.8109,-0.8347,-0.8401,-0.8581,-0.8723,-0.8774,0.0,0.0,0.0,0.0,0.0,0.0,0.0,-1.2791,-1.367,-1.4366,-1.4932,-1.545,-1.5645,-1.5787,-1.5931,0.0,0.0,-1.5825,-1.5825,-1.5825,-1.5825,-1.5825,-1.5825,-1.5825,-1.5825,-1.5832,0.0,0.0,0.0,0.0,0.0,0.0,0.0,0.0,-0.493,-0.5067,0.0,-0.4979,0.0,0.0,0.0,0.0,0.0,0.0,0.0,0.0,-0.5937,-0.6213,-0.6384,-0.6384,-0.6384,-0.6428,-0.6697,-0.6647,-0.629,-0.6234,0.0,0.0,0.0,0.0,0.0,0.0,-0.6508,-0.6481,-0.662,-0.6698,-0.6705,-0.6705,-0.6702,-0.6695,-0.6552,-0.645,-0.6313,-0.63,-0.63,-0.63,-0.63,0.0,0.0,0.0,0.0,0.0,0.0,0.0,0.0,0.0,0.0,0.0,0.0,0.0,0.0,0.0,0.0,0.0,0.0,0.0,0.0,-0.6433,0.0,0.0,0.0,0.0,0.0,0.0,0.0,0.0,0.0,0.0,-0.7824,-0.796,-0.8102,-0.8255,0.0,0.0,0.0,0.0,-0.8647,-0.892,-0.9384,-1.0108,-1.1196,-1.1851,-1.2615,-1.3679,0.0,0.0,-1.6103,-1.6312,-1.6239,-1.6295,-1.6012,-1.5825,-1.5825,-1.5825,-1.5825,-1.5825,-1.5825,-1.5825,-1.5825,-1.5825,-1.5879,-0.1027,0.0,0.0,0.0,0.0,-0.374,-0.4238,-0.4749,-0.4937,-0.4986,-0.4899,-0.4841,0.0,0.0,0.0,0.0,0.0,0.0,-0.5777,-0.5984,-0.6192,-0.6343,-0.6428,-0.6609,-0.67,-0.67,-0.6925,-0.686,-0.6587,-0.6579,-0.6428,-0.6183,0.0,0.0,0.0,0.0,-0.6409,-0.6508,-0.6555,-0.659,-0.6698,-0.6702,-0.6651,-0.6539,-0.6535,-0.6446,-0.6306,-0.63,-0.63,-0.63,-0.63,0.0,0.0,0.0,0.0,0.0,0.0,0.0,0.0,0.0,0.0,0.0,0.0,0.0,0.0,0.0,0.0,0.0,0.0,0.0,-0.6443,-0.6546,-0.6695,0.0,0.0,0.0,0.0,0.0,0.0,0.0,0.0,0.0,-0.7911,-0.8109,-0.8218,0.0,0.0,-0.8435,-0.8476,-0.8643,-0.8961,-0.938,0.0,0.0,0.0,-1.2889,-1.3712,-1.4583,-1.5171,-1.5754,-1.6232,-1.6104,-1.5959,-1.5959,-1.5892,-1.5825,-1.5825,-1.5825,-1.5825,-1.5825,-1.5825,-1.5825,-1.5825,-1.5927,-1.6076,-0.0628,-0.1076,-0.1615,-0.2242,-0.2825,-0.3314,-0.3717,-0.4121,-0.4431,-0.4532,-0.4478,-0.4617,-0.4704,-0.4709,-0.4709,0.0,0.0,0.0,-0.5915,-0.6213,-0.6343,-0.652,-0.6697,-0.6833,-0.6925,-0.6918,-0.6997,-0.6893,-0.6698,-0.6637,-0.6532,-0.6306,0.0,0.0,-0.63,-0.63,-0.634,-0.6422,-0.6429,-0.647,-0.6522,-0.6525,-0.6521,-0.6433,-0.6429,-0.6388,-0.6303,-0.63,-0.63,-0.63,-0.63,-0.63,0.0,0.0,0.0,0.0,0.0,0.0,0.0,0.0,0.0,0.0,0.0,-0.63,0.0,0.0,0.0,0.0,-0.6439,-0.6491,-0.6641,-0.6787,0.0,0.0,0.0,0.0,0.0,0.0,0.0,-0.7801,-0.7865,-0.7884,-0.7978,-0.822,-0.8329,-0.8332,-0.8405,-0.8508,-0.8611,0.0,-0.9185,-0.9591,-1.0353,-1.1263,-1.2329,-1.3134,-1.3935,-1.4942,-1.5439,-1.5803,-1.6044,-1.5939,-1.5832,-1.5825,-1.5825,-1.5825,-1.5825,-1.5825,-1.5825,-1.5825,-1.5825,-1.5825,-1.5825,-1.6028,-1.619,-0.0404,-0.0448,-0.1076,-0.166,-0.2154,-0.2599,-0.2913,-0.3183,-0.3626,-0.3803,-0.3844,-0.4255,-0.4433,-0.4506,-0.4845,0.0,-0.5201,-0.5383,-0.5799,-0.6384,-0.6384,-0.665,-0.7051,-0.7085,-0.7078,-0.7075,-0.6937,-0.6831,-0.6678,-0.6579,-0.6439,-0.6303,-0.63,-0.63,-0.63,-0.63,-0.63,-0.63,-0.63,-0.63,-0.63,-0.63,-0.63,-0.63,-0.63,-0.63,-0.63,-0.63,-0.63,-0.63,-0.63,-0.63,-0.63,0.0,0.0,0.0,0.0,0.0,0.0,0.0,0.0,0.0,0.0,0.0,0.0,0.0,0.0,0.0,-0.6624,0.0,-0.6873,-0.7024,0.0,0.0,0.0,-0.7614,-0.7617,-0.774,-0.7828,-0.7831,0.0,0.0,-0.7988,0.0,-0.8432,-0.8432,-0.8432,-0.8531,-0.8825,-0.9042,-0.9335,-0.9698,-1.0372,-1.1247,-1.2319,-1.2991,-1.3779,-1.4888,-1.5309,-1.5607,-1.575,-1.5791,-1.5825,-1.5825,-1.5771,-1.5785,-1.5785,-1.5745,-1.5711,-1.5732,-1.5718,-1.5785,-1.5772,-1.5934,-1.6113,-0.0224,-0.0404,-0.0583,-0.0987,-0.1615,-0.1928,-0.2287,-0.2693,-0.3004,-0.3226,-0.3405,-0.3655,-0.3967,-0.4206,-0.466,-0.4966,-0.5203,-0.538,-0.57,-0.6169,-0.6343,-0.6564,-0.6877,-0.6944,-0.6933,-0.6923,-0.6827,-0.6675,-0.6573,-0.6532,-0.6439,-0.6306,-0.63,-0.63,-0.63,-0.63,-0.63,-0.63,-0.63,-0.63,-0.63,-0.63,-0.63,-0.63,-0.63,-0.63,-0.63,-0.63,-0.63,-0.63,-0.63,-0.63,-0.63,-0.63,0.0,0.0,0.0,0.0,0.0,0.0,0.0,0.0,0.0,-0.63,-0.63,0.0,-0.6477,0.0,-0.6719,-0.6846,-0.6886,-0.7163,0.0,0.0,-0.7604,-0.7763,-0.7763,-0.7892,-0.7938,-0.7934,-0.7968,-0.7988,-0.7988,-0.8233,-0.8482,-0.8676,-0.8676,-0.8829,-0.9084,-0.9331,-0.9727,-1.0413,-1.0998,-1.178,-1.2759,-1.3727,-1.4448,-1.4987,-1.5309,-1.554,-1.5778,-1.5825,-1.5825,-1.5812,-1.5638,-1.5518,-1.5498,-1.5324,-1.519,-1.5184,-1.5344,-1.5498,-1.5498,-1.5691,-1.5822,-0.009,-0.0224,-0.0359,-0.0628,-0.0987,-0.1436,-0.175,-0.2064,-0.2422,-0.2645,-0.278,-0.3138,-0.3518,-0.3919,-0.4358,-0.4664,-0.4842,-0.5208,-0.5565,-0.5824,-0.6084,-0.6269,-0.6476,-0.661,-0.6694,-0.669,-0.6627,-0.6596,-0.6515,-0.645,-0.6375,-0.63,-0.63,-0.63,-0.63,-0.63,-0.63,-0.63,-0.63,-0.63,-0.63,-0.63,-0.63,-0.63,-0.63,-0.63,-0.63,-0.63,-0.63,-0.63,-0.63,-0.63,-0.63,-0.63,-0.63,0.0,0.0,0.0,0.0,0.0,0.0,0.0,0.0,0.0,0.0,0.0,-0.6644,0.0,-0.6846,0.0,-0.698,-0.7292,-0.7475,-0.7475,-0.7736,-0.786,-0.7864,-0.7938,-0.7988,-0.7988,-0.7988,-0.7988,-0.7988,-0.8336,-0.8627,-0.8775,-0.9126,-0.9373,-0.9575,-0.9969,-1.0458,-1.09,-1.1634,-1.2419,-1.3346,-1.4262,-1.4848,-1.4918,-1.5175,-1.5458,-1.5471,-1.5444,-1.5444,-1.5431,-1.5304,-1.5204,-1.5197,-1.5084,-1.5015,-1.5015,-1.4977,-1.505,-1.5216,-1.5469,-1.5688,0.0,0.0,-0.0269,-0.0359,-0.0404,-0.0987,-0.1256,-0.1346,-0.1885,-0.2155,-0.2244,-0.2645,-0.3093,-0.354,-0.3987,-0.4204,-0.4326,-0.4949,-0.5334,-0.5483,-0.5695,-0.5893,-0.6037,-0.6261,-0.6334,-0.6328,-0.6354,-0.6404,-0.6441,-0.6318,-0.6257,-0.63,-0.63,-0.63,-0.63,-0.63,-0.63,-0.63,-0.63,-0.63,-0.63,-0.63,-0.63,-0.63,-0.63,-0.63,-0.63,-0.63,-0.63,-0.63,-0.63,-0.63,-0.63,-0.63,-0.63,0.0,-0.63,0.0,0.0,0.0,0.0,0.0,0.0,0.0,0.0,-0.663,-0.6793,-0.69,-0.7024,-0.7095,-0.7095,-0.74,-0.758,-0.7607,-0.7796,-0.7965,-0.7985,-0.7988,-0.7988,-0.7988,-0.7988,-0.7988,-0.7988,-0.8478,-0.8775,-0.8874,-0.9472,-0.9908,-1.0083,-1.0636,-1.1145,-1.1292,-1.2198,-1.3021,-1.3699,-1.4452,-1.4867,-1.4651,-1.4976,-1.5251,-1.5037,-1.5042,-1.5028,-1.5028,-1.4995,-1.4903,-1.4955,-1.4914,-1.4881,-1.4847,-1.4636,-1.4583,-1.4861,-1.5185,-1.5455,0.0,0.0,-0.0045,-0.009,-0.009,-0.0448,-0.0673,-0.0852,-0.1346,-0.1795,-0.22,-0.2467,-0.2735,-0.3047,-0.3315,-0.3682,-0.4233,-0.4361,-0.4698,-0.5189,-0.5401,-0.5599,-0.5785,-0.5924,-0.5991,-0.5981,-0.5853,-0.5866,-0.6015,-0.5993,-0.6099,-0.6296,-0.63,-0.63,-0.63,0.0,0.0,0.0,-0.63,-0.63,-0.63,-0.63,-0.63,-0.63,-0.63,0.0,-0.63,-0.63,-0.63,-0.63,-0.63,0.0,0.0,0.0,0.0,0.0,0.0,0.0,0.0,0.0,0.0,0.0,-0.6573,-0.6607,-0.6532,-0.6725,-0.6903,-0.7041,-0.7082,-0.7095,-0.7098,-0.7302,-0.7465,-0.7594,-0.7753,-0.7899,-0.7971,-0.7985,-0.7988,-0.7988,-0.7988,-0.7988,-0.8024,-0.8482,-0.8772,-0.8806,-0.9472,-0.996,-1.0057,-1.0697,-1.1336,-1.1824,-1.2528,-1.3125,-1.3508,-1.4041,-1.4376,-1.4359,-1.4721,-1.5017,-1.495,-1.4981,-1.5001,-1.4981,-1.477,-1.4603,-1.4603,-1.4422,-1.4289,-1.4255,-1.4215,-1.4255,-1.4536,-1.4618,-1.4676,0.0,0.0,0.0,0.0,0.0,-0.0135,-0.0269,-0.0359,-0.0852,-0.1346,-0.184,-0.2064,-0.2287,-0.2553,-0.2884,-0.3205,-0.3516,-0.3949,-0.4261,-0.4543,-0.4871,-0.5086,-0.5192,-0.5368,-0.5531,-0.561,-0.5593,-0.5637,-0.575,-0.575,-0.5867,-0.6099,-0.6099,-0.6177,-0.63,-0.63,-0.63,-0.63,-0.63,-0.63,-0.63,-0.63,-0.63,-0.63,0.0,0.0,0.0,0.0,0.0,0.0,0.0,0.0,0.0,0.0,0.0,-0.63,-0.63,-0.63,-0.63,-0.63,-0.6361,-0.6504,-0.6681,-0.681,-0.68,-0.6946,-0.7018,-0.7088,-0.7095,-0.7095,-0.7102,-0.7282,-0.745,-0.7482,-0.7617,-0.774,-0.7807,-0.7773,-0.7824,-0.7821,-0.7776,-0.7821,-0.7821,-0.8249,-0.8534,-0.8583,-0.9264,-0.9766,-0.9888,-1.0532,-1.1255,-1.1952,-1.2552,-1.3061,-1.3332,-1.3753,-1.4033,-1.4066,-1.4338,-1.4551,-1.4556,-1.4573,-1.4536,-1.4522,-1.4402,-1.4309,-1.4295,-1.4182,-1.4088,-1.4088,-1.4088,-1.4122,-1.4275,-1.4338,-1.4433,0.0,0.0,0.0,0.0,0.0,0.0,0.0,-0.0045,0.0,0.0,0.0,-0.157,-0.1836,-0.2095,-0.2454,-0.2683,-0.2792,-0.35,-0.3839,-0.3835,-0.4275,-0.4512,-0.4587,-0.4813,-0.5004,-0.5124,-0.5323,-0.5482,-0.5482,-0.5521,-0.5634,-0.5825,-0.5825,-0.5983,-0.6219,-0.6296,-0.63,-0.63,-0.63,-0.63,-0.63,-0.63,-0.63,-0.63,-0.63,-0.63,-0.63,-0.63,-0.63,-0.63,-0.63,-0.63,-0.63,-0.63,-0.63,-0.63,-0.63,-0.63,-0.63,-0.63,-0.6371,-0.6542,-0.6793,-0.697,-0.7088,-0.7095,-0.7095,-0.7095,-0.7095,-0.7095,-0.7098,-0.7251,-0.7343,-0.7412,-0.7485,-0.757,-0.7597,-0.7597,-0.7614,-0.7597,-0.7614,-0.76,-0.7611,-0.7987,-0.8243,-0.8387,-0.8933,-0.9402,-0.9537,-1.0233,-1.1159,-1.1944,-1.2363,-1.2717,-1.3074,-1.3375,-1.3647,-1.3636,-1.3915,-1.409,-1.407,-1.4082,-1.4088,-1.4135,-1.4088,-1.4095,-1.4095,-1.4041,-1.4008,-1.4008,-1.3961,-1.3935,-1.3935,-1.4081,-1.4234,0.0,0.0,0.0,0.0,0.0,0.0,0.0,0.0,-0.0314,-0.0583,-0.0807,-0.1076,-0.1287,-0.1527,-0.1827,-0.217,-0.2628,-0.2782,-0.3023,0.0,-0.3781,-0.4012,-0.4194,-0.4387,-0.4499,-0.454,-0.4737,-0.4932,-0.5085,-0.5243,-0.5437,-0.5637,-0.5634,-0.5754,-0.5941,-0.618,-0.63,-0.63,-0.63,-0.63,-0.63,-0.63,-0.63,-0.63,-0.63,-0.63,-0.63,-0.63,-0.63,-0.63,-0.63,-0.63,-0.63,-0.63,-0.63,-0.63,-0.63,-0.63,-0.63,-0.63,-0.6419,-0.6651,-0.69,-0.7078,-0.7092,-0.7095,-0.7095,-0.7095,-0.7095,-0.7095,-0.7098,-0.7122,-0.7231,-0.7346,-0.7436,-0.7455,-0.7567,-0.758,-0.7577,-0.7573,-0.7597,-0.7587,-0.757,-0.7854,-0.8077,-0.8279,-0.8567,-0.8926,-0.9283,-1.0025,-1.101,-1.1798,-1.1961,-1.2165,-1.262,-1.284,-1.2997,-1.3169,-1.3517,-1.376,-1.376,-1.3915,-1.4041,-1.4062,-1.4021,-1.4035,-1.4041,-1.3874,-1.37,-1.3653,-1.3554,-1.3394,-1.34,-1.342,-1.3541,0.0,0.0,0.0,0.0,0.0,0.0,0.0,0.0,-0.0133,-0.0311,-0.0537,-0.0798,-0.1009,-0.1216,-0.1442,-0.1742,-0.2073,-0.2286,-0.2576,-0.2902,-0.3137,-0.345,-0.3763,-0.3839,-0.3992,-0.4231,-0.4311,-0.4465,-0.4657,-0.4771,-0.4968,-0.5282,-0.5482,-0.5676,-0.575,-0.5983,-0.6099,-0.6099,-0.6219,-0.63,-0.63,-0.63,-0.63,-0.63,-0.63,-0.63,-0.63,-0.63,-0.63,-0.63,-0.63,-0.63,-0.63,-0.63,-0.63,-0.63,-0.63,-0.63,-0.63,-0.6371,-0.6511,-0.6685,-0.6898,-0.7014,-0.7092,-0.7095,-0.7095,-0.7095,-0.7095,-0.7095,-0.7095,-0.7095,-0.7125,-0.7238,-0.7244,-0.7275,-0.7291,-0.7304,-0.735,-0.7304,-0.7304,-0.735,-0.7307,-0.758,-0.7762,-0.7894,-0.8166,-0.8534,-0.882,-0.9325,-0.9975,-1.0805,-1.1256,-1.1592,-1.1974,-1.2322,-1.2583,-1.2839,-1.3179,-1.337,-1.3471,-1.364,-1.3657,-1.3606,-1.3614,-1.3607,-1.3621,-1.3473,-1.3387,-1.336,-1.3327,-1.322,-1.32,-1.3086,-1.3223,0.0,0.0,0.0,0.0,0.0,0.0,0.0,0.0,0.0,-0.0131,-0.0308,-0.0522,-0.0732,-0.0855,-0.1075,-0.1299,-0.1572,-0.1861,-0.2118,-0.2354,-0.255,-0.2863,-0.3214,-0.3251,-0.3448,-0.3804,-0.3882,-0.4036,-0.419,-0.4268,-0.4501,-0.4888,-0.5243,-0.5482,-0.5476,-0.5712,-0.5825,-0.5864,-0.6064,-0.6219,-0.63,-0.63,-0.63,-0.63,-0.63,-0.63,-0.63,-0.63,-0.63,-0.63,-0.63,-0.63,-0.63,-0.63,-0.63,-0.63,-0.63,-0.63,-0.6306,-0.6433,-0.6579,-0.6688,-0.6841,-0.6947,-0.7075,-0.7095,-0.7095,-0.7095,-0.7095,-0.7095,-0.7095,-0.7095,-0.7095,-0.7095,-0.7095,-0.7105,-0.7098,-0.7095,-0.7095,-0.7095,-0.7095,-0.7105,-0.7139,-0.7279,-0.7429,-0.7569,-0.7852,-0.8201,-0.846,-0.8684,-0.9078,-0.9689,-1.0467,-1.1079,-1.1235,-1.1701,-1.2142,-1.2445,-1.2674,-1.2843,-1.3022,-1.314,-1.3197,-1.318,-1.32,-1.326,-1.3227,-1.3146,-1.312,-1.31,-1.3013,-1.2966,-1.2939,-1.2831,-1.2905,0.0,0.0,0.0,0.0,0.0,0.0,0.0,0.0,0.0,0.0,0.0,-0.0338,-0.0418,-0.041,-0.0652,-0.0965,-0.1303,-0.1337,-0.161,-0.1964,-0.2158,-0.2273,-0.2392,-0.2705,-0.2863,-0.2981,-0.3292,-0.3487,-0.3602,-0.3958,-0.4233,-0.446,-0.4849,-0.504,-0.5079,-0.5431,-0.5631,-0.5634,-0.5825,-0.6057,-0.6257,-0.63,-0.63,-0.63,-0.63,-0.63,-0.63,-0.63,-0.63,-0.63,-0.63,-0.63,-0.63,-0.63,-0.63,-0.63,-0.63,-0.63,-0.6306,-0.6429,-0.6573,-0.6688,-0.6834,-0.698,-0.7071,-0.7095,-0.7095,-0.7095,-0.7095,-0.7095,-0.7095,-0.7095,-0.7095,-0.7095,-0.7095,-0.7095,-0.7095,-0.7095,-0.7095,-0.7095,-0.7095,-0.7095,-0.7095,-0.7143,-0.7228,-0.7394,-0.7694,-0.7939,-0.8142,-0.8404,-0.863,-0.9048,-0.9637,-1.0404,-1.0983,-1.1181,-1.1455,-1.1922,-1.208,-1.2208,-1.2394,-1.2683,-1.2936,-1.2838,-1.3015,-1.3074,-1.308,-1.3006,-1.2831,-1.2804,-1.2632,-1.2425,-1.2398,-1.2398,-1.2567,0.0,0.0,0.0,0.0,0.0,0.0,0.0,0.0,0.0,0.0,0.0,-0.0122,-0.0203,-0.0284,-0.0441,-0.0634,-0.0904,-0.0904,-0.11,-0.1533,-0.1649,-0.1805,-0.2003,-0.2161,-0.2316,-0.247,-0.2744,-0.294,-0.3137,-0.3489,-0.3802,-0.4027,-0.4248,-0.4408,-0.4596,-0.4911,-0.5098,-0.5104,-0.5475,-0.5705,-0.5831,-0.6136,-0.63,-0.63,-0.63,-0.63,-0.63,-0.63,-0.63,-0.63,-0.63,-0.63,-0.63,-0.63,-0.63,-0.63,-0.63,-0.63,-0.63,-0.6354,-0.645,-0.6596,-0.6705,-0.6858,-0.696,-0.7048,-0.7095,-0.7095,-0.7095,-0.7095,-0.7095,-0.7095,-0.7095,-0.7095,-0.7095,-0.7095,-0.7095,-0.7095,-0.7095,-0.7095,-0.7095,-0.7095,-0.7095,-0.7095,-0.7105,-0.7178,-0.7364,-0.7595,-0.7588,-0.7854,-0.8151,-0.8408,-0.8788,-0.9395,-1.0134,-1.0637,-1.0892,-1.1176,-1.152,-1.1788,-1.1839,-1.2043,-1.2272,-1.2343,-1.249,-1.2604,-1.2645,-1.2605,-1.2516,-1.2502,-1.2489,-1.2305,-1.2305,-1.2305,-1.2409,0.0,0.0,0.0,0.0,0.0,0.0,0.0,0.0,0.0,0.0,0.0,0.0,-0.0079,-0.0201,-0.0237,-0.0314,-0.0511,-0.0511,-0.0707,-0.1061,-0.11,-0.1297,-0.1612,-0.1691,-0.1846,-0.204,-0.2237,-0.2433,-0.2665,-0.2957,-0.326,-0.348,-0.3711,-0.3891,-0.4108,-0.4366,-0.4581,-0.4662,-0.5074,-0.5303,-0.543,-0.5814,-0.6058,-0.617,-0.6257,-0.63,-0.63,-0.63,-0.63,-0.63,-0.63,-0.63,-0.63,-0.63,-0.63,-0.63,-0.63,-0.63,-0.63,-0.63,-0.6361,-0.6461,-0.658,-0.6702,-0.6854,-0.6957,-0.7031,-0.7038,-0.7071,-0.7095,-0.7095,-0.7095,-0.7095,-0.7095,-0.7095,-0.7095,-0.7095,-0.7095,-0.7095,-0.7095,-0.7095,-0.7078,-0.7041,-0.7037,-0.6963,-0.6927,-0.7031,-0.7172,-0.7141,-0.7368,-0.762,-0.793,-0.8119,-0.8604,-0.9373,-0.9835,-1.0251,-1.0599,-1.0959,-1.1087,-1.1257,-1.1502,-1.1669,-1.1847,-1.1906,-1.2066,-1.2269,-1.2284,-1.2318,-1.2311,-1.2305,-1.2305,-1.2305,-1.2305,-1.2305,0.0,0.0,0.0,0.0,0.0,0.0,0.0,0.0,0.0,0.0,0.0,0.0,0.0,0.0,0.0,-0.0118,-0.0314,-0.0314,-0.0432,-0.0629,-0.0629,-0.0746,-0.0943,-0.1218,-0.1415,-0.1611,-0.1847,-0.2041,-0.2228,-0.2375,-0.2537,-0.2799,-0.3248,-0.3495,-0.3568,-0.3919,-0.4212,-0.4339,-0.4612,-0.4806,-0.5032,-0.5216,-0.5529,-0.5854,-0.6135,-0.6251,-0.6296,-0.6296,-0.6296,-0.63,-0.63,-0.63,-0.63,-0.63,-0.63,-0.63,-0.63,-0.63,-0.63,-0.63,-0.6358,-0.6441,-0.6525,-0.659,-0.6702,-0.6848,-0.6889,-0.6893,-0.7007,-0.7078,-0.7082,-0.7088,-0.7095,-0.7095,-0.7095,-0.7095,-0.7095,-0.7082,-0.7095,-0.7085,-0.7065,-0.7007,-0.6949,-0.681,-0.6753,-0.6719,-0.6712,-0.6774,-0.699,-0.708,-0.7278,-0.7579,-0.7801,-0.8155,-0.9113,-0.9372,-0.9567,-0.992,-1.0136,-1.0269,-1.0634,-1.0974,-1.1198,-1.1422,-1.1706,-1.1892,-1.2003,-1.2114,-1.2231,-1.2268,-1.2305,-1.2305,-1.2305,-1.2298,-1.2258,0.0,0.0,0.0,0.0,0.0,0.0,0.0,0.0,0.0,0.0,0.0,0.0,0.0,0.0,0.0,-0.0039,0.0,-0.0118,-0.0236,-0.0393,-0.0393,-0.0511,-0.0707,-0.0825,-0.0864,-0.1022,-0.1336,-0.1675,-0.1915,-0.202,-0.2179,-0.2463,-0.2591,-0.277,-0.3044,-0.3385,-0.3563,-0.3675,-0.4007,-0.4293,-0.4477,-0.4756,-0.5064,-0.53,-0.5654,-0.5892,-0.6057,-0.6057,-0.6138,-0.6296,-0.6296,-0.63,-0.63,-0.63,-0.63,-0.63,-0.63,-0.63,-0.63,-0.63,-0.632,-0.6371,-0.6463,-0.6525,-0.6563,-0.6692,-0.6783,-0.6807,-0.6919,-0.6957,-0.698,-0.7041,-0.7095,-0.7095,-0.7095,-0.7092,-0.7078,-0.7021,-0.696,-0.6947,-0.6886,-0.6834,-0.6797,-0.6732,-0.6664,-0.6576,-0.6596,-0.6599,-0.66,-0.6695,-0.6868,-0.7008,-0.7238,-0.7567,-0.8038,-0.8606,-0.8966,-0.9264,-0.9514,-0.9878,-1.0261,-1.0669,-1.0931,-1.1155,-1.1446,-1.1681,-1.1749,-1.1907,-1.2061,-1.2175,-1.2188,-1.2141,-1.2305,-1.2124,-1.2044,0.0217,0.017,0.0126,0.0123,0.0081,0.004,0.0,0.0,0.0,0.0,0.0,0.0,0.0,0.0,0.0,0.0,0.0,0.0,-0.0079,-0.0196,-0.0196,-0.0314,-0.0471,-0.0511,-0.055,-0.0628,-0.0935,-0.1227,-0.1496,-0.1531,-0.1727,-0.2046,-0.2068,-0.2248,-0.2584,-0.2849,-0.2991,-0.3171,-0.3489,-0.3765,-0.3983,-0.4284,-0.4488,-0.4638,-0.4929,-0.5294,-0.5683,-0.5727,-0.5793,-0.6023,-0.611,-0.6168,-0.6293,-0.63,-0.63,-0.63,-0.63,-0.63,-0.63,-0.63,-0.63,-0.63,-0.6385,-0.6443,-0.6457,-0.6542,-0.6617,-0.6658,-0.6763,-0.6812,-0.6829,-0.6896,-0.6991,-0.7061,-0.7055,-0.7031,-0.7021,-0.69,-0.6868,-0.6792,-0.6722,-0.6644,-0.662,-0.6583,-0.6508,-0.6453,-0.6443,-0.6399,-0.6362,-0.6412,-0.6525,-0.6602,-0.6852,-0.7123,-0.7498,-0.7957,-0.8516,-0.8846,-0.9075,-0.9473,-0.9884,-1.0293,-1.0631,-1.0893,-1.113,-1.1323,-1.1513,-1.1696,-1.1833,-1.1956,-1.1879,-1.175,-1.1806,-1.1837,-1.1764,0.0583,0.0531,0.0366,0.0321,0.0276,0.0118,0.0,0.0,0.0,0.0,0.0,0.0,0.0,0.0,0.0,0.0,0.0,0.0,0.0,0.0,0.0,0.0,-0.0275,-0.0314,-0.0392,-0.0586,-0.0612,-0.0746,-0.0947,-0.1065,-0.1226,-0.1464,-0.1743,-0.1961,-0.219,-0.2357,-0.2589,-0.2893,-0.3102,-0.3303,-0.35,-0.3717,-0.3864,-0.3941,-0.4137,-0.4539,-0.5222,-0.5279,-0.539,-0.5529,-0.5688,-0.5947,-0.6178,-0.6202,-0.6254,-0.6257,-0.6257,-0.6257,-0.63,-0.63,-0.63,-0.63,-0.6306,-0.6323,-0.6347,-0.6439,-0.6511,-0.6535,-0.6607,-0.6702,-0.6702,-0.6729,-0.6837,-0.7014,-0.695,-0.6886,-0.6856,-0.679,-0.6695,-0.6664,-0.6552,-0.6518,-0.6484,-0.6429,-0.6354,-0.6337,-0.6327,-0.6323,-0.6306,-0.6338,-0.6412,-0.6525,-0.6641,-0.6834,-0.7103,-0.7407,-0.794,-0.8437,-0.8703,-0.9003,-0.9463,-0.9916,-1.018,-1.0438,-1.0787,-1.1003,-1.1073,-1.1215,-1.1275,-1.1387,-1.1318,-1.1362,-1.1444,-1.1507,-1.1435,0.0614,0.0609,0.052,0.0514,0.0511,0.0432,0.0354,0.0236,0.0196,0.0118,0.0,0.0,0.0,0.0,0.0,0.0,0.0,0.0,0.0,0.0,0.0,0.0,0.0,0.0,-0.0195,-0.0381,-0.0403,-0.0501,-0.0672,-0.0692,-0.0853,-0.1155,-0.1317,-0.1513,-0.1782,-0.1985,-0.2186,-0.2421,-0.2591,-0.2792,-0.3125,-0.3224,-0.3343,-0.3605,-0.3712,-0.3898,-0.4272,-0.4776,-0.5177,-0.5328,-0.5401,-0.5537,-0.5695,-0.5727,-0.5806,-0.6005,-0.6018,-0.6138,-0.6257,-0.6296,-0.6257,-0.63,-0.63,-0.63,-0.63,-0.634,-0.6371,-0.6381,-0.6458,-0.6542,-0.6559,-0.6644,-0.6732,-0.6782,-0.6797,-0.677,-0.6746,-0.663,-0.6508,-0.645,-0.6395,-0.6368,-0.6361,-0.631,-0.6303,-0.63,-0.63,-0.63,-0.63,-0.63,-0.63,-0.6412,-0.649,-0.6602,-0.6834,-0.7103,-0.7484,-0.7978,-0.8322,-0.8589,-0.9046,-0.9412,-0.9691,-1.0038,-1.0361,-1.058,-1.0656,-1.0744,-1.0779,-1.0893,-1.097,-1.106,-1.1204,-1.1146,-1.1015,0.1045,0.0962,0.0909,0.0825,0.0707,0.0629,0.055,0.0432,0.0393,0.0314,0.0157,0.0,0.0079,0.0,0.0,0.0,0.0,0.0,0.0,0.0,0.0,0.0,0.0,0.0,-0.0076,-0.0147,-0.0178,-0.0279,-0.0483,-0.0442,-0.0573,-0.0841,-0.0942,-0.111,-0.1412,-0.158,-0.1782,-0.1985,-0.2153,-0.2389,-0.2656,-0.2757,-0.2924,-0.3159,-0.3261,-0.336,-0.3534,-0.4102,-0.4542,-0.4764,-0.4949,-0.5165,-0.5387,-0.5433,-0.5532,-0.5717,-0.5755,-0.5845,-0.6012,-0.6064,-0.6138,-0.6138,-0.6257,-0.63,-0.63,-0.63,-0.63,-0.6317,-0.6381,-0.6433,-0.645,-0.6511,-0.6573,-0.6539,-0.6586,-0.6586,-0.6542,-0.6494,-0.6412,-0.6334,-0.6306,-0.63,-0.63,-0.63,-0.63,-0.63,-0.63,-0.63,-0.63,-0.63,-0.63,-0.63,-0.6377,-0.649,-0.6602,-0.6834,-0.7065,-0.7488,-0.7949,-0.825,-0.867,-0.889,-0.9134,-0.9499,-0.986,-0.9937,-0.999,-1.0137,-1.0254,-1.0418,-1.0484,-1.0517,-1.054,-1.0535,-1.0477,0.1808,0.1573,0.1415,0.1179,0.0982,0.0786,0.0707,0.0629,0.0629,0.0511,0.0354,0.0314,0.0236,0.0039,0.0,0.0,0.0,0.0,0.0,0.0,0.0,0.0,0.0,0.0,0.0,0.0,0.0,-0.0104,-0.0271,-0.027,-0.0371,-0.054,-0.0674,-0.0876,-0.1043,-0.121,-0.1379,-0.158,-0.1782,-0.1985,-0.2188,-0.2288,-0.2456,-0.2653,-0.2822,-0.2922,-0.3029,-0.3347,-0.3657,-0.3941,-0.4412,-0.4786,-0.5102,-0.5219,-0.5207,-0.5371,-0.542,-0.5516,-0.5611,-0.5787,-0.587,-0.5867,-0.6086,-0.6257,-0.6219,-0.6219,-0.6219,-0.6296,-0.6313,-0.6313,-0.6317,-0.633,-0.6337,-0.6327,-0.6436,-0.6446,-0.633,-0.6313,-0.631,-0.6303,-0.63,-0.63,-0.63,-0.63,-0.63,-0.63,-0.63,-0.63,-0.63,-0.63,-0.63,-0.63,-0.6338,-0.6377,-0.649,-0.6641,-0.6868,-0.7049,-0.7443,-0.7774,-0.8176,-0.8398,-0.8534,-0.8933,-0.9241,-0.9307,-0.9383,-0.9517,-0.963,-0.9718,-0.9752,-0.9823,-0.9919,-0.9995,-1.011,0.2003,0.1808,0.1769,0.173,0.1612,0.1415,0.1258,0.11,0.0904,0.0746,0.055,0.0511,0.0393,0.0236,0.0236,0.0118,0.0,0.0,0.0,0.0,0.0,0.0,0.0,0.0,0.0,0.0,0.0,0.0,-0.0101,0.0,0.0,-0.0371,-0.0405,-0.0506,-0.0674,-0.0842,-0.101,-0.121,-0.1378,-0.1547,-0.1715,-0.1782,-0.1916,-0.2084,-0.2186,-0.2319,-0.2557,-0.279,-0.3232,-0.3794,-0.3925,-0.4089,-0.4264,-0.431,-0.4501,-0.482,-0.4921,-0.504,-0.5313,-0.551,-0.5595,-0.5607,-0.5714,-0.587,-0.598,-0.6018,-0.6099,-0.6219,-0.63,-0.6257,-0.6296,-0.63,-0.63,-0.6303,-0.6344,-0.6351,-0.6313,-0.63,-0.63,-0.63,-0.63,-0.63,-0.63,-0.63,-0.63,-0.63,-0.63,-0.63,-0.63,-0.63,-0.63,-0.63,-0.63,-0.6338,-0.6416,-0.6525,-0.6633,-0.6689,-0.6923,-0.7137,-0.7573,-0.7952,-0.8059,-0.8231,-0.8603,-0.8732,-0.8793,-0.8881,-0.8937,-0.9081,-0.9215,-0.9344,-0.953,-0.9676,-0.9817,0.2472,0.2277,0.2278,0.2199,0.2042,0.1923,0.1727,0.1533,0.1375,0.114,0.0943,0.0904,0.0707,0.0432,0.0432,0.0354,0.0236,0.0157,0.0,0.0,0.0,0.0,0.0,0.0,0.0,0.0,0.0,0.0,0.0,0.0,0.0,-0.0169,-0.0236,-0.0337,-0.0438,-0.0573,-0.0741,-0.0841,-0.0942,-0.1076,-0.1378,-0.1378,-0.1547,-0.1715,-0.1782,-0.1918,-0.2188,-0.2321,-0.2721,-0.3293,-0.346,-0.3554,-0.3707,-0.3751,-0.3936,-0.4318,-0.4364,-0.4487,-0.4762,-0.5017,-0.5157,-0.5208,-0.532,-0.5525,-0.5679,-0.574,-0.5825,-0.5941,-0.6022,-0.6064,-0.6138,-0.6219,-0.6296,-0.63,-0.63,-0.63,-0.63,-0.63,-0.63,-0.63,-0.63,-0.63,-0.63,-0.63,-0.63,-0.63,-0.63,-0.63,-0.63,-0.6296,-0.6289,-0.6279,-0.6255,-0.6238,-0.6194,-0.6287,-0.6337,-0.6405,-0.6482,-0.6666,-0.6985,-0.7403,-0.755,-0.7633,-0.7952,-0.8192,-0.826,-0.8349,-0.8538,-0.8662,-0.8765,-0.8926,-0.9145,-0.9294,-0.9466,0.3061,0.2904,0.2863,0.2666,0.2392,0.2275,0.2158,0.2004,0.1886,0.169,0.1414,0.1375,0.11,0.0668,0.0707,0.0629,0.055,0.0393,0.0313,0.0233,0.0153,0.0,0.0,0.0,0.0,0.0,0.0,0.0,0.0,0.0,0.0,0.0,-0.0169,-0.027,-0.0304,-0.0405,-0.0472,-0.0506,-0.0573,-0.0741,-0.0975,-0.1043,-0.1144,-0.1345,-0.1479,-0.1614,-0.1782,-0.1916,-0.222,-0.2822,-0.2922,-0.3098,-0.3335,-0.3368,-0.3538,-0.374,-0.3834,-0.3904,-0.4089,-0.4429,-0.4599,-0.4676,-0.4942,-0.5237,-0.5346,-0.5377,-0.5448,-0.5613,-0.56,-0.5726,-0.5867,-0.606,-0.6141,-0.6141,-0.618,-0.6219,-0.6222,-0.6261,-0.63,-0.63,-0.63,-0.63,-0.63,-0.6296,-0.63,-0.63,-0.63,-0.63,-0.6276,-0.6207,-0.62,-0.6231,-0.6201,-0.6163,-0.6064,-0.6003,-0.6025,-0.6067,-0.6122,-0.6277,-0.6418,-0.6754,-0.6949,-0.7143,-0.7404,-0.7617,-0.7733,-0.7857,-0.8079,-0.8242,-0.8371,-0.8571,-0.877,-0.8888,-0.9049,0.3767,0.3567,0.337,0.3253,0.3175,0.2823,0.255,0.2354,0.2196,0.2041,0.1807,0.1769,0.1533,0.1179,0.1139,0.0982,0.0668,0.0589,0.0467,0.0304,0.026,0.0145,0.0,0.0,0.0,0.0,0.0,0.0,0.0,0.0,0.0,0.0,0.0,0.0,0.0,-0.0236,-0.0337,-0.0337,-0.0438,-0.0506,-0.0607,-0.0674,-0.0708,-0.0808,-0.1043,-0.121,-0.1311,-0.1547,-0.1748,-0.195,-0.2285,-0.2523,-0.2658,-0.279,-0.3003,-0.3187,-0.3328,-0.344,-0.3637,-0.3911,-0.4089,-0.4097,-0.4296,-0.452,-0.4826,-0.4874,-0.5031,-0.5301,-0.5451,-0.5474,-0.5624,-0.5705,-0.5764,-0.5793,-0.5761,-0.577,-0.5828,-0.606,-0.6219,-0.6257,-0.6257,-0.6296,-0.6293,-0.6282,-0.6286,-0.6293,-0.6286,-0.6289,-0.62,-0.6132,-0.6108,-0.6081,-0.603,-0.5973,-0.5895,-0.5823,-0.5774,-0.5779,-0.5835,-0.5877,-0.6045,-0.6205,-0.644,-0.6647,-0.6865,-0.7045,-0.7237,-0.7461,-0.7684,-0.7819,-0.7982,-0.8149,-0.8312,-0.8468,-0.863,0.419,0.4073,0.3917,0.3839,0.3724,0.3411,0.3137,0.2901,0.2707,0.2512,0.2316,0.2238,0.2002,0.1727,0.161,0.1375,0.1061,0.0825,0.062,0.0492,0.0443,0.036,0.0246,0.0139,0.0,0.0,0.0,0.0,0.0,0.0,0.0,0.0,0.0,0.0,0.0,0.0,-0.0135,-0.0169,-0.0236,-0.0304,-0.0405,-0.0405,-0.0472,-0.0506,-0.0707,-0.0808,-0.0841,-0.0976,-0.1078,-0.1178,-0.1513,-0.1918,-0.2119,-0.2253,-0.2453,-0.269,-0.2792,-0.2926,-0.3145,-0.3334,-0.3466,-0.347,-0.3693,-0.3949,-0.4197,-0.4285,-0.4459,-0.4684,-0.4823,-0.4927,-0.5173,-0.5404,-0.541,-0.5445,-0.5448,-0.5485,-0.5507,-0.5746,-0.6025,-0.606,-0.6099,-0.613,-0.6148,-0.6121,-0.6091,-0.604,-0.601,-0.6013,-0.6,-0.5942,-0.5939,-0.5911,-0.5864,-0.58,-0.5715,-0.5637,-0.559,-0.5576,-0.5576,-0.5605,-0.567,-0.5844,-0.6024,-0.6247,-0.6449,-0.6618,-0.6815,-0.7036,-0.7232,-0.733,-0.7493,-0.7689,-0.7884,-0.8079,-0.8274,0.4579,0.4579,0.4501,0.4384,0.4233,0.3997,0.3724,0.3487,0.3295,0.31,0.2902,0.2666,0.247,0.2275,0.2081,0.1886,0.1573,0.1294,0.1006,0.0749,0.0736,0.0608,0.0453,0.0341,0.027,0.0101,0.0,0.0,0.0,0.0,0.0,0.0,0.0,0.0,0.0,0.0,0.0,0.0,0.0,-0.0101,-0.0236,-0.027,-0.0304,-0.0371,-0.0472,-0.0506,-0.0506,-0.0573,-0.054,-0.0506,-0.0841,-0.1211,-0.158,-0.1849,-0.1951,-0.2255,-0.2322,-0.2423,-0.2587,-0.2794,-0.2932,-0.2924,-0.3198,-0.3436,-0.3595,-0.3723,-0.3858,-0.3985,-0.414,-0.4318,-0.4576,-0.4829,-0.5041,-0.5068,-0.5096,-0.5123,-0.5162,-0.5292,-0.5404,-0.5733,-0.5765,-0.5795,-0.5837,-0.5804,-0.5795,-0.5797,-0.577,-0.5754,-0.575,-0.5769,-0.5772,-0.5735,-0.5684,-0.5637,-0.5555,-0.5535,-0.5477,-0.5457,-0.5419,-0.5409,-0.5428,-0.5557,-0.5752,-0.5885,-0.6083,-0.6251,-0.6453,-0.6646,-0.6806,-0.6876,-0.7073,-0.733,-0.7526,-0.7722,-0.7884,0.5401,0.5362,0.5046,0.4888,0.4771,0.4462,0.419,0.396,0.3765,0.3567,0.337,0.3098,0.2904,0.2707,0.2511,0.2198,0.1925,0.1687,0.1458,0.1185,0.1093,0.0928,0.065,0.0542,0.0472,0.0371,0.0169,0.0,0.0,0.0,0.0,0.0,0.0,0.0,0.0,0.0,0.0,0.0,0.0,0.0,0.0,0.0,0.0,0.0,-0.027,-0.0304,-0.0371,-0.0438,-0.0472,-0.0506,-0.0573,-0.0674,-0.0909,-0.1312,-0.1614,-0.1748,-0.1884,-0.1985,-0.2084,-0.2321,-0.2456,-0.2557,-0.2723,-0.2922,-0.3078,-0.3151,-0.3315,-0.3537,-0.3772,-0.4008,-0.4174,-0.4257,-0.4282,-0.4321,-0.4342,-0.4339,-0.4352,-0.4421,-0.4677,-0.5149,-0.5292,-0.545,-0.5495,-0.5505,-0.549,-0.5477,-0.5454,-0.5521,-0.556,-0.559,-0.5588,-0.5569,-0.5535,-0.5487,-0.5433,-0.544,-0.5416,-0.5423,-0.5405,-0.5405,-0.5395,-0.5395,-0.5524,-0.5686,-0.5818,-0.5954,-0.6152,-0.6317,-0.6416,-0.6515,-0.6745,-0.6975,-0.7138,-0.7297,-0.7493,0.5601,0.5601,0.5401,0.5323,0.5243,0.489,0.4657,0.4504,0.4231,0.4073,0.3917,0.3726,0.3491,0.3294,0.3096,0.2784,0.2434,0.2119,0.1908,0.1692,0.1527,0.1348,0.1015,0.0909,0.0808,0.0707,0.0438,0.0202,0.0,0.0,0.0,0.0,0.0,0.0,0.0,0.0,0.0,0.0,0.0,0.0,0.0,0.0,0.0,0.0,0.0,-0.0135,-0.0169,-0.0202,-0.0236,-0.0236,-0.0337,-0.0371,-0.0539,-0.0741,-0.111,-0.1311,-0.1446,-0.158,-0.1715,-0.1918,-0.1985,-0.2018,-0.2185,-0.2386,-0.2555,-0.2659,-0.279,-0.3068,-0.3282,-0.3477,-0.3518,-0.3607,-0.3635,-0.3637,-0.3642,-0.3713,-0.3779,-0.3781,-0.4102,-0.4545,-0.4739,-0.4973,-0.5239,-0.5211,-0.5186,-0.5161,-0.5142,-0.5215,-0.5363,-0.5352,-0.5297,-0.5332,-0.5319,-0.5333,-0.5299,-0.5296,-0.5296,-0.5329,-0.5359,-0.5359,-0.5395,-0.5392,-0.5392,-0.5488,-0.5624,-0.5756,-0.5822,-0.5984,-0.6086,-0.6189,-0.6416,-0.6646,-0.6712,-0.6876,-0.7073,0.5757,0.5754,0.5673,0.5676,0.5595,0.5279,0.5124,0.5046,0.4693,0.454,0.4501,0.427,0.4036,0.388,0.3684,0.3372,0.2902,0.2586,0.2402,0.2168,0.2001,0.1844,0.1601,0.1412,0.1244,0.1144,0.0808,0.0505,0.0337,0.0169,0.0101,0.0,0.0,0.0,0.0,0.0,0.0,0.0,0.0,0.0,0.0,0.0,0.0,0.0,0.0,0.0,0.0,0.0,0.0,0.0,-0.0135,-0.0236,-0.027,-0.0337,-0.0573,-0.0875,-0.0975,-0.1144,-0.1312,-0.1513,-0.1547,-0.1547,-0.1715,-0.1918,-0.2052,-0.222,-0.2356,-0.2554,-0.2725,-0.2831,-0.2883,-0.2967,-0.3034,-0.3072,-0.3107,-0.3165,-0.3282,-0.3358,-0.34,-0.3785,-0.4157,-0.4407,-0.4591,-0.4706,-0.462,-0.4748,-0.4761,-0.4888,-0.4996,-0.4974,-0.5001,-0.5055,-0.5103,-0.5173,-0.5196,-0.5163,-0.5163,-0.5126,-0.5193,-0.5256,-0.5292,-0.5359,-0.5359,-0.5392,-0.5458,-0.5591,-0.562,-0.5686,-0.5818,-0.5951,-0.6152,-0.6284,-0.635,-0.6519,-0.6749,0.6222,0.6183,0.5944,0.5864,0.5828,0.5634,0.5521,0.5479,0.5124,0.4927,0.4929,0.4579,0.4423,0.4307,0.4116,0.3763,0.3448,0.3244,0.2978,0.2636,0.2508,0.2267,0.193,0.185,0.1681,0.1547,0.1211,0.0841,0.0606,0.0405,0.027,0.0236,0.0,0.0,0.0,0.0,0.0,0.0,0.0,0.0,0.0,0.0,0.0,0.0,0.0,0.0,0.0,0.0,0.0,0.0,0.0,0.0,-0.0034,-0.0067,-0.0169,-0.0371,-0.0505,-0.0573,-0.0741,-0.0975,-0.1143,-0.1177,-0.1412,-0.158,-0.1715,-0.1883,-0.1985,-0.1985,-0.2186,-0.2287,-0.2354,-0.2423,-0.2491,-0.2557,-0.2589,-0.2688,-0.2787,-0.2824,-0.2889,-0.3062,-0.3412,-0.3632,-0.383,-0.3919,-0.4043,-0.4203,-0.4398,-0.4531,-0.4631,-0.4631,-0.4697,-0.4761,-0.4927,-0.4994,-0.5027,-0.503,-0.4997,-0.496,-0.5027,-0.5123,-0.516,-0.5193,-0.5296,-0.5329,-0.5359,-0.5392,-0.5422,-0.5488,-0.5587,-0.5719,-0.5885,-0.5954,-0.5958,-0.6189,-0.6453,0.63,0.63,0.6177,0.6138,0.6099,0.587,0.5789,0.5709,0.5476,0.5362,0.5323,0.5168,0.4971,0.4735,0.4426,0.4153,0.3956,0.3841,0.3549,0.3119,0.2973,0.2727,0.2413,0.222,0.2085,0.1918,0.1681,0.1447,0.1078,0.0674,0.0405,0.0404,0.0304,0.0,0.0169,0.0169,0.0,0.0,0.0,0.0,0.0,0.0,0.0,0.0,0.0,0.0,0.0,0.0,0.0,0.0,0.0,0.0,0.0,0.0,-0.0034,-0.0135,-0.0202,-0.0304,-0.0506,-0.0674,-0.074,-0.0774,-0.0943,-0.1043,-0.1278,-0.1547,-0.1715,-0.1748,-0.1816,-0.185,-0.185,-0.1918,-0.1951,-0.1985,-0.2118,-0.2218,-0.2284,-0.2284,-0.2319,-0.2522,-0.2691,-0.2924,-0.3157,-0.3395,-0.3598,-0.3863,-0.3995,-0.4061,-0.4228,-0.4364,-0.4398,-0.45,-0.4664,-0.4827,-0.4861,-0.4861,-0.4831,-0.4831,-0.4864,-0.4927,-0.4927,-0.4997,-0.5096,-0.5096,-0.5027,-0.5093,-0.5193,-0.5359,-0.5455,-0.5554,-0.5624,-0.569,-0.5756,-0.5892,-0.6156,0.6338,0.63,0.63,0.63,0.6257,0.606,0.598,0.598,0.575,0.5676,0.5637,0.5598,0.5401,0.5165,0.4813,0.4618,0.454,0.435,0.4029,0.3693,0.3473,0.3246,0.2935,0.269,0.2523,0.2389,0.2119,0.1918,0.1615,0.1212,0.0876,0.0674,0.0506,0.0438,0.0371,0.0337,0.027,0.0,0.0,0.0,0.0,0.0,0.0,0.0,0.0,0.0,0.0,0.0,0.0,0.0,0.0,0.0,0.0,0.0,0.0,0.0,0.0,-0.0135,-0.0304,-0.0438,-0.0438,-0.0472,-0.0506,-0.0707,-0.0909,-0.1212,-0.1312,-0.1279,-0.1279,-0.1279,-0.1346,-0.1412,-0.1512,-0.1547,-0.1614,-0.1715,-0.1782,-0.1849,-0.1883,-0.2051,-0.2186,-0.2285,-0.2554,-0.2857,-0.3159,-0.3493,-0.3625,-0.3658,-0.3794,-0.3997,-0.4097,-0.4164,-0.4261,-0.4392,-0.4428,-0.4495,-0.4528,-0.4631,-0.4631,-0.4664,-0.4664,-0.4764,-0.4894,-0.4827,-0.4728,-0.4861,-0.5027,-0.5193,-0.5359,-0.5425,-0.5524,-0.5521,-0.562,-0.5756,-0.5888,0.6447,0.63,0.63,0.63,0.63,0.6257,0.6257,0.6219,0.598,0.5902,0.5864,0.5712,0.5598,0.5482,0.5279,0.5079,0.4957,0.4735,0.4392,0.4159,0.3986,0.3729,0.3447,0.3192,0.306,0.2857,0.2589,0.2322,0.2119,0.185,0.1446,0.1109,0.0842,0.0607,0.0506,0.0506,0.0405,0.0236,0.0135,0.0,0.0,0.0,0.0,0.0,0.0,0.0,0.0,0.0,0.0,0.0,0.0,0.0,0.0,0.0,0.0,0.0,0.0,0.0,0.0,-0.0236,-0.0304,-0.0337,-0.0405,-0.0506,-0.0607,-0.0573,-0.0607,-0.0708,-0.0775,-0.0708,-0.0775,-0.0875,-0.1076,-0.1144,-0.1211,-0.1312,-0.1413,-0.1446,-0.1513,-0.1614,-0.1715,-0.1849,-0.1983,-0.2285,-0.2656,-0.3023,-0.319,-0.3255,-0.3424,-0.3594,-0.3725,-0.3792,-0.3825,-0.3859,-0.3859,-0.3928,-0.4064,-0.4161,-0.4228,-0.4298,-0.4334,-0.4464,-0.4561,-0.4595,-0.4528,-0.4661,-0.4797,-0.4897,-0.503,-0.5296,-0.5425,-0.5422,-0.5455,-0.5591,-0.5723,0.6676,0.6486,0.649,0.6412,0.63,0.63,0.63,0.6296,0.6219,0.6138,0.6093,0.5906,0.5786,0.5744,0.5589,0.539,0.5249,0.5202,0.4783,0.4505,0.4305,0.4094,0.3797,0.3594,0.3458,0.3293,0.3027,0.2825,0.2688,0.2388,0.2119,0.1716,0.1279,0.101,0.0875,0.0674,0.0506,0.0438,0.0371,0.0304,0.0304,0.0304,0.027,0.0202,0.0169,0.0101,0.0,0.0,0.0,0.0,0.0,0.0,0.0,0.0,0.0,0.0,0.0,0.0,0.0,0.0,-0.0101,-0.0169,-0.027,-0.0371,-0.0371,-0.0438,-0.0472,-0.0506,-0.0472,-0.0438,-0.054,-0.064,-0.0707,-0.0775,-0.0841,-0.0977,-0.101,-0.1077,-0.1144,-0.1244,-0.1345,-0.1445,-0.1579,-0.1748,-0.2151,-0.2522,-0.2688,-0.2855,-0.3023,-0.3159,-0.3257,-0.3357,-0.3357,-0.3391,-0.3391,-0.3493,-0.3596,-0.3694,-0.3794,-0.3861,-0.393,-0.3995,-0.4092,-0.4161,-0.4261,-0.4295,-0.4395,-0.4531,-0.4731,-0.503,-0.5193,-0.5256,-0.5322,-0.5392,-0.5524,0.6757,0.6534,0.6459,0.6377,0.6228,0.619,0.6162,0.6163,0.6153,0.6122,0.6122,0.5929,0.585,0.5815,0.5657,0.5541,0.5424,0.5316,0.5042,0.4795,0.461,0.4398,0.4162,0.3959,0.3828,0.3663,0.3462,0.3293,0.3125,0.2792,0.2591,0.2287,0.1918,0.158,0.1177,0.0909,0.0674,0.0674,0.0539,0.0506,0.0472,0.0472,0.0472,0.0371,0.0337,0.0304,0.0202,0.0,0.0,0.0,0.0,0.0,0.0,0.0,0.0,0.0,0.0,0.0,0.0,0.0,0.0,0.0,-0.0135,-0.0202,0.0,0.0,-0.027,-0.0304,-0.0337,0.0,0.0,-0.0404,-0.0472,-0.0539,-0.0607,-0.0674,-0.0674,-0.0708,-0.0775,-0.0875,-0.0942,-0.101,-0.1144,-0.1312,-0.1648,-0.2018,-0.2252,-0.2386,-0.2455,-0.2589,-0.2757,-0.2824,-0.2857,-0.2926,-0.296,-0.3058,-0.3157,-0.3226,-0.3324,-0.3458,-0.3527,-0.3558,-0.3661,-0.3797,-0.3863,-0.3894,-0.3995,-0.4161,-0.4464,-0.4764,-0.4894,-0.5027,-0.506,-0.5126,-0.5256,0.669,0.6312,0.619,0.6094,0.6054,0.6037,0.5959,0.5871,0.5854,0.585,0.5864,0.5814,0.5814,0.5781,0.5636,0.5534,0.5463,0.5336,0.511,0.5001,0.4918,0.4759,0.4571,0.4364,0.4231,0.3995,0.3828,0.3696,0.3531,0.3295,0.3092,0.2857,0.2488,0.2052,0.158,0.1244,0.1076,0.1042,0.0741,0.064,0.064,0.0674,0.064,0.0573,0.0539,0.0539,0.0404,0.0371,0.0337,0.027,0.027,0.0202,0.0,0.0,0.0,0.0,0.0,0.0,0.0,0.0,0.0,0.0,0.0,0.0,0.0,0.0,0.0,0.0,0.0,0.0,0.0,0.0,0.0,-0.0304,-0.0371,-0.0405,-0.0371,-0.0371,-0.0472,-0.0606,-0.0573,-0.054,-0.0674,-0.0875,-0.1212,-0.1513,-0.1782,-0.1918,-0.1985,-0.2085,-0.2253,-0.2287,-0.2354,-0.2388,-0.2455,-0.2619,-0.272,-0.2753,-0.2855,-0.2956,-0.3058,-0.3125,-0.3261,-0.3431,-0.3462,-0.346,-0.3625,-0.3825,-0.4095,-0.4331,-0.4631,-0.4797,-0.4797,-0.4894,-0.5027,0.6948,0.6662,0.6488,0.6279,0.6076,0.5913,0.5844,0.5806,0.58,0.58,0.58,0.58,0.58,0.5767,0.5708,0.5635,0.553,0.552,0.5375,0.5082,0.5073,0.4907,0.477,0.4664,0.4564,0.4464,0.4298,0.4097,0.4033,0.3763,0.3493,0.3293,0.2958,0.2455,0.195,0.1648,0.158,0.1445,0.1312,0.1245,0.1244,0.1212,0.1111,0.0909,0.0875,0.0808,0.0606,0.0573,0.0506,0.0472,0.0472,0.0405,0.0304,0.0304,0.027,0.0236,0.0202,0.0135,0.0,0.0,0.0,0.0,0.0,0.0,0.0,0.0,0.0,0.0,0.0,0.0,0.0,0.0,0.0,0.0,-0.0135,-0.0135,-0.0135,-0.0135,-0.0202,-0.0337,-0.0371,-0.0405,-0.0506,-0.0573,-0.0842,-0.1077,-0.1312,-0.1548,-0.1649,-0.1715,-0.1816,-0.1816,-0.1849,-0.1849,-0.1916,-0.215,-0.2251,-0.2285,-0.2353,-0.2488,-0.2555,-0.2656,-0.2757,-0.2891,-0.2958,-0.3023,-0.3224,-0.3393,-0.3629,-0.3897,-0.4131,-0.4461,-0.4595,-0.4694,-0.4861,0.7142,0.6904,0.663,0.6394,0.6188,0.5979,0.5846,0.5724,0.5682,0.5647,0.5675,0.5644,0.564,0.564,0.564,0.562,0.5545,0.5542,0.5491,0.5226,0.5193,0.5063,0.4964,0.4894,0.4794,0.4761,0.4631,0.4464,0.4434,0.4131,0.3861,0.3594,0.336,0.3025,0.2555,0.2287,0.2018,0.1918,0.1817,0.1715,0.1681,0.1648,0.1547,0.1344,0.1244,0.1178,0.0942,0.0808,0.0741,0.0707,0.064,0.0607,0.054,0.0506,0.0438,0.0371,0.0371,0.027,0.0,0.0,0.0,0.0,0.0,0.0,0.0,0.0,0.0,0.0,0.0,0.0,0.0,0.0,0.0,0.0,0.0,0.0,0.0,0.0,0.0,0.0,0.0,0.0,-0.0337,-0.0405,-0.0539,-0.0707,-0.0875,-0.1077,-0.1279,-0.1312,-0.1345,-0.1345,-0.1379,-0.1446,-0.1547,-0.1715,-0.1782,-0.1816,-0.1884,-0.1985,-0.2052,-0.2118,-0.2252,-0.2351,-0.242,-0.252,-0.2757,-0.2991,-0.3159,-0.3326,-0.3527,-0.3859,-0.4256,-0.4425,-0.4528,0.7274,0.6881,0.6552,0.6432,0.6386,0.6207,0.5909,0.5601,0.5472,0.5446,0.5409,0.5433,0.545,0.5423,0.5416,0.5423,0.5423,0.5416,0.5409,0.5369,0.5359,0.5226,0.5156,0.509,0.5027,0.4894,0.4794,0.4764,0.4764,0.4464,0.4161,0.3894,0.3794,0.3527,0.3228,0.2891,0.2555,0.2421,0.2287,0.2186,0.2084,0.1983,0.1883,0.1748,0.1648,0.1614,0.1446,0.1379,0.1244,0.111,0.0977,0.0775,0.064,0.0539,0.0539,0.0506,0.0506,0.0405,0.0337,0.0304,0.0236,0.0135,0.0,0.0,0.0,0.0,0.0,0.0,0.0,0.0,0.0,0.0,0.0,0.0,0.0,0.0,0.0,0.0,0.0,0.0,0.0,0.0,0.0,-0.0169,0.0,-0.0371,-0.0472,-0.0539,-0.0708,-0.0775,-0.0808,-0.0808,-0.0909,-0.1043,-0.1177,-0.1279,-0.1312,-0.1279,-0.1379,-0.148,-0.1547,-0.1648,-0.1816,-0.1915,-0.1916,-0.2017,-0.2285,-0.2487,-0.2654,-0.2822,-0.2956,-0.3291,-0.3692,-0.3892,-0.3995,0.7531,0.7297,0.7073,0.6876,0.6725,0.6444,0.6129,0.5822,0.562,0.555,0.5554,0.5425,0.5425,0.5395,0.5395,0.5395,0.5395,0.5395,0.5395,0.5395,0.5395,0.5359,0.5326,0.5292,0.5263,0.5193,0.5093,0.5027,0.496,0.4761,0.4464,0.4197,0.4164,0.3997,0.3761,0.3491,0.3192,0.2924,0.2824,0.2656,0.252,0.2453,0.2354,0.222,0.2153,0.2052,0.1849,0.1782,0.1648,0.148,0.1412,0.1312,0.1312,0.1144,0.101,0.0708,0.0607,0.0472,0.0438,0.0438,0.0405,0.0337,0.027,0.0101,0.0,0.0,0.0,0.0,0.0,0.0,0.0,0.0,0.0,0.0,0.0,0.0,0.0,0.0,0.0,0.0,0.0,0.0,0.0,0.0,0.0,0.0,0.0,0.0,-0.0236,-0.0337,-0.0405,-0.0438,-0.0539,-0.0741,-0.0707,-0.0809,-0.0775,-0.0775,-0.0909,-0.1043,-0.1177,-0.1312,-0.1412,-0.148,-0.1547,-0.1648,-0.1782,-0.1983,-0.2218,-0.2252,-0.2421,-0.2757,-0.3092,-0.3326,-0.3493,0.7917,0.7749,0.7493,0.7241,0.6979,0.6712,0.6486,0.6255,0.5885,0.5719,0.5719,0.5554,0.5488,0.5458,0.5425,0.5395,0.5395,0.5395,0.5395,0.5395,0.5395,0.5395,0.5395,0.5395,0.5395,0.5359,0.5292,0.5226,0.516,0.499,0.4728,0.4531,0.45,0.4364,0.4228,0.4161,0.3959,0.3625,0.3391,0.3224,0.309,0.2989,0.2857,0.269,0.2658,0.2456,0.2253,0.2186,0.2018,0.1918,0.1884,0.1782,0.1715,0.1513,0.1379,0.1111,0.0943,0.0841,0.0774,0.0674,0.0573,0.0506,0.0438,0.0337,0.0202,0.0,0.0,0.0,0.0,0.0,0.0,0.0,0.0,0.0,0.0,0.0,0.0,0.0,0.0,0.0,0.0,0.0,0.0,0.0,0.0,0.0,0.0,0.0,0.0,-0.0169,-0.0202,-0.0236,-0.0337,-0.0472,-0.0438,-0.0438,-0.0506,-0.0573,-0.064,-0.0741,-0.0841,-0.0909,-0.0976,-0.1111,-0.1278,-0.1345,-0.1412,-0.1648,-0.1849,-0.185,-0.185,-0.2118,-0.2453,-0.2822,-0.3023,0.8414,0.8236,0.7884,0.7559,0.7269,0.7077,0.6946,0.6881,0.6317,0.5987,0.5921,0.5719,0.565,0.562,0.5521,0.5458,0.5425,0.5425,0.5395,0.5395,0.5395,0.5395,0.5395,0.5395,0.5395,0.5395,0.5392,0.5326,0.5326,0.5193,0.5027,0.4827,0.4797,0.4728,0.4661,0.4628,0.4461,0.4228,0.3961,0.3758,0.356,0.3462,0.3395,0.3157,0.3056,0.2958,0.279,0.2622,0.2491,0.2423,0.2322,0.2186,0.1985,0.1816,0.1715,0.1547,0.1379,0.1244,0.1144,0.101,0.0843,0.0708,0.0539,0.0539,0.0438,0.027,0.0,0.0,0.0,0.0,0.0,0.0,0.0,0.0,0.0,0.0,0.0,0.0,0.0,0.0,0.0,0.0,0.0,0.0,0.0,0.0,0.0,0.0,0.0,0.0,0.0,0.0,0.0,0.0,-0.027,-0.0304,-0.0371,-0.0405,0.0,-0.0472,-0.0573,-0.0573,-0.0506,-0.0708,-0.0942,-0.0975,-0.1076,-0.1244,-0.1346,-0.138,-0.1413,-0.1513,-0.1814,-0.2218,-0.2453,0.8797,0.8603,0.8242,0.7982,0.7792,0.7601,0.7433,0.733,0.7036,0.6646,0.6288,0.5987,0.5822,0.5785,0.562,0.5554,0.5554,0.5491,0.5425,0.5428,0.5428,0.5458,0.5392,0.5425,0.5392,0.5395,0.5395,0.5395,0.5392,0.5326,0.5223,0.5057,0.5024,0.4994,0.4864,0.4864,0.4761,0.4631,0.4528,0.4192,0.3861,0.3761,0.3658,0.3591,0.3591,0.346,0.3326,0.3228,0.306,0.2924,0.2855,0.2622,0.2322,0.2221,0.2085,0.1884,0.1782,0.1648,0.1547,0.1412,0.1279,0.1144,0.1009,0.0876,0.0708,0.0506,0.0405,0.0405,0.0371,0.0337,0.0337,0.0337,0.0337,0.0337,0.0337,0.027,0.0236,0.0,0.0,0.0,0.0,0.0,0.0,0.0,0.0,0.0,0.0,0.0,0.0,0.0,0.0,0.0,0.0,0.0,0.0,0.0,0.0,0.0,0.0,0.0,0.0,-0.0337,-0.0371,-0.0472,-0.0606,-0.0673,-0.0707,-0.0674,-0.0775,-0.0909,-0.101,-0.111,-0.1211,-0.1547,-0.1782,0.9145,0.899,0.8635,0.8436,0.8312,0.8047,0.7884,0.7749,0.7461,0.7167,0.6839,0.6383,0.6086,0.602,0.5818,0.5719,0.5719,0.5657,0.5657,0.5627,0.5561,0.5557,0.5521,0.5488,0.5425,0.5425,0.5392,0.5395,0.5428,0.5395,0.5326,0.5256,0.5223,0.516,0.5063,0.506,0.4994,0.4927,0.4924,0.4658,0.4225,0.4225,0.4128,0.4131,0.3997,0.3863,0.3694,0.3629,0.3527,0.336,0.3259,0.3159,0.2926,0.2758,0.2591,0.2388,0.2253,0.2085,0.1951,0.1849,0.1715,0.158,0.1412,0.1245,0.1245,0.1043,0.0741,0.0674,0.0472,0.0438,0.0438,0.0438,0.0438,0.0438,0.0438,0.0405,0.0371,0.0,0.0,0.0,0.0,0.0,0.0,0.0,0.0,0.0,0.0,0.0,0.0,0.0,0.0,0.0,0.0,0.0,0.0,0.0,0.0,0.0,0.0,0.0,0.0,0.0,-0.027,-0.0337,-0.0371,-0.0438,-0.0438,-0.0405,-0.0472,-0.064,-0.0707,-0.074,-0.0841,-0.0942,-0.1144,0.946,0.9306,0.9022,0.8861,0.8802,0.8468,0.8269,0.8172,0.7819,0.7587,0.7396,0.6843,0.6478,0.6247,0.6053,0.5987,0.5921,0.5822,0.5855,0.5855,0.5859,0.5756,0.5686,0.5653,0.5587,0.5524,0.5491,0.5458,0.5458,0.5425,0.5395,0.5395,0.5395,0.5395,0.5395,0.5395,0.5292,0.519,0.5123,0.5024,0.4927,0.4827,0.4597,0.4434,0.4334,0.4195,0.4028,0.3925,0.3925,0.3761,0.3627,0.3496,0.3426,0.3226,0.3125,0.2922,0.2757,0.2591,0.2455,0.2253,0.2119,0.1951,0.1782,0.1681,0.1681,0.1513,0.1212,0.1044,0.0809,0.0674,0.0674,0.0674,0.0674,0.064,0.064,0.0573,0.0573,0.054,0.0506,0.0506,0.0472,0.0438,0.0405,0.0337,0.0236,0.0101,0.0034,0.0034,0.0,0.0,0.0,0.0,0.0,0.0,0.0,0.0,0.0,0.0,0.0,0.0,0.0,0.0,0.0,-0.0101,-0.0135,-0.0236,-0.027,-0.027,-0.0371,-0.0371,-0.0404,-0.0438,-0.0539,-0.0607,-0.0573,0.9722,0.946,0.939,0.9242,0.899,0.8856,0.8694,0.8479,0.8349,0.809,0.7694,0.7428,0.7064,0.6609,0.6387,0.6288,0.6185,0.609,0.5925,0.5892,0.6024,0.5954,0.5855,0.5818,0.5822,0.5756,0.5657,0.5587,0.5587,0.5491,0.5428,0.5428,0.5395,0.5395,0.5395,0.5395,0.5359,0.5292,0.5326,0.5259,0.5193,0.503,0.4831,0.4734,0.47,0.4664,0.4597,0.4595,0.4431,0.4197,0.3961,0.3828,0.3761,0.3694,0.3558,0.3426,0.3261,0.3092,0.2924,0.279,0.2656,0.2389,0.2253,0.2188,0.2153,0.2085,0.1885,0.1817,0.1616,0.1413,0.1346,0.1312,0.1312,0.1212,0.1144,0.0977,0.0842,0.0741,0.064,0.064,0.0607,0.0573,0.0539,0.0506,0.0472,0.0371,0.0304,0.0304,0.0304,0.0337,0.0405,0.0371,0.0337,0.0,0.0,0.0,0.0,0.0,0.0,0.0,0.0,0.0,0.0,0.0,0.0034,-0.0034,-0.0067,-0.0067,-0.0067,-0.0067,-0.0067,-0.0135,-0.0236,-0.0337,-0.0337]}]]